[[{"header":{"parameterUnit":"m.s-1","parameterCategory":1,"la1":31.0,"la2":29.5877,"lo1":-88.7671,"lo2":-86.6584,"dy":0.0162,"dx":0.0185,"nx":115,"ny":88,"refTime":"2023-02-27T06:00:00:Z","depth":0,"parameterNumber":2,"parameterNumberName":"U-component_of_WINDS"},"data":[0.0,0.0,0.0,0.0,0.0,0.0,0.0,0.0,0.0,0.0,0.0,0.0,0.0,0.0,0.0,0.0,0.0,0.0,0.0,0.0,0.0,0.0,0.0,0.0,0.0,0.0,0.0,0.0,0.0,0.0,0.0,0.0,0.0,0.0,0.0,0.0,0.0,0.0,0.0,0.0,0.0,0.0,0.0,0.0,0.0,0.0,0.0,0.0,0.0,0.0,0.0,0.0,0.0,0.0,0.0,0.0,0.0,0.0,0.0,0.0,0.0,0.0,0.0,0.0,0.0,0.0,0.0,0.0,0.0,0.0,0.0,0.0,0.0,0.0,0.0,0.0,0.0,0.0,0.0,0.0,0.0,0.0,0.0,0.0,0.0,0.0,0.0,0.0,0.0,0.0,0.0,0.0,0.0,0.0,0.0,0.0,0.0,0.0,0.0,0.0,0.0,0.0,0.0,0.0,0.0,0.0,0.0,0.0,0.0,0.0,0.0,0.0,0.0,0.0,0.0,0.0,0.0,0.0,0.0,0.0,0.0,0.0,0.0,0.0,0.0,0.0,0.0,0.0,0.0,0.0,0.0,0.0,0.0,0.0,0.0,0.0,0.0,0.0,0.0,0.0,0.0,0.0,0.0,0.0,0.0,0.0,0.0,0.0,0.0,0.0,0.0,0.0,0.0,0.0,0.0,0.0,0.0,0.0,0.0,0.0,0.0,0.0,0.0,0.0,0.0,0.0,0.0,0.0,0.0,0.0,0.0,0.0,0.0,0.0,0.0,0.0,0.0,0.0,0.0,0.0,0.0,0.0,0.0,0.0,0.0,0.0,0.0,0.0,0.0,0.0,0.0,0.0,0.0,0.0,0.0,0.0,0.0,0.0,0.0,0.0,0.0,0.0,0.0,0.0,0.0,0.0,0.0,0.0,0.0,0.0,0.0,0.0,0.0,0.0,0.0,0.0,0.0,0.0,0.0,0.0,0.0,0.0,0.0,0.0,0.0,0.0,0.0,0.0,0.0,0.0,0.0,0.0,0.0,0.0,0.0,0.0,0.0,0.0,0.0,0.0,0.0,0.0,0.0,0.0,0.0,0.0,0.0,0.0,0.0,0.0,0.0,0.0,0.0,0.0,0.0,0.0,0.0,0.0,0.0,0.0,0.0,0.0,0.0,0.0,0.0,0.0,0.0,0.0,0.0,0.0,0.0,0.0,0.0,0.0,0.0,0.0,0.0,0.0,0.0,0.0,0.0,0.0,0.0,0.0,0.0,0.0,0.0,0.0,0.0,0.0,0.0,0.0,0.0,0.0,0.0,0.0,0.0,0.0,0.0,0.0,0.0,0.0,0.0,0.0,0.0,0.0,0.0,0.0,0.0,0.0,0.0,0.0,0.0,0.0,0.0,0.0,0.0,0.0,0.0,0.0,0.0,0.0,0.0,0.0,0.0,0.0,0.0,0.0,0.0,0.0,0.0,0.0,0.0,0.0,0.0,0.0,0.0,0.0,0.0,0.0,0.0,0.0,0.0,0.0,0.0,0.0,0.0,0.0,0.0,0.0,0.0,0.0,0.0,0.0,0.0,0.0,0.0,0.0,0.0,0.0,0.0,0.0,0.0,0.0,0.0,0.0,0.0,0.0,0.0,0.0,0.0,0.0,0.0,0.0,0.0,0.0,0.0,0.0,0.0,0.0,0.0,0.0,0.0,0.0,0.0,0.0,0.0,0.0,0.0,0.0,0.0,0.0,0.0,0.0,0.0,0.0,0.0,0.0,0.0,0.0,0.0,0.0,0.0,0.0,0.0,0.0,0.0,0.0,0.0,0.0,0.0,0.0,0.0,0.0,0.0,0.0,0.0,0.0,0.0,0.0,0.0,0.0,0.0,0.0,0.0,0.0,0.0,0.0,0.0,0.0,0.0,0.0,0.0,0.0,0.0,0.0,0.0,0.0,0.0,0.0,0.0,0.0,0.0,0.0,0.0,0.0,0.0,0.0,0.0,0.0,0.0,0.0,0.0,0.0,0.0,0.0,0.0,0.0,0.0,0.0,0.0,0.0,0.0,0.0,0.0,0.0,0.0,0.0,0.0,0.0,0.0,0.0,0.0,0.0,0.0,0.0,0.0,0.0,0.0,0.0,0.0,0.0,0.0,0.0,0.0,0.0,0.0,0.0,0.0,0.0,0.0,0.0,0.0,0.0,0.0,0.0,0.0,0.0,0.0,0.0,0.0,0.0,0.0,0.0,0.0,0.0,0.0,0.0,0.0,0.0,0.0,0.0,0.0,0.0,0.0,0.0,0.0,0.0,0.0,0.0,0.0,0.0,0.0,0.0,0.0,0.0,0.0,0.0,0.0,0.0,0.0,0.0,0.0,0.0,0.0,0.0,0.0,0.0,0.0,0.0,0.0,0.0,0.0,0.0,0.0,0.0,0.0,0.0,0.0,0.0,0.0,0.0,0.0,0.0,0.0,0.0,0.0,0.0,0.0,0.0,0.0,0.0,0.0,0.0,0.0,0.0,0.0,0.0,0.0,0.0,0.0,0.0,0.0,0.0,0.0,0.0,0.0,0.0,0.0,0.0,0.0,0.0,0.0,0.0,0.0,0.0,0.0,0.0,0.0,0.0,0.0,0.0,0.0,0.0,0.0,0.0,0.0,0.0,0.0,0.0,0.0,0.0,0.0,0.0,0.0,0.0,0.0,0.0,0.0,0.0,0.0,0.0,0.0,0.0,0.0,0.0,0.0,0.0,0.0,0.0,0.0,0.0,0.0,0.0,0.0,0.0,0.0,0.0,0.0,0.0,0.0,0.0,0.0,0.0,0.0,0.0,0.0,0.0,0.0,0.0,0.0,0.0,0.0,0.0,0.0,0.0,0.0,0.0,0.0,0.0,0.0,0.0,0.0,0.0,0.0,0.0,0.0,0.0,0.0,0.0,0.0,0.0,0.0,0.0,0.0,0.0,0.0,0.0,0.0,0.0,0.0,0.0,0.0,0.0,0.0,0.0,0.0,0.0,0.0,0.0,0.0,0.0,0.0,0.0,0.0,0.0,0.0,0.0,0.0,0.0,0.0,0.0,0.0,0.0,0.0,0.0,0.0,0.0,0.0,0.0,0.0,0.0,0.0,0.0,0.0,0.0,0.0,0.0,0.0,0.0,0.0,0.0,0.0,0.0,0.0,0.0,0.0,0.0,0.0,0.0,0.0,0.0,0.0,0.0,0.0,0.0,0.0,0.0,0.0,0.0,0.0,0.0,0.0,0.0,0.0,0.0,0.0,0.0,0.0,0.0,0.0,0.0,0.0,0.0,0.0,0.0,0.0,0.0,0.0,0.0,0.0,0.0,0.0,0.0,0.0,0.0,0.0,0.0,0.0,0.0,0.0,0.0,0.0,0.0,0.0,0.0,0.0,0.0,0.0,0.0,0.0,0.0,0.0,0.0,0.0,0.0,0.0,0.0,0.0,0.0,0.0,0.0,0.0,0.0,0.0,0.0,0.0,0.0,0.0,0.0,0.0,0.0,0.0,0.0,0.0,0.0,0.0,0.0,0.0,0.0,0.0,0.0,0.0,0.0,0.0,0.0,0.0,0.0,0.0,0.0,0.0,0.0,0.0,0.0,0.0,0.0,0.0,0.0,0.0,0.0,0.0,0.0,0.0,0.0,0.0,0.0,0.0,0.0,0.0,0.0,0.0,0.0,0.0,0.0,0.0,0.0,0.0,0.0,0.0,0.0,0.0,0.0,0.0,0.0,0.0,0.0,0.0,0.0,0.0,0.0,0.0,0.0,0.0,0.0,0.0,0.0,0.0,0.0,0.0,0.0,0.0,0.0,0.0,0.0,0.0,0.0,0.0,0.0,0.0,0.0,0.0,0.0,0.0,0.0,0.0,0.0,0.0,0.0,0.0,0.0,0.0,0.0,0.0,0.0,0.0,0.0,0.0,0.0,0.0,0.0,0.0,0.0,0.0,0.0,0.0,0.0,0.0,0.0,0.0,0.0,0.0,0.0,0.0,0.0,0.0,0.0,0.0,0.0,0.0,0.0,0.0,0.0,0.0,0.0,0.0,0.0,0.0,0.0,0.0,0.0,0.0,0.0,0.0,0.0,0.0,0.0,0.0,0.0,0.0,0.0,0.0,0.0,0.0,0.0,0.0,0.0,0.0,0.0,0.0,0.0,0.0,0.0,0.0,0.0,0.0,0.0,0.0,0.0,0.0,0.0,0.0,0.0,0.0,0.0,0.0,0.0,0.0,0.0,0.0,0.0,0.0,0.0,0.0,0.0,0.0,0.0,-8.1491,0.0,0.0,0.0,0.0,0.0,0.0,0.0,0.0,0.0,0.0,0.0,0.0,0.0,0.0,0.0,0.0,0.0,0.0,0.0,0.0,0.0,0.0,0.0,0.0,0.0,0.0,0.0,0.0,0.0,0.0,0.0,0.0,0.0,0.0,0.0,0.0,0.0,0.0,0.0,0.0,0.0,0.0,0.0,0.0,0.0,0.0,0.0,0.0,0.0,0.0,0.0,0.0,0.0,0.0,0.0,0.0,0.0,0.0,0.0,0.0,0.0,0.0,0.0,0.0,0.0,0.0,0.0,0.0,0.0,0.0,0.0,0.0,0.0,0.0,0.0,0.0,0.0,0.0,0.0,0.0,0.0,0.0,0.0,0.0,0.0,0.0,0.0,0.0,0.0,0.0,0.0,0.0,0.0,0.0,0.0,0.0,0.0,0.0,0.0,0.0,0.0,0.0,0.0,0.0,0.0,0.0,0.0,0.0,0.0,0.0,-8.1491,-8.1491,-8.1491,-8.1491,-8.1491,0.0,0.0,0.0,0.0,0.0,0.0,0.0,0.0,0.0,0.0,0.0,0.0,0.0,0.0,0.0,0.0,0.0,0.0,0.0,0.0,0.0,0.0,0.0,0.0,0.0,0.0,0.0,0.0,0.0,0.0,0.0,0.0,0.0,0.0,0.0,0.0,0.0,0.0,0.0,0.0,0.0,0.0,0.0,0.0,0.0,0.0,0.0,0.0,0.0,0.0,0.0,0.0,0.0,0.0,0.0,0.0,0.0,0.0,0.0,0.0,0.0,0.0,0.0,0.0,0.0,0.0,0.0,0.0,0.0,0.0,0.0,0.0,0.0,0.0,0.0,0.0,0.0,0.0,0.0,0.0,0.0,0.0,0.0,0.0,0.0,0.0,0.0,0.0,0.0,0.0,0.0,0.0,0.0,0.0,0.0,0.0,0.0,0.0,0.0,0.0,0.0,0.0,0.0,0.0,0.0,0.0,0.0,0.0,0.0,0.0,0.0,0.0,-8.1491,-8.1491,-8.1491,0.0,0.0,0.0,0.0,0.0,0.0,0.0,0.0,0.0,0.0,0.0,0.0,0.0,0.0,0.0,0.0,0.0,0.0,0.0,0.0,0.0,0.0,0.0,0.0,0.0,0.0,0.0,0.0,0.0,0.0,0.0,0.0,0.0,0.0,0.0,0.0,0.0,0.0,0.0,0.0,0.0,0.0,0.0,0.0,0.0,0.0,0.0,0.0,0.0,0.0,0.0,0.0,0.0,0.0,0.0,0.0,0.0,0.0,0.0,0.0,0.0,0.0,0.0,0.0,0.0,0.0,0.0,0.0,0.0,0.0,0.0,0.0,0.0,0.0,0.0,0.0,0.0,0.0,0.0,0.0,0.0,0.0,0.0,0.0,0.0,0.0,0.0,0.0,0.0,0.0,0.0,0.0,0.0,0.0,0.0,0.0,0.0,0.0,0.0,0.0,0.0,0.0,0.0,0.0,0.0,0.0,0.0,0.0,0.0,0.0,-8.1491,-8.1491,-8.1491,0.0,-8.1491,0.0,0.0,0.0,0.0,0.0,0.0,0.0,0.0,0.0,0.0,0.0,0.0,0.0,0.0,0.0,0.0,0.0,0.0,0.0,0.0,0.0,0.0,0.0,0.0,0.0,0.0,0.0,0.0,0.0,0.0,0.0,0.0,0.0,0.0,0.0,0.0,0.0,0.0,0.0,0.0,0.0,0.0,0.0,0.0,0.0,0.0,0.0,0.0,0.0,0.0,0.0,0.0,0.0,0.0,0.0,0.0,0.0,0.0,0.0,0.0,0.0,0.0,0.0,0.0,0.0,0.0,0.0,0.0,0.0,0.0,0.0,0.0,0.0,0.0,0.0,0.0,0.0,0.0,0.0,0.0,0.0,0.0,0.0,0.0,0.0,0.0,0.0,0.0,0.0,0.0,0.0,0.0,0.0,0.0,0.0,0.0,0.0,0.0,0.0,0.0,0.0,0.0,0.0,0.0,0.0,0.0,0.0,0.0,0.0,0.0,-8.1491,-8.1491,-8.1491,-8.1491,0.0,0.0,0.0,0.0,0.0,0.0,0.0,0.0,0.0,0.0,0.0,0.0,0.0,0.0,0.0,0.0,0.0,0.0,0.0,0.0,0.0,0.0,0.0,0.0,0.0,0.0,0.0,0.0,0.0,0.0,0.0,0.0,0.0,0.0,0.0,0.0,0.0,0.0,0.0,0.0,0.0,0.0,0.0,0.0,0.0,0.0,0.0,0.0,0.0,0.0,0.0,0.0,0.0,0.0,0.0,0.0,0.0,0.0,0.0,0.0,0.0,0.0,0.0,0.0,0.0,0.0,0.0,0.0,0.0,0.0,0.0,0.0,0.0,0.0,0.0,0.0,0.0,0.0,0.0,0.0,0.0,0.0,0.0,0.0,0.0,0.0,0.0,0.0,0.0,0.0,0.0,0.0,0.0,0.0,0.0,0.0,0.0,0.0,0.0,0.0,0.0,0.0,0.0,0.0,0.0,0.0,0.0,0.0,0.0,0.0,-8.1491,-8.1491,-8.1491,-8.1491,-8.1491,-8.1491,0.0,0.0,0.0,0.0,0.0,0.0,0.0,0.0,0.0,0.0,0.0,0.0,0.0,0.0,0.0,0.0,0.0,0.0,0.0,0.0,0.0,0.0,0.0,0.0,0.0,0.0,0.0,0.0,0.0,0.0,0.0,0.0,0.0,0.0,0.0,0.0,0.0,0.0,0.0,0.0,0.0,0.0,0.0,0.0,0.0,0.0,0.0,0.0,0.0,0.0,0.0,0.0,0.0,0.0,0.0,0.0,0.0,0.0,0.0,0.0,0.0,0.0,0.0,0.0,0.0,0.0,0.0,0.0,0.0,0.0,0.0,0.0,0.0,0.0,0.0,0.0,0.0,0.0,0.0,0.0,0.0,0.0,0.0,0.0,0.0,0.0,0.0,0.0,0.0,0.0,0.0,0.0,0.0,0.0,0.0,0.0,0.0,0.0,0.0,0.0,0.0,0.0,0.0,0.0,0.0,0.0,0.0,0.0,-8.1491,-8.1491,-8.1491,-8.1491,-8.1491,-8.1491,0.0,0.0,0.0,0.0,0.0,0.0,0.0,0.0,0.0,0.0,0.0,0.0,0.0,0.0,0.0,0.0,0.0,0.0,0.0,0.0,0.0,0.0,0.0,0.0,0.0,0.0,0.0,0.0,0.0,0.0,0.0,0.0,0.0,0.0,0.0,0.0,0.0,0.0,0.0,0.0,0.0,0.0,0.0,0.0,0.0,0.0,0.0,0.0,0.0,0.0,0.0,0.0,0.0,0.0,0.0,0.0,0.0,0.0,0.0,0.0,0.0,0.0,0.0,0.0,0.0,0.0,0.0,0.0,0.0,0.0,0.0,0.0,0.0,0.0,0.0,0.0,0.0,0.0,0.0,0.0,0.0,0.0,0.0,0.0,0.0,0.0,0.0,0.0,0.0,0.0,0.0,0.0,0.0,0.0,0.0,0.0,0.0,0.0,0.0,0.0,0.0,0.0,0.0,0.0,0.0,0.0,0.0,0.0,0.0,-8.1491,-8.1491,-8.1491,-8.1491,-8.1491,-8.1491,0.0,0.0,0.0,0.0,0.0,0.0,0.0,0.0,0.0,0.0,0.0,0.0,0.0,0.0,0.0,0.0,0.0,0.0,0.0,0.0,0.0,0.0,0.0,0.0,0.0,0.0,0.0,0.0,0.0,0.0,0.0,0.0,0.0,0.0,0.0,0.0,0.0,0.0,0.0,0.0,0.0,0.0,0.0,0.0,0.0,0.0,0.0,0.0,0.0,0.0,0.0,0.0,0.0,0.0,0.0,0.0,0.0,0.0,0.0,0.0,0.0,0.0,0.0,0.0,0.0,0.0,0.0,0.0,0.0,0.0,0.0,0.0,0.0,0.0,0.0,0.0,0.0,0.0,0.0,0.0,0.0,0.0,0.0,0.0,0.0,0.0,0.0,0.0,0.0,0.0,0.0,0.0,0.0,0.0,0.0,0.0,0.0,0.0,0.0,0.0,0.0,0.0,0.0,0.0,0.0,0.0,0.0,0.0,0.0,-8.1546,0.0,-8.1586,-8.1546,-8.1585,-8.155,0.0,0.0,0.0,0.0,0.0,0.0,0.0,0.0,0.0,0.0,0.0,0.0,0.0,0.0,0.0,0.0,0.0,0.0,0.0,0.0,0.0,0.0,0.0,0.0,0.0,0.0,0.0,0.0,0.0,0.0,0.0,0.0,0.0,0.0,0.0,0.0,0.0,0.0,0.0,0.0,0.0,0.0,0.0,0.0,0.0,0.0,0.0,0.0,0.0,0.0,0.0,0.0,0.0,0.0,0.0,0.0,0.0,0.0,0.0,0.0,0.0,0.0,0.0,0.0,0.0,0.0,0.0,0.0,0.0,0.0,0.0,0.0,0.0,0.0,0.0,0.0,0.0,0.0,0.0,0.0,0.0,0.0,0.0,0.0,0.0,0.0,0.0,0.0,0.0,0.0,0.0,0.0,0.0,0.0,0.0,0.0,0.0,0.0,0.0,0.0,0.0,0.0,0.0,0.0,0.0,0.0,0.0,0.0,-8.1569,-8.1698,-8.1827,-8.1827,-8.1708,-8.1689,-8.1628,0.0,0.0,0.0,0.0,0.0,0.0,0.0,0.0,0.0,0.0,0.0,0.0,0.0,0.0,0.0,0.0,0.0,0.0,0.0,0.0,0.0,0.0,0.0,0.0,0.0,0.0,0.0,0.0,0.0,0.0,0.0,0.0,0.0,0.0,0.0,0.0,0.0,0.0,0.0,0.0,0.0,0.0,0.0,0.0,0.0,0.0,0.0,0.0,0.0,0.0,0.0,0.0,0.0,0.0,0.0,0.0,0.0,0.0,0.0,0.0,0.0,0.0,0.0,0.0,0.0,0.0,0.0,0.0,0.0,0.0,0.0,0.0,0.0,0.0,0.0,0.0,0.0,0.0,0.0,0.0,0.0,0.0,0.0,0.0,0.0,0.0,0.0,0.0,0.0,0.0,0.0,0.0,0.0,0.0,0.0,0.0,0.0,0.0,0.0,0.0,0.0,0.0,0.0,0.0,0.0,0.0,0.0,0.0,0.0,-8.1849,-8.189,-8.189,-8.1842,-8.1731,-8.167,0.0,0.0,0.0,0.0,0.0,0.0,0.0,0.0,0.0,0.0,0.0,0.0,0.0,0.0,0.0,0.0,0.0,0.0,0.0,0.0,0.0,0.0,0.0,0.0,0.0,0.0,0.0,0.0,0.0,0.0,0.0,0.0,0.0,0.0,0.0,0.0,0.0,0.0,0.0,0.0,0.0,0.0,0.0,0.0,0.0,0.0,0.0,0.0,0.0,0.0,0.0,0.0,0.0,0.0,0.0,0.0,0.0,0.0,0.0,0.0,0.0,0.0,0.0,0.0,0.0,0.0,0.0,0.0,0.0,0.0,0.0,0.0,0.0,0.0,0.0,0.0,0.0,0.0,0.0,0.0,0.0,0.0,0.0,0.0,0.0,0.0,0.0,0.0,0.0,0.0,0.0,0.0,0.0,0.0,0.0,0.0,0.0,0.0,0.0,0.0,0.0,0.0,0.0,0.0,0.0,0.0,0.0,0.0,0.0,-8.2039,-8.207,-8.2015,-8.1977,-8.1849,-8.177,-8.1698,0.0,0.0,0.0,0.0,0.0,0.0,0.0,0.0,0.0,0.0,0.0,0.0,0.0,0.0,0.0,0.0,0.0,0.0,0.0,0.0,0.0,0.0,0.0,0.0,0.0,0.0,0.0,0.0,0.0,0.0,0.0,0.0,0.0,0.0,0.0,0.0,0.0,0.0,0.0,0.0,0.0,0.0,0.0,0.0,0.0,0.0,0.0,0.0,0.0,0.0,0.0,0.0,0.0,0.0,0.0,0.0,0.0,0.0,0.0,0.0,0.0,0.0,0.0,0.0,0.0,0.0,0.0,0.0,0.0,0.0,0.0,0.0,0.0,0.0,0.0,0.0,0.0,0.0,0.0,0.0,0.0,0.0,0.0,0.0,0.0,0.0,0.0,0.0,0.0,0.0,0.0,0.0,0.0,0.0,0.0,0.0,0.0,0.0,0.0,0.0,0.0,0.0,0.0,0.0,0.0,0.0,0.0,0.0,-8.2304,-8.2304,-8.2261,-8.2143,-8.1977,-8.1849,0.0,0.0,0.0,0.0,0.0,0.0,0.0,0.0,0.0,0.0,0.0,0.0,0.0,0.0,0.0,0.0,0.0,0.0,0.0,0.0,0.0,0.0,0.0,0.0,0.0,0.0,0.0,0.0,0.0,0.0,0.0,0.0,0.0,0.0,0.0,0.0,0.0,0.0,0.0,0.0,0.0,0.0,0.0,0.0,0.0,0.0,0.0,0.0,0.0,0.0,0.0,0.0,0.0,0.0,0.0,0.0,0.0,0.0,0.0,0.0,0.0,0.0,0.0,0.0,0.0,0.0,0.0,0.0,0.0,0.0,0.0,0.0,0.0,0.0,0.0,0.0,0.0,0.0,0.0,0.0,0.0,0.0,0.0,0.0,0.0,0.0,0.0,0.0,0.0,0.0,0.0,0.0,0.0,0.0,0.0,0.0,0.0,0.0,0.0,0.0,0.0,0.0,0.0,0.0,0.0,0.0,0.0,0.0,0.0,-8.2304,-8.2304,-8.2265,-8.2222,-8.2015,-8.1896,0.0,0.0,0.0,0.0,0.0,0.0,0.0,0.0,0.0,0.0,0.0,0.0,0.0,0.0,0.0,0.0,0.0,0.0,0.0,0.0,0.0,0.0,0.0,0.0,0.0,0.0,0.0,0.0,0.0,0.0,0.0,0.0,0.0,0.0,0.0,0.0,0.0,0.0,0.0,0.0,0.0,0.0,0.0,0.0,0.0,0.0,0.0,0.0,0.0,0.0,0.0,0.0,0.0,0.0,0.0,0.0,0.0,0.0,0.0,0.0,0.0,0.0,0.0,0.0,0.0,0.0,0.0,0.0,0.0,0.0,0.0,0.0,0.0,0.0,0.0,0.0,0.0,0.0,0.0,0.0,0.0,0.0,0.0,0.0,0.0,0.0,0.0,0.0,0.0,0.0,0.0,0.0,0.0,0.0,0.0,0.0,0.0,0.0,0.0,0.0,0.0,0.0,0.0,0.0,0.0,0.0,0.0,0.0,-8.2304,-8.2304,-8.2304,-8.2304,-8.2304,-8.2095,-8.1961,0.0,0.0,0.0,0.0,0.0,0.0,0.0,0.0,0.0,0.0,0.0,0.0,0.0,0.0,0.0,0.0,0.0,0.0,0.0,0.0,0.0,0.0,0.0,0.0,0.0,0.0,0.0,0.0,0.0,0.0,0.0,0.0,0.0,0.0,0.0,0.0,0.0,0.0,0.0,0.0,0.0,0.0,0.0,0.0,0.0,0.0,0.0,0.0,0.0,0.0,0.0,0.0,0.0,0.0,0.0,0.0,0.0,0.0,0.0,0.0,0.0,0.0,0.0,0.0,0.0,0.0,0.0,0.0,0.0,0.0,0.0,0.0,0.0,0.0,0.0,0.0,0.0,0.0,0.0,0.0,0.0,0.0,0.0,0.0,0.0,0.0,0.0,0.0,0.0,0.0,0.0,0.0,0.0,0.0,0.0,0.0,0.0,0.0,0.0,0.0,0.0,0.0,0.0,0.0,0.0,0.0,0.0,0.0,-8.2304,-8.2304,-8.2304,-8.2304,-8.2304,-8.2166,-8.2062,0.0,0.0,0.0,0.0,0.0,0.0,0.0,0.0,0.0,0.0,0.0,0.0,0.0,0.0,0.0,0.0,0.0,0.0,0.0,0.0,0.0,0.0,0.0,0.0,0.0,0.0,0.0,0.0,0.0,0.0,0.0,0.0,0.0,0.0,0.0,0.0,0.0,0.0,0.0,0.0,0.0,0.0,0.0,0.0,0.0,0.0,0.0,0.0,0.0,0.0,0.0,0.0,0.0,0.0,0.0,0.0,0.0,0.0,0.0,0.0,0.0,0.0,0.0,0.0,0.0,0.0,0.0,0.0,0.0,0.0,0.0,0.0,0.0,0.0,0.0,0.0,0.0,0.0,0.0,0.0,0.0,0.0,0.0,0.0,0.0,0.0,0.0,0.0,0.0,0.0,0.0,0.0,0.0,0.0,0.0,0.0,0.0,0.0,0.0,0.0,0.0,0.0,0.0,0.0,0.0,0.0,0.0,0.0,-8.2304,-8.2304,-8.2304,-8.2304,-8.2304,-8.2166,-8.2023,0.0,0.0,0.0,0.0,0.0,0.0,0.0,0.0,0.0,0.0,0.0,0.0,0.0,0.0,0.0,0.0,0.0,0.0,0.0,0.0,0.0,0.0,0.0,0.0,0.0,0.0,0.0,0.0,0.0,0.0,0.0,0.0,0.0,0.0,0.0,0.0,0.0,0.0,0.0,0.0,0.0,0.0,0.0,0.0,0.0,0.0,0.0,0.0,-8.1491,0.0,0.0,0.0,0.0,0.0,0.0,0.0,0.0,0.0,0.0,0.0,0.0,0.0,0.0,0.0,0.0,0.0,0.0,0.0,0.0,0.0,0.0,0.0,0.0,0.0,0.0,0.0,0.0,0.0,0.0,0.0,0.0,0.0,0.0,0.0,0.0,0.0,0.0,0.0,0.0,0.0,0.0,0.0,0.0,0.0,0.0,0.0,0.0,0.0,0.0,0.0,0.0,0.0,0.0,0.0,0.0,0.0,0.0,0.0,-8.2304,-8.2304,-8.2304,-8.2304,-8.2304,-8.222,-8.2113,0.0,0.0,0.0,0.0,0.0,0.0,0.0,0.0,0.0,0.0,0.0,0.0,0.0,0.0,0.0,0.0,0.0,0.0,0.0,0.0,0.0,0.0,0.0,0.0,0.0,0.0,0.0,0.0,0.0,0.0,0.0,0.0,0.0,0.0,0.0,0.0,0.0,0.0,0.0,0.0,0.0,0.0,0.0,0.0,0.0,0.0,0.0,0.0,0.0,0.0,0.0,0.0,0.0,0.0,0.0,0.0,0.0,0.0,0.0,0.0,0.0,0.0,0.0,0.0,0.0,0.0,0.0,0.0,0.0,0.0,0.0,0.0,0.0,0.0,0.0,0.0,0.0,0.0,0.0,0.0,0.0,0.0,0.0,0.0,0.0,0.0,0.0,0.0,0.0,0.0,0.0,0.0,0.0,0.0,0.0,0.0,0.0,0.0,0.0,0.0,0.0,0.0,0.0,0.0,0.0,0.0,0.0,-8.2304,-8.2304,-8.2304,-8.2304,-8.2304,-8.2304,-8.2304,-8.2262,-8.2152,0.0,0.0,0.0,0.0,0.0,0.0,0.0,0.0,0.0,0.0,0.0,0.0,0.0,0.0,0.0,0.0,0.0,0.0,0.0,0.0,0.0,0.0,0.0,0.0,0.0,0.0,0.0,0.0,0.0,0.0,0.0,0.0,0.0,0.0,0.0,0.0,0.0,0.0,-8.1553,-8.1649,0.0,0.0,0.0,0.0,0.0,0.0,0.0,0.0,-8.1596,0.0,0.0,0.0,0.0,0.0,0.0,0.0,0.0,0.0,0.0,0.0,0.0,0.0,0.0,0.0,0.0,0.0,0.0,0.0,0.0,0.0,0.0,0.0,0.0,0.0,0.0,0.0,0.0,0.0,0.0,0.0,0.0,0.0,0.0,0.0,0.0,0.0,0.0,0.0,0.0,0.0,0.0,0.0,0.0,0.0,0.0,0.0,0.0,0.0,0.0,0.0,0.0,0.0,0.0,0.0,0.0,-8.2304,-8.2304,-8.2304,-8.2304,-8.2304,-8.2304,-8.2304,-8.2304,-8.2304,-8.2264,0.0,0.0,0.0,0.0,0.0,0.0,0.0,0.0,0.0,0.0,0.0,0.0,0.0,0.0,0.0,0.0,0.0,0.0,0.0,0.0,0.0,0.0,0.0,0.0,0.0,0.0,0.0,0.0,0.0,0.0,0.0,0.0,0.0,0.0,0.0,0.0,0.0,0.0,0.0,-8.1773,-8.1877,0.0,0.0,0.0,0.0,0.0,0.0,0.0,0.0,-8.1689,0.0,0.0,0.0,0.0,0.0,0.0,0.0,0.0,0.0,0.0,0.0,0.0,0.0,0.0,0.0,0.0,0.0,0.0,0.0,0.0,0.0,0.0,0.0,0.0,0.0,0.0,0.0,0.0,0.0,0.0,0.0,0.0,0.0,0.0,0.0,0.0,0.0,0.0,0.0,0.0,0.0,0.0,0.0,0.0,0.0,0.0,0.0,0.0,0.0,0.0,0.0,0.0,0.0,0.0,0.0,-8.2304,-8.2304,-8.2304,-8.2304,-8.2304,-8.2304,-8.2304,-8.2304,-8.2304,0.0,0.0,0.0,0.0,0.0,0.0,0.0,0.0,0.0,0.0,0.0,0.0,0.0,0.0,0.0,0.0,0.0,0.0,0.0,0.0,0.0,0.0,0.0,0.0,0.0,0.0,0.0,0.0,0.0,0.0,0.0,0.0,0.0,0.0,0.0,0.0,0.0,0.0,0.0,0.0,-8.1927,-8.2006,-8.2019,0.0,0.0,0.0,0.0,0.0,0.0,-8.1861,-8.1812,0.0,0.0,0.0,0.0,0.0,0.0,0.0,0.0,0.0,0.0,0.0,0.0,0.0,0.0,0.0,0.0,0.0,0.0,0.0,0.0,0.0,0.0,0.0,0.0,0.0,0.0,0.0,0.0,0.0,0.0,0.0,0.0,0.0,0.0,0.0,0.0,0.0,0.0,0.0,0.0,0.0,0.0,0.0,0.0,0.0,0.0,0.0,0.0,0.0,0.0,0.0,0.0,0.0,0.0,0.0,-8.2304,-8.2304,-8.2304,-8.2304,-8.2304,-8.2304,-8.2304,-8.2304,-8.2304,0.0,0.0,0.0,0.0,0.0,0.0,0.0,0.0,0.0,0.0,0.0,0.0,0.0,0.0,0.0,0.0,0.0,0.0,0.0,0.0,0.0,0.0,0.0,0.0,0.0,0.0,0.0,0.0,0.0,0.0,0.0,0.0,0.0,0.0,0.0,0.0,0.0,0.0,0.0,0.0,0.0,-8.2164,-8.2132,-8.2129,0.0,0.0,0.0,0.0,-8.2132,-8.2026,0.0,0.0,0.0,0.0,0.0,0.0,0.0,0.0,0.0,0.0,0.0,0.0,0.0,0.0,0.0,0.0,0.0,0.0,0.0,0.0,0.0,0.0,0.0,0.0,0.0,0.0,0.0,0.0,0.0,0.0,0.0,0.0,0.0,0.0,0.0,0.0,0.0,0.0,0.0,0.0,0.0,0.0,0.0,0.0,0.0,0.0,0.0,0.0,0.0,0.0,0.0,0.0,0.0,0.0,0.0,0.0,-8.2304,-8.2304,-8.2304,-8.2304,-8.2304,-8.2304,-8.2304,-8.2304,-8.2304,0.0,0.0,0.0,0.0,0.0,0.0,0.0,0.0,0.0,0.0,0.0,0.0,0.0,0.0,0.0,0.0,0.0,0.0,0.0,0.0,0.0,0.0,0.0,0.0,0.0,0.0,0.0,0.0,0.0,0.0,0.0,0.0,0.0,0.0,0.0,0.0,0.0,0.0,0.0,0.0,0.0,-8.2265,-8.2265,-8.2262,-8.2261,0.0,0.0,-8.2262,-8.226,-8.2146,0.0,0.0,0.0,0.0,0.0,0.0,0.0,0.0,0.0,0.0,0.0,0.0,0.0,0.0,0.0,0.0,0.0,0.0,0.0,0.0,0.0,0.0,0.0,0.0,0.0,0.0,0.0,0.0,0.0,0.0,0.0,0.0,0.0,0.0,0.0,0.0,0.0,0.0,0.0,0.0,0.0,0.0,0.0,0.0,0.0,0.0,0.0,0.0,0.0,0.0,0.0,0.0,0.0,0.0,0.0,-8.2304,-8.2304,-8.2304,-8.2304,-8.2304,-8.2304,-8.2304,-8.2304,-8.2304,-8.2304,0.0,0.0,0.0,0.0,0.0,0.0,0.0,0.0,0.0,0.0,0.0,0.0,0.0,0.0,0.0,0.0,0.0,0.0,0.0,0.0,0.0,0.0,0.0,0.0,0.0,0.0,0.0,0.0,0.0,0.0,0.0,0.0,0.0,0.0,0.0,0.0,0.0,0.0,0.0,0.0,0.0,0.0,-8.2292,-8.1901,0.0,0.0,0.0,-8.0996,-8.1504,0.0,0.0,0.0,0.0,0.0,0.0,0.0,0.0,0.0,0.0,0.0,0.0,0.0,0.0,0.0,0.0,0.0,0.0,0.0,0.0,0.0,0.0,0.0,0.0,0.0,0.0,0.0,0.0,0.0,0.0,0.0,0.0,0.0,0.0,0.0,0.0,0.0,0.0,0.0,0.0,0.0,0.0,0.0,0.0,0.0,0.0,0.0,0.0,0.0,0.0,0.0,0.0,0.0,0.0,0.0,0.0,0.0,-8.2969,-8.2929,-8.2929,-8.2969,-8.2969,-8.2851,-8.2617,-8.2617,0.0,0.0,0.0,0.0,0.0,0.0,0.0,0.0,0.0,0.0,0.0,0.0,0.0,0.0,0.0,0.0,0.0,0.0,0.0,0.0,0.0,0.0,0.0,0.0,0.0,0.0,0.0,-8.1909,0.0,0.0,0.0,0.0,0.0,0.0,0.0,0.0,0.0,0.0,0.0,0.0,0.0,0.0,-8.2215,-8.2005,-8.1422,-8.115,0.0,0.0,-7.9929,-8.0553,-8.0116,-7.9639,0.0,0.0,0.0,0.0,0.0,0.0,0.0,0.0,0.0,0.0,0.0,0.0,0.0,0.0,0.0,0.0,0.0,0.0,0.0,0.0,0.0,0.0,0.0,0.0,0.0,0.0,0.0,0.0,0.0,0.0,0.0,0.0,0.0,0.0,0.0,0.0,0.0,0.0,0.0,0.0,0.0,0.0,0.0,0.0,0.0,0.0,0.0,0.0,0.0,0.0,0.0,0.0,0.0,0.0,-8.4726,-8.4726,-8.4726,-8.4687,-8.4726,-8.4726,-8.4336,-8.3552,-8.3513,-8.351,0.0,0.0,0.0,0.0,0.0,0.0,0.0,0.0,0.0,0.0,0.0,0.0,0.0,0.0,0.0,0.0,0.0,0.0,0.0,0.0,0.0,0.0,0.0,0.0,0.0,0.0,0.0,0.0,0.0,0.0,0.0,0.0,0.0,0.0,0.0,0.0,0.0,0.0,0.0,0.0,0.0,-8.2005,-8.1183,-8.1017,-8.0735,0.0,-7.9795,-7.9717,-7.9756,-7.9756,-7.9405,-7.8624,0.0,0.0,0.0,0.0,0.0,0.0,0.0,0.0,0.0,0.0,0.0,0.0,0.0,0.0,0.0,0.0,0.0,0.0,0.0,0.0,0.0,0.0,0.0,0.0,0.0,0.0,0.0,0.0,0.0,0.0,0.0,0.0,0.0,0.0,0.0,0.0,0.0,0.0,0.0,0.0,0.0,0.0,0.0,0.0,0.0,0.0,0.0,0.0,0.0,0.0,0.0,0.0,0.0,-8.4883,-8.4883,-8.4883,-8.4882,-8.492,-8.492,-8.4723,-8.4405,-8.4405,-8.417,0.0,0.0,0.0,0.0,0.0,0.0,0.0,0.0,0.0,0.0,0.0,0.0,0.0,0.0,0.0,0.0,0.0,0.0,0.0,0.0,0.0,0.0,0.0,0.0,0.0,0.0,0.0,0.0,-8.212,-8.2122,-8.2129,0.0,0.0,0.0,0.0,0.0,0.0,0.0,0.0,0.0,0.0,-8.1183,-8.0324,-7.9728,0.0,0.0,-7.878,-7.8272,-7.8819,-7.8429,-7.7999,-7.7648,-7.7609,0.0,0.0,0.0,0.0,0.0,0.0,0.0,0.0,0.0,0.0,0.0,0.0,0.0,0.0,0.0,0.0,0.0,0.0,0.0,0.0,0.0,0.0,0.0,0.0,0.0,0.0,0.0,0.0,0.0,0.0,0.0,0.0,0.0,0.0,0.0,0.0,0.0,0.0,0.0,0.0,0.0,0.0,0.0,0.0,0.0,0.0,0.0,0.0,0.0,0.0,0.0,0.0,-8.5664,-8.5664,-8.5664,-8.5663,-8.5622,-8.5659,-8.5538,-8.5296,-8.5257,-8.4982,0.0,0.0,0.0,0.0,0.0,0.0,0.0,0.0,0.0,0.0,0.0,0.0,0.0,0.0,0.0,0.0,0.0,0.0,0.0,0.0,0.0,0.0,0.0,0.0,0.0,0.0,0.0,0.0,-8.2303,-8.2303,-8.23,0.0,0.0,0.0,0.0,0.0,0.0,0.0,0.0,0.0,0.0,-8.0319,-7.9421,-7.8789,-7.8507,-7.8858,-7.7882,-7.7296,-7.7921,-7.7492,-7.7101,-7.7101,0.0,0.0,0.0,0.0,0.0,0.0,0.0,0.0,0.0,0.0,0.0,0.0,0.0,0.0,0.0,0.0,0.0,0.0,0.0,0.0,0.0,0.0,0.0,0.0,0.0,0.0,0.0,-8.75,0.0,0.0,-8.75,0.0,0.0,0.0,0.0,0.0,0.0,0.0,0.0,0.0,0.0,0.0,0.0,0.0,0.0,0.0,0.0,0.0,0.0,0.0,0.0,0.0,0.0,-8.7422,-8.7422,-8.7303,-8.7301,-8.73,-8.7335,-8.6897,-8.6105,-8.6066,-8.6059,-8.6005,0.0,0.0,0.0,0.0,0.0,0.0,0.0,0.0,0.0,0.0,0.0,0.0,0.0,0.0,0.0,0.0,0.0,0.0,0.0,0.0,0.0,0.0,0.0,0.0,0.0,0.0,-8.2293,-8.2293,-8.2293,0.0,0.0,0.0,0.0,0.0,0.0,0.0,0.0,0.0,-8.0951,-8.0236,-7.9405,-7.8549,-7.8392,-7.8116,-7.7335,-7.714,-7.7101,-7.714,-7.714,-7.7101,0.0,0.0,0.0,0.0,0.0,0.0,0.0,0.0,0.0,0.0,0.0,0.0,0.0,0.0,0.0,0.0,0.0,0.0,0.0,0.0,0.0,0.0,0.0,0.0,0.0,0.0,0.0,-8.75,-8.75,0.0,0.0,0.0,0.0,0.0,0.0,0.0,0.0,0.0,0.0,0.0,-8.75,-8.75,0.0,0.0,0.0,0.0,0.0,0.0,0.0,0.0,0.0,0.0,0.0,0.0,-8.75,-8.75,-8.7461,-8.742,-8.7418,-8.7416,-8.7254,-8.6962,-8.6962,-8.6954,-8.6978,0.0,0.0,0.0,0.0,0.0,0.0,0.0,0.0,0.0,0.0,0.0,0.0,0.0,0.0,0.0,0.0,0.0,0.0,0.0,0.0,0.0,0.0,0.0,0.0,0.0,-8.2292,0.0,0.0,0.0,0.0,0.0,0.0,0.0,0.0,0.0,0.0,-8.0678,-7.9933,-7.9348,-7.953,-7.9173,-7.774,-7.8047,-7.8077,0.0,0.0,0.0,0.0,0.0,0.0,0.0,0.0,0.0,0.0,0.0,0.0,0.0,0.0,-7.7101,-7.7101,-7.7101,-7.7101,-7.7101,0.0,0.0,0.0,0.0,0.0,0.0,0.0,0.0,0.0,0.0,0.0,0.0,0.0,0.0,-8.7461,-8.75,-8.75,0.0,0.0,0.0,0.0,0.0,0.0,0.0,0.0,-8.75,-8.75,-8.75,-8.75,-8.75,-8.75,-8.75,-8.75,0.0,0.0,0.0,0.0,0.0,0.0,0.0,0.0,-8.75,-8.75,-8.7461,-8.742,-8.7418,-8.7414,-8.7407,-8.7392,-8.7387,-8.7417,-8.7407,-8.6002,-8.5104,0.0,0.0,0.0,0.0,0.0,0.0,0.0,0.0,0.0,0.0,0.0,0.0,0.0,0.0,0.0,0.0,0.0,0.0,0.0,0.0,0.0,0.0,0.0,-8.2326,0.0,0.0,0.0,0.0,0.0,0.0,0.0,0.0,0.0,-8.1488,-8.0707,-7.9926,-7.9379,-7.9528,-7.9173,-7.774,0.0,0.0,0.0,0.0,0.0,0.0,0.0,-7.7101,-7.7101,-7.7101,-7.7101,-7.7101,-7.7101,-7.7101,-7.7101,0.0,0.0,-7.7101,-7.7101,-7.7101,-7.7101,-7.6164,-7.5774,-7.6867,-7.6203,-7.5735,0.0,0.0,0.0,0.0,-8.7408,0.0,0.0,0.0,-8.7418,-8.742,0.0,-8.75,0.0,0.0,0.0,0.0,-8.75,-8.75,0.0,0.0,-8.75,-8.75,-8.75,-8.75,-8.75,-8.75,-8.75,-8.75,-8.75,-8.742,0.0,0.0,0.0,0.0,0.0,0.0,-8.75,-8.75,-8.742,-8.7418,-8.7417,-8.7405,-8.7392,-8.7392,-8.7417,-8.7404,-8.7368,-8.6588,-8.5729,-8.487,-8.4011,0.0,0.0,0.0,0.0,0.0,0.0,0.0,0.0,0.0,0.0,0.0,0.0,0.0,0.0,0.0,0.0,0.0,0.0,0.0,0.0,-8.2313,0.0,0.0,0.0,0.0,0.0,0.0,0.0,0.0,0.0,-8.1356,-8.2176,-8.1474,-8.0966,-8.0927,0.0,0.0,0.0,0.0,-7.8194,-7.7335,-7.7179,-7.7218,-7.7218,-7.7179,-7.714,-7.714,0.0,0.0,-7.7101,-7.7101,-7.7101,-7.7101,-7.7101,-7.7101,-7.7101,-7.7101,-7.7101,-7.7101,-7.7023,-7.7062,-7.7101,-7.7023,-7.6984,-8.7394,0.0,0.0,0.0,0.0,-8.7408,-8.741,-8.7411,-8.7411,-8.7413,-8.7415,-8.7419,0.0,0.0,0.0,0.0,0.0,0.0,-8.7461,-8.742,-8.7461,-8.7461,-8.742,-8.7461,-8.75,-8.75,-8.75,-8.75,-8.75,-8.742,-8.7419,-8.742,0.0,0.0,0.0,0.0,-8.75,-8.75,-8.7461,-8.746,-8.7418,-8.7415,-8.7407,-8.7392,-8.7414,-8.7404,-8.7404,-8.7134,-8.6627,-8.5768,-8.4909,0.0,0.0,0.0,0.0,0.0,0.0,0.0,0.0,0.0,0.0,0.0,0.0,0.0,0.0,0.0,0.0,0.0,0.0,0.0,-8.2299,-8.2308,-8.231,0.0,0.0,0.0,0.0,0.0,0.0,0.0,0.0,0.0,-8.2254,-8.1005,-8.0068,0.0,0.0,-8.0302,-7.9444,-7.9873,-7.9951,-7.9092,-7.8936,0.0,-7.8936,-7.8429,-7.8038,-7.8038,-7.7531,-7.7101,-7.7101,-7.7101,-7.7101,-7.7101,-7.7101,-7.7101,-7.7101,-7.7101,-7.7101,-7.7101,-7.7101,-7.7101,-7.7101,-7.7101,-7.7101,-8.7392,-8.7408,-8.7399,-8.7399,-8.7403,-8.7403,-8.7405,-8.7408,-8.7411,-8.7414,-8.7417,-8.742,-8.742,-8.7459,-8.75,0.0,0.0,0.0,-8.75,-8.742,-8.7461,-8.7461,-8.7459,-8.7461,-8.75,-8.75,-8.75,-8.75,-8.75,-8.746,-8.742,-8.7418,0.0,-8.746,-8.742,-8.75,-8.75,-8.75,-8.7461,-8.742,-8.7418,-8.7063,-8.6897,-8.6876,-8.6552,-8.6392,-8.6353,-8.6353,-8.6119,-8.5612,-8.5065,-8.4401,0.0,0.0,0.0,0.0,0.0,0.0,0.0,0.0,0.0,0.0,0.0,-8.2302,-8.2302,0.0,0.0,0.0,-8.2302,-8.2299,-8.2293,-8.2308,0.0,0.0,0.0,0.0,0.0,0.0,0.0,-8.0849,-8.1669,-8.2293,-8.2293,-8.1396,-8.0732,-8.0732,-8.1161,-8.12,-8.0341,0.0,-8.0693,-7.9834,-7.9717,-7.9717,-7.9717,-7.9248,-7.8936,-7.8936,-7.8194,-7.7648,-7.7609,-7.7375,-7.7101,-7.7101,-7.7101,-7.7101,-7.7101,-7.7101,-7.7101,-7.7101,-7.7101,-7.7101,-7.7101,-7.7101,-7.7101,-8.7401,-8.7408,-8.7423,-8.742,-8.7394,-8.7394,-8.7399,-8.7408,-8.7415,-8.742,-8.75,-8.75,-8.75,-8.75,-8.75,0.0,-8.75,-8.75,-8.75,-8.75,-8.75,-8.75,-8.75,-8.75,-8.75,-8.75,-8.75,-8.75,-8.75,-8.75,-8.746,-8.7418,-8.7418,-8.742,-8.75,-8.75,-8.75,-8.75,-8.742,-8.7378,-8.7299,-8.6466,-8.5978,-8.6002,-8.5221,-8.4831,-8.4831,-8.4831,-8.4831,-8.4831,-8.4753,-8.4323,-8.3582,0.0,0.0,0.0,0.0,0.0,0.0,0.0,0.0,0.0,0.0,0.0,0.0,0.0,0.0,0.0,-8.2313,0.0,-8.2293,-8.2305,0.0,0.0,0.0,-8.2293,-8.2293,-8.2293,-8.2293,-8.2293,0.0,0.0,-8.2293,-8.2293,-8.2293,-8.2293,-8.2293,-8.202,-8.1239,-8.1122,-8.081,-8.0107,-7.9951,-7.9951,-8.0068,-7.9834,-7.9522,-7.9287,-7.8819,-7.8236,-7.8158,-7.7609,-7.714,-7.6945,-7.6984,-7.6906,-7.6906,-7.675,-7.6867,-7.6789,-7.6984,-7.7101,-7.7101,-7.7101,-7.7101,-8.741,-8.7415,-8.7407,-8.7403,-8.7405,-8.7405,-8.7407,-8.7408,-8.7411,-8.7413,-8.7414,-8.7418,-8.746,-8.75,-8.75,-8.75,-8.75,-8.75,-8.7461,-8.742,-8.7461,-8.7461,-8.742,-8.7461,-8.75,-8.75,-8.75,-8.75,-8.75,-8.746,-8.7419,-8.7418,-8.7418,-8.7418,-8.7419,-8.742,-8.742,-8.742,-8.7415,-8.7057,-8.6425,-8.5549,-8.5107,-8.5104,-8.4909,-8.4831,-8.4831,-8.4831,-8.4831,-8.4792,-8.4167,-8.3699,-8.3504,-8.2918,0.0,0.0,0.0,0.0,0.0,0.0,0.0,0.0,0.0,-8.2296,-8.2299,0.0,-8.2299,0.0,-8.2299,-8.2296,-8.2293,-8.2296,0.0,0.0,-8.2293,-8.2293,-8.2293,-8.2293,-8.2293,-8.2293,-8.2293,-8.2293,-8.2293,-8.2293,-8.2293,-8.2293,-8.2293,-8.2215,-8.202,-8.1981,-8.1942,-8.1708,-8.1591,-8.1669,-8.1474,-8.0537,-7.9287,-7.7921,-7.757,-7.7414,-7.7414,-7.7257,-7.6906,-7.6281,-7.6125,-7.5852,-7.5305,-7.511,-7.5149,-7.5227,-7.6164,-7.7101,-7.7101,-7.7062,-7.7062,-8.7417,-8.742,-8.7418,-8.7457,-8.7417,-8.7415,-8.7414,-8.7414,-8.7416,-8.7457,-8.7457,-8.742,-8.746,-8.75,-8.75,-8.75,-8.75,-8.75,-8.75,-8.746,-8.75,-8.75,-8.746,-8.7461,-8.75,-8.75,-8.75,-8.75,-8.75,-8.742,-8.7418,-8.7418,-8.7415,-8.7414,-8.7414,-8.7417,-8.7417,-8.7414,-8.7016,-8.6381,-8.5549,-8.4678,-8.4245,-8.4206,-8.3855,-8.3699,-8.3699,-8.3699,-8.3855,-8.4167,-8.3777,-8.3504,-8.3504,-8.3074,-8.2684,0.0,0.0,0.0,0.0,0.0,0.0,0.0,0.0,0.0,0.0,0.0,-8.2293,-8.2293,-8.2293,-8.2293,-8.2293,-8.2293,-8.2293,-8.2293,-8.2293,-8.2293,-8.2293,-8.2293,-8.2293,-8.2293,-8.2293,-8.2293,-8.2293,-8.2293,-8.2293,-8.2293,-8.2293,-8.2293,-8.2293,-8.2293,-8.2293,-8.2293,-8.1981,-8.1552,-8.1239,-8.0341,-7.9366,-7.8468,-7.7921,-7.7687,-7.7648,-7.7375,-7.6945,-7.6477,-7.6399,-7.6242,-7.5735,-7.5305,-7.511,-7.5149,-7.5501,-7.5891,-7.593,-7.5969,-7.5969,-8.7418,-8.75,-8.75,-8.75,-8.75,-8.742,-8.7419,-8.7419,-8.7461,-8.75,-8.75,-8.75,-8.75,-8.75,-8.75,-8.75,-8.75,-8.75,-8.75,-8.75,-8.75,-8.75,-8.75,-8.75,-8.75,-8.75,-8.75,-8.75,-8.75,-8.7419,-8.7416,-8.7415,-8.741,-8.7407,-8.7405,-8.7296,-8.7179,-8.7053,-8.6225,-8.5392,-8.4675,-8.3777,-8.3347,-8.3308,-8.2684,-8.2293,-8.2293,-8.2293,-8.2606,-8.3308,-8.3347,-8.3347,-8.3347,-8.3347,-8.3035,0.0,-8.2293,0.0,0.0,0.0,0.0,0.0,0.0,0.0,0.0,-8.2293,-8.2293,-8.2293,-8.2293,-8.2293,-8.2293,-8.2293,-8.2293,-8.2293,-8.2293,-8.2293,-8.2293,-8.2293,-8.2293,-8.2293,-8.2293,-8.2293,-8.2293,-8.2293,-8.2293,-8.2293,-8.2293,-8.2293,-8.2293,-8.2176,-8.2059,-8.2137,-8.1396,-8.0576,-7.9834,-7.9561,-7.9444,-7.9248,-7.8585,-7.8275,-7.8116,-7.757,-7.7062,-7.6906,-7.6789,-7.6789,-7.6789,-7.6047,-7.5621,-7.5504,-7.5032,-7.4642,-7.4642,-7.4642,-7.4486,-8.7316,-8.7419,-8.7419,-8.746,-8.75,-8.75,-8.7461,-8.75,-8.75,-8.75,-8.75,-8.75,-8.75,-8.75,-8.75,-8.75,-8.75,-8.75,-8.75,-8.75,-8.75,-8.746,-8.742,-8.7461,-8.746,-8.7419,-8.7419,-8.7419,-8.7419,-8.7407,-8.7399,-8.7399,-8.7397,-8.7389,-8.7378,0.0,0.0,0.0,-8.4447,-8.3897,-8.3738,-8.2957,-8.2528,-8.2528,-8.2371,0.0,-8.2293,-8.2293,-8.2371,-8.2528,-8.2528,0.0,0.0,0.0,0.0,0.0,0.0,0.0,0.0,0.0,0.0,0.0,-8.2215,-8.2293,-8.2293,-8.2293,-8.2293,-8.2293,-8.2293,-8.2293,-8.2293,-8.2293,-8.2293,-8.2293,-8.2293,-8.2293,-8.2293,-8.2293,-8.2293,-8.2293,-8.2293,-8.2293,-8.2293,-8.2293,-8.2293,-8.2293,-8.2293,-8.2293,-8.2293,-8.1747,-8.1278,-8.12,-8.0615,-7.9678,-7.878,-7.8702,-7.8585,-7.7765,-7.7492,-7.7414,-7.7492,-7.7375,-7.6867,-7.636,-7.6047,-7.5891,-7.5266,-7.4837,-7.4954,-7.4798,-7.4642,-7.4486,-7.4486,-7.4486,-7.4486,-8.7078,-8.7236,-8.7236,-8.7332,0.0,-8.75,-8.75,-8.75,-8.75,-8.75,-8.75,-8.75,-8.75,-8.75,-8.75,-8.75,-8.75,-8.75,-8.75,-8.75,-8.75,-8.75,-8.746,-8.75,-8.746,-8.7418,-8.742,-8.7419,-8.7414,-8.7407,-8.7399,-8.7392,-8.7423,-8.7414,-8.7368,-8.6558,-8.5465,-8.4167,-8.3738,-8.3308,-8.2918,-8.2489,-8.2293,-8.2293,-8.2293,0.0,0.0,0.0,0.0,0.0,0.0,0.0,0.0,-8.2293,0.0,-8.2293,-8.2293,-8.2293,-8.2293,-8.2293,-8.2293,-8.2293,-8.2293,-8.2293,-8.2293,-8.2293,-8.2293,-8.2293,-8.2293,-8.2293,-8.2293,-8.2293,-8.2293,-8.2293,-8.2293,-8.2293,-8.2293,-8.2293,-8.2293,-8.2293,-8.2293,-8.2293,-8.2293,-8.2293,-8.2293,-8.2293,-8.2293,-8.2293,-8.2293,-8.1942,-8.1513,-8.1083,-8.0693,-8.0029,-7.9248,-7.9053,-7.8936,-7.8468,-7.839,-7.839,-7.839,-7.839,-7.8233,-7.7804,-7.7726,-7.7531,-7.714,-7.675,-7.6438,-7.636,-7.6086,-7.5813,-7.5696,-7.4798,-7.3744,-8.6901,-8.7096,-8.71,-8.7233,-8.75,-8.75,-8.75,-8.75,-8.75,0.0,0.0,-8.75,-8.75,-8.75,-8.75,-8.75,-8.75,-8.75,-8.75,-8.75,-8.75,-8.75,-8.75,-8.75,-8.746,-8.7418,-8.7459,-8.7458,-8.7411,-8.7407,-8.7401,-8.7392,-8.7414,-8.7329,-8.7134,-8.6471,-8.5299,-8.3816,-8.3738,-8.3426,-8.2762,-8.2762,-8.2684,-8.2528,-8.2528,-8.245,-8.2293,-8.2293,-8.2293,-8.2293,-8.2293,-8.2293,-8.2293,-8.2293,-8.2293,-8.2293,-8.2293,-8.2293,-8.2293,-8.2293,-8.2293,-8.2293,-8.2293,-8.2293,-8.2293,-8.2293,-8.2293,-8.2293,-8.2293,-8.2293,-8.2293,-8.2293,-8.2293,-8.2293,-8.2293,-8.2293,-8.2293,-8.2293,-8.2293,-8.2293,-8.2293,-8.2293,-8.2293,-8.2293,-8.2293,-8.2293,-8.2293,-8.2293,-8.2293,-8.2098,-8.1591,-8.0849,-8.0537,-8.042,-7.9912,-7.9678,-7.9717,-7.96,-7.96,-7.9717,-7.9717,-7.9717,-7.9717,-7.9522,-7.9717,-7.96,-7.96,-7.8936,-7.8663,-7.8624,-7.8077,-7.7531,-7.7179,-7.5696,-7.4056,-8.6825,-8.7112,-8.7112,-8.7261,-8.75,-8.75,-8.75,-8.75,-8.75,-8.75,-8.75,-8.75,-8.75,-8.75,-8.75,-8.75,-8.75,-8.75,-8.75,-8.75,-8.75,-8.746,-8.7419,-8.7461,-8.746,-8.7418,-8.7414,-8.7414,-8.7415,-8.7394,-8.742,-8.7389,-8.7414,-8.7056,-8.6314,-8.6158,-8.5612,-8.4636,-8.4597,-8.4558,-8.4441,-8.4441,-8.4089,-8.3347,-8.3347,-8.2996,-8.2332,-8.2332,-8.2293,-8.2293,-8.2293,-8.2293,-8.2293,-8.2332,-8.2293,-8.2293,-8.2293,-8.2293,-8.2293,-8.2293,-8.2293,-8.2293,-8.2293,-8.2293,-8.2293,-8.2293,-8.2293,-8.2293,-8.2293,-8.2293,-8.2293,-8.2293,-8.2293,-8.2293,-8.2293,-8.2293,-8.2293,-8.2293,-8.2293,-8.2293,-8.2293,-8.2293,-8.2293,-8.2293,-8.2293,-8.2293,-8.2293,-8.2293,-8.2215,-8.1669,-8.0849,-8.0107,-7.9873,-7.9834,-7.9912,-7.9717,-7.9873,-7.9717,-7.9795,-7.9912,-7.9912,-7.9951,-7.9912,-7.9795,-7.9912,-7.9873,-7.9795,-7.9639,-7.96,-7.96,-7.9405,-7.9131,-7.8546,-7.7843,-7.6828,-8.6633,-8.6981,-8.6994,-8.7194,-8.75,-8.75,-8.75,-8.75,-8.75,-8.75,-8.75,-8.75,-8.75,-8.75,-8.75,-8.75,-8.75,-8.75,-8.75,-8.75,-8.75,-8.75,-8.746,-8.75,-8.746,-8.7418,-8.7457,-8.7456,-8.7407,-8.7399,-8.7389,-8.742,-8.7411,-8.7212,-8.6822,-8.6822,-8.6588,-8.6197,-8.5299,-8.4831,-8.4831,-8.4831,-8.4597,-8.4206,-8.4206,-8.405,-8.366,-8.366,-8.366,-8.366,-8.366,-8.3465,-8.2996,-8.2957,-8.2762,-8.2332,-8.2293,-8.2293,-8.2293,-8.2293,-8.2293,-8.2293,-8.2293,-8.2293,-8.2293,-8.2293,-8.2293,-8.2293,-8.2293,-8.2293,-8.2293,-8.2293,-8.2293,-8.2293,-8.2293,-8.2293,-8.2293,-8.2293,-8.2293,-8.2293,-8.2293,-8.2293,-8.2293,-8.2293,-8.2293,-8.2293,-8.2293,-8.2293,-8.2293,-8.1981,-8.1552,-8.12,-8.1122,-8.1122,-8.1083,-8.1122,-8.1122,-8.1122,-8.1122,-8.1122,-8.1122,-8.1083,-8.1083,-8.1122,-8.1122,-8.1122,-8.1083,-8.1122,-8.1122,-8.1122,-8.1122,-8.0888,-8.0537,-7.9834,-7.8194,-8.6492,-8.688,-8.688,-8.7126,-8.75,-8.75,-8.75,-8.75,-8.75,-8.75,-8.75,-8.75,-8.75,-8.75,-8.75,-8.75,-8.75,-8.75,-8.75,-8.75,-8.75,-8.75,-8.75,-8.75,-8.7461,-8.742,-8.746,-8.7457,-8.7446,-8.7407,-8.7399,-8.7414,-8.7407,-8.7404,-8.7404,-8.7404,-8.7404,-8.7326,-8.608,-8.5377,-8.5377,-8.5374,-8.5299,-8.5104,-8.5104,-8.5026,-8.4831,-8.4831,-8.4831,-8.4831,-8.4831,-8.448,-8.3855,-8.3777,-8.3504,-8.2957,-8.2879,-8.2879,-8.2879,-8.2879,-8.2762,-8.2606,-8.2567,-8.2489,-8.2332,-8.2293,-8.2293,-8.2293,-8.2293,-8.2293,-8.2293,-8.2293,-8.2293,-8.2293,-8.2293,-8.2293,-8.2293,-8.2293,-8.2293,-8.2293,-8.2293,-8.2293,-8.2293,-8.2293,-8.2293,-8.2293,-8.2293,-8.2293,-8.2293,-8.2293,-8.2293,-8.2293,-8.2293,-8.2215,-8.2293,-8.2254,-8.2215,-8.2293,-8.2254,-8.2137,-8.2176,-8.2254,-8.2293,-8.2176,-8.2215,-8.2137,-8.2254,-8.2254,-8.2176,-8.2137,-8.2098,-8.2176,-8.202,-8.0966,-7.917,-8.6568,-8.6857,-8.6887,-8.7126,-8.75,-8.75,-8.75,-8.75,-8.75,-8.75,-8.75,-8.75,-8.75,-8.75,-8.75,-8.75,-8.75,-8.75,-8.75,-8.75,-8.75,-8.75,-8.75,-8.75,-8.75,-8.7461,-8.742,-8.7459,-8.7498,-8.7453,-8.7403,-8.7389,-8.7414,-8.7407,-8.7407,-8.7407,-8.7404,-8.7407,-8.7251,-8.7173,-8.717,-8.717,-8.6783,-8.6002,-8.5963,-8.5612,-8.4948,-8.4831,-8.4831,-8.4831,-8.487,-8.4792,-8.4714,-8.4675,-8.4636,-8.4519,-8.4558,-8.4558,-8.4558,-8.4597,-8.4167,-8.3504,-8.3386,-8.3113,-8.2489,-8.2332,-8.2332,-8.2371,-8.2371,-8.2293,-8.2293,-8.2293,-8.2293,-8.2293,-8.2293,-8.2293,-8.2293,-8.2293,-8.2293,-8.2293,-8.2293,-8.2293,-8.2293,-8.2293,-8.2293,-8.2293,-8.2293,-8.2293,-8.2293,-8.2293,-8.2293,-8.2293,-8.2293,-8.2293,-8.2293,-8.2293,-8.2293,-8.2293,-8.2293,-8.2293,-8.2293,-8.2293,-8.2293,-8.2293,-8.2293,-8.2293,-8.2293,-8.2293,-8.2293,-8.2293,-8.2293,-8.2293,-8.2215,-8.1552,-7.9951,-8.6856,-8.7068,-8.7068,-8.7258,-8.7461,-8.75,-8.75,-8.75,-8.75,-8.75,-8.75,-8.75,-8.75,-8.75,-8.75,-8.75,-8.75,-8.75,-8.75,-8.75,-8.75,-8.75,-8.75,-8.75,-8.75,-8.75,-8.7461,-8.746,-8.7459,-8.7414,-8.7407,-8.7403,-8.7397,-8.7394,-8.7394,-8.7387,-8.7423,-8.742,-8.7411,-8.7404,-8.7404,-8.7404,-8.7212,-8.6939,-8.6861,-8.6744,-8.6389,-8.635,-8.635,-8.6353,-8.6353,-8.608,-8.5573,-8.5573,-8.5338,-8.487,-8.4831,-8.4831,-8.4831,-8.4831,-8.4636,-8.4284,-8.4284,-8.4128,-8.3816,-8.3777,-8.3777,-8.366,-8.2879,-8.2293,-8.2332,-8.2332,-8.2293,-8.2293,-8.2293,-8.2332,-8.2293,-8.2293,-8.2293,-8.2293,-8.2293,-8.2293,-8.2293,-8.2293,-8.2293,-8.2293,-8.2293,-8.2293,-8.2293,-8.2293,-8.2293,-8.2293,-8.2293,-8.2293,-8.2293,-8.2293,-8.2293,-8.2293,-8.2293,-8.2293,-8.2293,-8.2293,-8.2293,-8.2293,-8.2293,-8.2293,-8.2293,-8.2293,-8.2293,-8.2293,-8.2293,-8.2293,-8.2293,-8.202,-8.1005,-8.703,-8.7212,-8.7269,-8.7372,-8.75,-8.75,-8.75,-8.75,-8.75,-8.75,-8.75,-8.75,-8.75,-8.75,-8.75,-8.75,-8.75,-8.75,-8.75,-8.75,-8.75,-8.75,-8.75,-8.75,-8.75,-8.75,-8.75,-8.7461,-8.742,-8.7415,-8.7411,-8.7411,-8.741,-8.7408,-8.7408,-8.7401,-8.7397,-8.7397,-8.7387,-8.742,-8.742,-8.742,-8.7417,-8.7407,-8.7404,-8.7404,-8.7404,-8.7404,-8.7404,-8.7404,-8.7404,-8.7134,-8.651,-8.6471,-8.6158,-8.5612,-8.5534,-8.5534,-8.5495,-8.553,-8.5416,-8.5182,-8.5143,-8.5065,-8.487,-8.4831,-8.4831,-8.4675,-8.3699,-8.3035,-8.2996,-8.2996,-8.2996,-8.2957,-8.2801,-8.2645,-8.2645,-8.2489,-8.2293,-8.2293,-8.2293,-8.2293,-8.2293,-8.2293,-8.2293,-8.2293,-8.2293,-8.2293,-8.2293,-8.2293,-8.2293,-8.2293,-8.2293,-8.2293,-8.2293,-8.2293,-8.2293,-8.2293,-8.2293,-8.2293,-8.2293,-8.2293,-8.2293,-8.2293,-8.2293,-8.2293,-8.2293,-8.2293,-8.2293,-8.2293,-8.2293,-8.2293,-8.2293,-8.2293,-8.202,-8.7086,-8.7222,-8.7377,-8.7461,-8.75,-8.75,-8.75,-8.75,-8.75,-8.75,-8.75,-8.75,-8.75,-8.75,-8.75,-8.75,-8.75,-8.75,-8.75,-8.75,-8.75,-8.75,-8.75,-8.75,-8.75,-8.75,-8.75,-8.75,-8.75,-8.742,-8.7417,-8.7417,-8.7413,-8.741,-8.741,-8.7408,-8.7408,-8.7408,-8.7407,-8.7407,-8.7407,-8.7407,-8.7397,-8.7411,-8.7407,-8.7407,-8.7404,-8.7404,-8.7404,-8.7404,-8.7404,-8.7368,-8.7326,-8.7326,-8.7251,-8.7209,-8.7209,-8.7209,-8.717,-8.7131,-8.6861,-8.6197,-8.6041,-8.5729,-8.5143,-8.5065,-8.5065,-8.487,-8.487,-8.4714,-8.4671,-8.448,-8.448,-8.4441,-8.3855,-8.3504,-8.3386,-8.2762,-8.2371,-8.2293,-8.2293,-8.2293,-8.2293,-8.2293,-8.2293,-8.2293,-8.2293,-8.2293,-8.2293,-8.2293,-8.2293,-8.2293,-8.2293,-8.2293,-8.2293,-8.2293,-8.2293,-8.2293,-8.2293,-8.2293,-8.2293,-8.2293,-8.2293,-8.2293,-8.2293,-8.2293,-8.2293,-8.2293,-8.2293,-8.2293,-8.2293,-8.2293,-8.2293,-8.2293,-8.2137,-8.7364,-8.7376,-8.746,-8.75,-8.75,-8.75,-8.75,-8.75,-8.75,-8.75,-8.75,-8.75,-8.75,-8.75,-8.75,-8.75,-8.75,-8.75,-8.75,-8.75,-8.75,-8.75,-8.75,-8.75,-8.75,-8.75,-8.75,-8.75,-8.75,-8.7461,-8.746,-8.746,-8.7459,-8.7459,-8.7459,-8.7417,-8.7415,-8.7415,-8.7411,-8.7408,-8.741,-8.7408,-8.7405,-8.7397,-8.7389,-8.7417,-8.7404,-8.7404,-8.7404,-8.7404,-8.7404,-8.7404,-8.7404,-8.7404,-8.7404,-8.7404,-8.7404,-8.7404,-8.7404,-8.7404,-8.729,-8.6978,-8.6939,-8.6822,-8.6549,-8.6467,-8.6467,-8.6431,-8.6428,-8.6471,-8.6236,-8.5495,-8.4831,-8.4753,-8.4519,-8.4128,-8.3621,-8.323,-8.2879,-8.245,-8.2293,-8.2293,-8.2411,-8.2332,-8.2293,-8.2293,-8.2332,-8.2371,-8.2332,-8.2332,-8.2332,-8.2293,-8.2293,-8.2293,-8.2293,-8.2293,-8.2293,-8.2293,-8.2293,-8.2293,-8.2293,-8.2293,-8.2293,-8.2293,-8.2293,-8.2293,-8.2293,-8.2137,-8.2176,-8.2176,-8.2176,-8.1903,-8.2293,-8.2059,-8.2137,-8.75,-8.75,-8.75,-8.75,-8.75,-8.75,-8.75,-8.75,-8.75,-8.75,-8.75,-8.75,-8.75,-8.75,-8.75,-8.75,-8.75,-8.75,-8.75,-8.75,-8.75,-8.75,-8.75,-8.75,-8.75,-8.75,-8.75,-8.75,-8.75,-8.75,-8.75,-8.75,-8.75,-8.75,-8.75,-8.746,-8.742,-8.742,-8.7417,-8.7415,-8.7454,-8.7454,-8.7414,-8.7411,-8.7407,-8.7399,-8.7423,-8.7417,-8.7414,-8.7414,-8.7407,-8.7404,-8.7404,-8.7404,-8.7404,-8.7404,-8.7404,-8.7404,-8.7404,-8.7404,-8.7404,-8.7404,-8.7404,-8.7404,-8.7404,-8.7404,-8.7404,-8.7404,-8.7404,-8.7404,-8.7209,-8.635,-8.5647,-8.5612,-8.5377,-8.4987,-8.4441,-8.4089,-8.3699,-8.3308,-8.323,-8.3152,-8.3113,-8.3152,-8.3152,-8.3113,-8.3113,-8.3035,-8.2762,-8.2684,-8.2567,-8.2371,-8.2293,-8.2293,-8.2332,-8.2332,-8.2293,-8.2293,-8.2293,-8.2293,-8.2215,-8.2215,-8.2215,-8.2254,-8.2254,-8.2293,-8.2215,-8.202,-8.1942,-8.1903,-8.1396,-8.0927,-8.1317,-8.163,-8.163,-8.75,-8.75,-8.75,-8.75,-8.75,-8.75,-8.75,-8.75,-8.75,-8.75,-8.75,-8.75,-8.75,-8.75,-8.75,-8.75,-8.75,-8.75,-8.75,-8.75,-8.75,-8.75,-8.75,-8.75,-8.75,-8.75,-8.75,-8.75,-8.75,-8.75,-8.75,-8.75,-8.75,-8.75,-8.75,-8.75,-8.75,-8.75,-8.75,-8.75,-8.75,-8.75,-8.746,-8.7418,-8.7417,-8.7415,-8.7408,-8.7399,-8.7392,-8.7389,-8.7417,-8.7407,-8.7407,-8.7407,-8.7404,-8.7404,-8.7404,-8.7404,-8.7404,-8.7404,-8.7404,-8.7404,-8.7404,-8.7404,-8.7404,-8.7404,-8.7404,-8.7404,-8.7404,-8.7404,-8.7404,-8.7248,-8.7134,-8.7248,-8.651,-8.608,-8.5807,-8.526,-8.4792,-8.4636,-8.4558,-8.4753,-8.4753,-8.4519,-8.4441,-8.448,-8.448,-8.4245,-8.366,-8.3543,-8.3191,-8.2723,-8.2723,-8.2918,-8.2606,-8.2332,-8.2332,-8.2293,-8.2293,-8.2254,-8.202,-8.1942,-8.1669,-8.1669,-8.1474,-8.1474,-8.1435,-8.1239,-8.1044,-8.0888,-8.0341,-8.0107,-8.042,-8.0732,-8.0888,-8.75,-8.75,-8.75,-8.75,-8.75,-8.75,-8.75,-8.75,-8.75,-8.75,-8.75,-8.75,-8.75,-8.75,-8.75,-8.75,-8.75,-8.75,-8.75,-8.75,-8.75,-8.75,-8.75,-8.75,-8.75,-8.75,-8.75,-8.75,-8.75,-8.75,-8.75,-8.75,-8.75,-8.75,-8.75,-8.75,-8.75,-8.75,-8.75,-8.75,-8.75,-8.75,-8.75,-8.7461,-8.746,-8.746,-8.7459,-8.7411,-8.7405,-8.7405,-8.7401,-8.7394,-8.7387,-8.7414,-8.7404,-8.7404,-8.7404,-8.7404,-8.7404,-8.7404,-8.7404,-8.7404,-8.7404,-8.7404,-8.7404,-8.7404,-8.7404,-8.7404,-8.7404,-8.7404,-8.7404,-8.7404,-8.7404,-8.7404,-8.7173,-8.6705,-8.6197,-8.5416,-8.487,-8.4831,-8.4831,-8.4831,-8.4831,-8.487,-8.4948,-8.4948,-8.4909,-8.4714,-8.448,-8.4401,-8.4362,-8.405,-8.3972,-8.3621,-8.3347,-8.3113,-8.3035,-8.2723,-8.2528,-8.2215,-8.1942,-8.1747,-8.1474,-8.1278,-8.1044,-8.0927,-8.081,-8.0498,-8.0381,-8.0146,-7.9834,-7.9756,-7.9756,-7.9873,-8.0029,-8.75,-8.75,-8.75,-8.75,-8.75,-8.75,-8.75,-8.75,-8.75,-8.75,-8.75,-8.75,-8.75,-8.75,-8.75,-8.75,-8.75,-8.75,-8.75,-8.75,-8.75,-8.75,-8.75,-8.75,-8.75,-8.75,-8.75,-8.75,-8.75,-8.75,-8.75,-8.75,-8.75,-8.75,-8.75,-8.75,-8.75,-8.75,-8.75,-8.75,-8.75,-8.75,-8.75,-8.75,-8.75,-8.75,-8.75,-8.7458,-8.7415,-8.7413,-8.741,-8.7405,-8.7399,-8.7387,-8.7417,-8.7414,-8.7411,-8.7404,-8.7404,-8.7404,-8.7404,-8.7404,-8.7404,-8.7404,-8.7404,-8.7404,-8.7404,-8.7404,-8.7404,-8.7404,-8.7404,-8.7404,-8.7404,-8.7404,-8.7404,-8.7134,-8.6588,-8.6119,-8.5846,-8.5885,-8.5846,-8.5768,-8.5768,-8.5768,-8.5768,-8.5768,-8.5768,-8.5534,-8.5456,-8.5299,-8.5182,-8.4987,-8.4597,-8.4284,-8.4089,-8.3894,-8.3777,-8.3308,-8.2801,-8.2371,-8.1942,-8.1903,-8.1747,-8.1669,-8.1474,-8.1591,-8.1474,-8.0381,-7.9873,-7.96,-7.9366,-7.8663,-7.8468,-7.8975,-7.9209,-8.75,-8.75,-8.75,-8.75,-8.75,-8.75,-8.75,-8.75,-8.75,-8.75,-8.75,-8.75,-8.75,-8.75,-8.75,-8.75,-8.7461,-8.7304,-8.7304,-8.7265,-8.7226,-8.7187,-8.7461,-8.75,-8.75,-8.75,-8.75,-8.75,-8.75,-8.75,-8.75,-8.75,-8.75,-8.75,-8.75,-8.75,-8.75,-8.75,-8.75,-8.75,-8.75,-8.75,-8.75,-8.75,-8.75,-8.75,-8.75,-8.75,-8.746,-8.7418,-8.7414,-8.741,-8.7408,-8.7399,-8.7392,-8.7392,-8.7417,-8.7414,-8.7411,-8.7414,-8.7411,-8.7411,-8.7411,-8.7407,-8.7407,-8.7404,-8.7404,-8.7404,-8.7404,-8.7404,-8.7404,-8.7404,-8.7404,-8.7404,-8.7404,-8.7329,-8.7404,-8.729,-8.7092,-8.717,-8.7365,-8.7365,-8.7134,-8.7173,-8.7173,-8.7173,-8.7134,-8.6744,-8.6392,-8.608,-8.5768,-8.5573,-8.5495,-8.5182,-8.5026,-8.487,-8.4675,-8.405,-8.3465,-8.2918,-8.2059,-8.1825,-8.1435,-8.1435,-8.1786,-8.1981,-8.1591,-8.0341,-7.9717,-7.9678,-7.8897,-7.7609,-7.7687,-7.8546,-7.8702,-8.75,-8.75,-8.75,-8.75,-8.75,-8.75,-8.75,-8.75,-8.75,-8.75,-8.75,-8.75,-8.75,-8.75,-8.75,-8.75,-8.7383,-8.6875,-8.6562,-8.6445,-8.5859,-8.6406,-8.7265,-8.7461,-8.7422,-8.7422,-8.7304,-8.75,-8.75,-8.7383,-8.7383,-8.75,-8.7344,-8.7422,-8.75,-8.7383,-8.75,-8.75,-8.75,-8.7422,-8.7422,-8.7422,-8.75,-8.75,-8.7461,-8.7461,-8.75,-8.75,-8.75,-8.75,-8.7419,-8.7416,-8.7415,-8.741,-8.7405,-8.7405,-8.7403,-8.7401,-8.7401,-8.7399,-8.7397,-8.7387,-8.7423,-8.742,-8.7407,-8.7404,-8.7404,-8.7404,-8.7404,-8.7404,-8.7404,-8.7404,-8.7404,-8.7404,-8.7404,-8.7404,-8.7404,-8.7404,-8.7404,-8.7404,-8.7404,-8.7404,-8.7404,-8.7404,-8.7404,-8.7404,-8.7365,-8.7329,-8.6978,-8.69,-8.6588,-8.6819,-8.674,-8.6353,-8.6041,-8.5846,-8.5456,-8.4831,-8.4245,-8.3738,-8.2567,-8.1474,-8.081,-8.0224,-8.12,-8.1591,-8.0849,-7.9834,-7.9756,-7.9912,-7.9366,-7.8585,-7.8624,-7.9131,-7.8741,-8.75,-8.75,-8.75,-8.75,-8.75,-8.75,-8.75,-8.75,-8.75,-8.75,-8.75,-8.75,-8.75,-8.75,-8.75,-8.75,-8.7422,-8.6992,-8.6797,-8.664,-8.5937,-8.5898,-8.6328,-8.6406,-8.6406,-8.6406,-8.6406,-8.6367,-8.6367,-8.6406,-8.6406,-8.6367,-8.6406,-8.6406,-8.6328,-8.6406,-8.6406,-8.6367,-8.6406,-8.6406,-8.6406,-8.6406,-8.664,-8.6836,-8.6992,-8.707,-8.7422,-8.75,-8.75,-8.75,-8.746,-8.7459,-8.7459,-8.7416,-8.7413,-8.7413,-8.7411,-8.7408,-8.7408,-8.7408,-8.7407,-8.7401,-8.7397,-8.7389,-8.7417,-8.7411,-8.7404,-8.7404,-8.7404,-8.7404,-8.7404,-8.7404,-8.7404,-8.7404,-8.7404,-8.7404,-8.7404,-8.7404,-8.7404,-8.7404,-8.7404,-8.7404,-8.7404,-8.7404,-8.7404,-8.7404,-8.7404,-8.7404,-8.7326,-8.7404,-8.7404,-8.7404,-8.7404,-8.6978,-8.6744,-8.6588,-8.6471,-8.5846,-8.5299,-8.4753,-8.3738,-8.2293,-8.2098,-8.1747,-8.1474,-8.12,-8.0966,-8.0615,-8.0341,-8.0341,-7.999,-7.9756,-7.96,-7.9561,-7.9131,-8.75,-8.75,-8.75,-8.75,-8.75,-8.75,-8.75,-8.75,-8.75,-8.75,-8.75,-8.75,-8.75,-8.75,-8.75,-8.75,-8.75,-8.7187,-8.707,-8.6719,-8.6172,-8.5703,-8.5195,-8.5234,-8.5195,-8.5156,-8.4961,-8.5039,-8.5195,-8.5078,-8.5,-8.5156,-8.5078,-8.4961,-8.5195,-8.5078,-8.4922,-8.5117,-8.5195,-8.5234,-8.5234,-8.5234,-8.5547,-8.5976,-8.6328,-8.6758,-8.7265,-8.75,-8.75,-8.75,-8.75,-8.75,-8.75,-8.742,-8.7419,-8.7418,-8.7416,-8.7413,-8.7413,-8.7414,-8.7411,-8.741,-8.7403,-8.7394,-8.7392,-8.7423,-8.7417,-8.7411,-8.7407,-8.7411,-8.7404,-8.7404,-8.7404,-8.7404,-8.7404,-8.7404,-8.7404,-8.7404,-8.7404,-8.7404,-8.7404,-8.7404,-8.7404,-8.7404,-8.7404,-8.7404,-8.7404,-8.7404,-8.7404,-8.7404,-8.7404,-8.7404,-8.7404,-8.7404,-8.7326,-8.7287,-8.7209,-8.6936,-8.6431,-8.5924,-8.5377,-8.4519,-8.4519,-8.4206,-8.3269,-8.2801,-8.2723,-8.2254,-8.1513,-8.1044,-8.0888,-8.0459,-8.0107,-8.0107,-7.9834,-8.75,-8.75,-8.75,-8.75,-8.75,-8.75,-8.75,-8.75,-8.75,-8.75,-8.75,-8.75,-8.75,-8.75,-8.75,-8.75,-8.7383,-8.6914,-8.6172,-8.5429,-8.5312,-8.5117,-8.4883,-8.4883,-8.4883,-8.4844,-8.4883,-8.4883,-8.4844,-8.4687,-8.4883,-8.4804,-8.4648,-8.4883,-8.4804,-8.4648,-8.4883,-8.4883,-8.4844,-8.4726,-8.4726,-8.4726,-8.4883,-8.5234,-8.582,-8.664,-8.7304,-8.75,-8.75,-8.75,-8.75,-8.75,-8.75,-8.75,-8.7461,-8.7461,-8.7461,-8.7461,-8.7461,-8.7461,-8.7459,-8.7416,-8.7414,-8.7413,-8.7407,-8.7403,-8.7397,-8.7389,-8.7387,-8.742,-8.7411,-8.7407,-8.7407,-8.7407,-8.7404,-8.7404,-8.7404,-8.7404,-8.7404,-8.7404,-8.7404,-8.7404,-8.7404,-8.7404,-8.7404,-8.7404,-8.7404,-8.7404,-8.7404,-8.7404,-8.7404,-8.7404,-8.7404,-8.7404,-8.7404,-8.7404,-8.7404,-8.7404,-8.7095,-8.6861,-8.6314,-8.5885,-8.5573,-8.5143,-8.4597,-8.4323,-8.4089,-8.3386,-8.2567,-8.2176,-8.1786,-8.1474,-8.1161,-8.0966,-8.0732,-8.75,-8.75,-8.75,-8.75,-8.75,-8.75,-8.75,-8.75,-8.75,-8.75,-8.75,-8.75,-8.75,-8.75,-8.75,-8.75,-8.7422,-8.7031,-8.6367,-8.5742,-8.5508,-8.5312,-8.4922,-8.4844,-8.4726,-8.4414,-8.4297,-8.414,-8.3789,-8.375,-8.3594,-8.3672,-8.3711,-8.3594,-8.3672,-8.3711,-8.3633,-8.3633,-8.3672,-8.3672,-8.3672,-8.3672,-8.3984,-8.4492,-8.5469,-8.6484,-8.6836,-8.7304,-8.7461,-8.75,-8.75,-8.75,-8.75,-8.75,-8.75,-8.75,-8.75,-8.75,-8.75,-8.75,-8.75,-8.746,-8.7419,-8.7417,-8.7414,-8.7411,-8.7407,-8.7403,-8.7399,-8.7397,-8.742,-8.742,-8.7417,-8.7407,-8.7404,-8.7404,-8.7404,-8.7404,-8.7404,-8.7404,-8.7404,-8.7404,-8.7404,-8.7404,-8.7404,-8.7404,-8.7404,-8.7404,-8.7404,-8.7404,-8.7404,-8.7404,-8.7404,-8.7404,-8.7404,-8.7404,-8.7404,-8.7404,-8.7326,-8.7209,-8.7014,-8.6588,-8.6197,-8.5885,-8.5612,-8.5338,-8.5026,-8.4284,-8.3543,-8.2996,-8.2606,-8.245,-8.2176,-8.1708,-8.1552,-8.75,-8.75,-8.75,-8.75,-8.75,-8.75,-8.75,-8.75,-8.75,-8.75,-8.75,-8.75,-8.75,-8.75,-8.75,-8.75,-8.75,-8.7461,-8.6914,-8.6484,-8.6406,-8.6094,-8.5664,-8.5508,-8.5117,-8.4101,-8.4062,-8.3633,-8.3164,-8.2578,-8.3008,-8.2617,-8.2383,-8.2617,-8.2422,-8.2344,-8.2539,-8.2578,-8.2617,-8.2578,-8.25,-8.2539,-8.2929,-8.3828,-8.4765,-8.5859,-8.6289,-8.6836,-8.7304,-8.7461,-8.75,-8.75,-8.75,-8.75,-8.75,-8.75,-8.75,-8.75,-8.75,-8.75,-8.75,-8.75,-8.746,-8.7419,-8.7418,-8.7416,-8.7414,-8.741,-8.7407,-8.7401,-8.7392,-8.7423,-8.7417,-8.7411,-8.7404,-8.7404,-8.7404,-8.7404,-8.7404,-8.7404,-8.7404,-8.7404,-8.7404,-8.7404,-8.7404,-8.7404,-8.7404,-8.7404,-8.7404,-8.7404,-8.7404,-8.7404,-8.7404,-8.7404,-8.7404,-8.7404,-8.7404,-8.7404,-8.7404,-8.7404,-8.7404,-8.7131,-8.6783,-8.69,-8.6705,-8.6314,-8.5807,-8.5104,-8.4401,-8.3738,-8.3191,-8.2801,-8.2567,-8.2332,-8.2215,-8.75,-8.75,-8.75,-8.75,-8.75,-8.75,-8.75,-8.75,-8.75,-8.75,-8.75,-8.75,-8.75,-8.75,-8.75,-8.75,-8.75,-8.7461,-8.7383,-8.7187,-8.7187,-8.6953,-8.6836,-8.6719,-8.6406,-8.5781,-8.5156,-8.4648,-8.4179,-8.3789,-8.3437,-8.3242,-8.2695,-8.2383,-8.2422,-8.2304,-8.2304,-8.2304,-8.2304,-8.2304,-8.2304,-8.2344,-8.2617,-8.3437,-8.4062,-8.4844,-8.5859,-8.6289,-8.6758,-8.7383,-8.75,-8.75,-8.75,-8.75,-8.75,-8.75,-8.75,-8.75,-8.75,-8.75,-8.75,-8.75,-8.75,-8.75,-8.7461,-8.7461,-8.7459,-8.7416,-8.7408,-8.7397,-8.7392,-8.7387,-8.7414,-8.7407,-8.7407,-8.7404,-8.7404,-8.7404,-8.7404,-8.7404,-8.7404,-8.7404,-8.7404,-8.7404,-8.7404,-8.7404,-8.7404,-8.7404,-8.7404,-8.7404,-8.7404,-8.7404,-8.7404,-8.7404,-8.7404,-8.7404,-8.7404,-8.7404,-8.7404,-8.7404,-8.7404,-8.7404,-8.7365,-8.7287,-8.7173,-8.6822,-8.6314,-8.5768,-8.5065,-8.4323,-8.3699,-8.3113,-8.2801,-8.2528,-8.2332,-8.75,-8.75,-8.75,-8.75,-8.75,-8.75,-8.75,-8.75,-8.75,-8.75,-8.75,-8.75,-8.75,-8.75,-8.75,-8.75,-8.75,-8.75,-8.75,-8.75,-8.75,-8.75,-8.75,-8.75,-8.7265,-8.6836,-8.6406,-8.5664,-8.4961,-8.4492,-8.4258,-8.4062,-8.3398,-8.2969,-8.2851,-8.2539,-8.2383,-8.2304,-8.2304,-8.2304,-8.2304,-8.2304,-8.2617,-8.289,-8.3398,-8.4062,-8.4726,-8.5898,-8.6367,-8.6836,-8.7265,-8.7461,-8.75,-8.75,-8.75,-8.75,-8.75,-8.75,-8.75,-8.75,-8.75,-8.75,-8.75,-8.75,-8.75,-8.75,-8.7461,-8.746,-8.7458,-8.7452,-8.741,-8.7399,-8.7389,-8.742,-8.7411,-8.7407,-8.7404,-8.7404,-8.7404,-8.7404,-8.7404,-8.7404,-8.7404,-8.7404,-8.7404,-8.7404,-8.7404,-8.7404,-8.7404,-8.7404,-8.7404,-8.7404,-8.7404,-8.7404,-8.7404,-8.7404,-8.7404,-8.7404,-8.7404,-8.7404,-8.7404,-8.7404,-8.7404,-8.7365,-8.7248,-8.7134,-8.6861,-8.6314,-8.5612,-8.4909,-8.4206,-8.3543,-8.3074,-8.2723,-8.2528,-8.75,-8.75,-8.75,-8.75,-8.75,-8.75,-8.75,-8.75,-8.75,-8.75,-8.75,-8.75,-8.75,-8.75,-8.75,-8.75,-8.75,-8.75,-8.75,-8.75,-8.75,-8.75,-8.75,-8.75,-8.7422,-8.7383,-8.7304,-8.6797,-8.582,-8.5273,-8.5156,-8.4922,-8.4297,-8.3711,-8.3476,-8.2929,-8.2578,-8.2304,-8.2304,-8.2304,-8.2304,-8.2304,-8.2304,-8.2304,-8.2969,-8.3398,-8.3906,-8.4804,-8.5742,-8.6289,-8.6836,-8.7304,-8.7461,-8.75,-8.75,-8.75,-8.75,-8.75,-8.75,-8.75,-8.75,-8.75,-8.75,-8.75,-8.75,-8.75,-8.75,-8.75,-8.7461,-8.7459,-8.7416,-8.7411,-8.7401,-8.7392,-8.7417,-8.7404,-8.7404,-8.7404,-8.7404,-8.7404,-8.7404,-8.7404,-8.7404,-8.7404,-8.7404,-8.7404,-8.7404,-8.7404,-8.7404,-8.7404,-8.7404,-8.7404,-8.7404,-8.7404,-8.7404,-8.7404,-8.7404,-8.7404,-8.7404,-8.7404,-8.7404,-8.7404,-8.7404,-8.7404,-8.7404,-8.7248,-8.7095,-8.69,-8.6275,-8.5573,-8.4675,-8.3972,-8.3426,-8.2996,-8.2762,-8.75,-8.75,-8.75,-8.75,-8.75,-8.75,-8.75,-8.75,-8.75,-8.75,-8.75,-8.75,-8.75,-8.75,-8.75,-8.75,-8.75,-8.75,-8.75,-8.75,-8.75,-8.75,-8.75,-8.75,-8.75,-8.75,-8.75,-8.7422,-8.6836,-8.6289,-8.6054,-8.5859,-8.5195,-8.4453,-8.3984,-8.3633,-8.3047,-8.2461,-8.2344,-8.2304,-8.2304,-8.2304,-8.2304,-8.2344,-8.25,-8.2851,-8.3398,-8.4062,-8.4648,-8.5937,-8.625,-8.6758,-8.7304,-8.75,-8.75,-8.75,-8.75,-8.75,-8.75,-8.75,-8.75,-8.75,-8.75,-8.75,-8.75,-8.75,-8.75,-8.75,-8.746,-8.742,-8.7417,-8.7407,-8.7397,-8.7389,-8.7417,-8.7407,-8.7404,-8.7404,-8.7404,-8.7404,-8.7404,-8.7404,-8.7404,-8.7404,-8.7404,-8.7404,-8.7404,-8.7404,-8.7404,-8.7404,-8.7404,-8.7404,-8.7404,-8.7404,-8.7404,-8.7404,-8.7404,-8.7404,-8.7404,-8.7404,-8.7404,-8.7404,-8.7404,-8.7404,-8.7404,-8.7404,-8.7287,-8.7056,-8.6783,-8.6275,-8.5534,-8.4636,-8.3699,-8.3347,-8.3035,-8.8359,-8.75,-8.75,-8.75,-8.75,-8.75,-8.75,-8.75,-8.75,-8.75,-8.75,-8.75,-8.75,-8.75,-8.75,-8.75,-8.75,-8.75,-8.75,-8.75,-8.75,-8.75,-8.75,-8.75,-8.75,-8.75,-8.75,-8.75,-8.7344,-8.7187,-8.6914,-8.6758,-8.6094,-8.5547,-8.4844,-8.457,-8.3867,-8.3164,-8.2617,-8.2344,-8.2304,-8.2304,-8.2304,-8.2304,-8.2304,-8.2539,-8.2851,-8.3437,-8.3828,-8.4922,-8.5469,-8.6328,-8.6797,-8.7187,-8.75,-8.75,-8.75,-8.75,-8.75,-8.75,-8.75,-8.75,-8.75,-8.75,-8.75,-8.75,-8.75,-8.75,-8.7461,-8.7461,-8.7461,-8.7413,-8.7407,-8.7399,-8.7423,-8.7411,-8.7407,-8.7404,-8.7404,-8.7404,-8.7404,-8.7404,-8.7404,-8.7404,-8.7404,-8.7404,-8.7404,-8.7404,-8.7404,-8.7404,-8.7404,-8.7404,-8.7404,-8.7404,-8.7404,-8.7404,-8.7404,-8.7404,-8.7404,-8.7404,-8.7404,-8.7404,-8.7404,-8.7404,-8.7404,-8.7404,-8.7404,-8.7287,-8.7095,-8.6783,-8.6431,-8.5456,-8.4441,-8.3582,-8.323,-8.9258,-8.8164,-8.8125,-8.8125,-8.8125,-8.8125,-8.8164,-8.8125,-8.8203,-8.8047,-8.7773,-8.7617,-8.75,-8.75,-8.75,-8.75,-8.75,-8.75,-8.75,-8.75,-8.75,-8.75,-8.75,-8.75,-8.75,-8.75,-8.75,-8.75,-8.75,-8.7461,-8.7422,-8.7461,-8.6836,-8.6328,-8.6015,-8.5469,-8.4687,-8.3515,-8.3008,-8.2617,-8.2344,-8.2304,-8.2304,-8.2304,-8.2304,-8.2304,-8.2422,-8.2812,-8.3242,-8.3945,-8.4726,-8.5429,-8.5898,-8.6601,-8.6992,-8.7109,-8.7226,-8.75,-8.75,-8.75,-8.75,-8.75,-8.75,-8.75,-8.75,-8.75,-8.75,-8.75,-8.75,-8.75,-8.75,-8.7461,-8.7411,-8.7403,-8.7392,-8.7417,-8.7407,-8.7407,-8.7404,-8.7404,-8.7404,-8.7404,-8.7404,-8.7404,-8.7404,-8.7404,-8.7404,-8.7404,-8.7404,-8.7404,-8.7404,-8.7404,-8.7404,-8.7404,-8.7404,-8.7404,-8.7404,-8.7404,-8.7404,-8.7404,-8.7404,-8.7404,-8.7404,-8.7404,-8.7404,-8.7404,-8.7404,-8.7404,-8.7365,-8.7134,-8.6783,-8.6158,-8.5299,-8.4284,-8.3347,-8.9961,-8.9844,-8.9844,-8.9765,-8.9726,-8.9844,-8.9765,-8.9609,-8.9687,-8.9258,-8.8554,-8.7969,-8.7734,-8.7617,-8.7695,-8.7617,-8.7539,-8.75,-8.75,-8.75,-8.75,-8.75,-8.75,-8.75,-8.75,-8.75,-8.75,-8.75,-8.75,-8.75,-8.75,-8.7461,-8.7265,-8.6836,-8.6445,-8.6054,-8.5234,-8.4179,-8.3515,-8.3008,-8.2578,-8.2344,-8.2304,-8.2304,-8.2304,-8.2304,-8.2304,-8.2461,-8.2773,-8.3437,-8.3906,-8.4375,-8.5039,-8.582,-8.625,-8.6601,-8.6992,-8.7304,-8.7461,-8.75,-8.75,-8.75,-8.75,-8.75,-8.75,-8.75,-8.75,-8.75,-8.75,-8.75,-8.75,-8.7459,-8.7415,-8.741,-8.7399,-8.7387,-8.7414,-8.7407,-8.7407,-8.7404,-8.7404,-8.7404,-8.7404,-8.7404,-8.7404,-8.7404,-8.7404,-8.7404,-8.7404,-8.7404,-8.7404,-8.7404,-8.7404,-8.7404,-8.7404,-8.7404,-8.7404,-8.7404,-8.7404,-8.7404,-8.7404,-8.7404,-8.7404,-8.7404,-8.7404,-8.7404,-8.7404,-8.7404,-8.7404,-8.7404,-8.7092,-8.6549,-8.5612,-8.448,-8.3504,-9.1601,-9.1601,-9.1601,-9.0976,-9.0,-9.0,-9.0,-9.0,-9.0,-8.9844,-8.9492,-8.9179,-8.9023,-8.8906,-8.8437,-8.8242,-8.8164,-8.7656,-8.7578,-8.75,-8.75,-8.75,-8.75,-8.75,-8.75,-8.75,-8.75,-8.75,-8.75,-8.75,-8.75,-8.75,-8.75,-8.7344,-8.6992,-8.6523,-8.5781,-8.5117,-8.4179,-8.3398,-8.3164,-8.2539,-8.2304,-8.2304,-8.2304,-8.2304,-8.2304,-8.2304,-8.2539,-8.2851,-8.3281,-8.3711,-8.414,-8.4961,-8.5586,-8.6015,-8.6484,-8.6914,-8.7383,-8.7461,-8.75,-8.75,-8.75,-8.75,-8.75,-8.75,-8.75,-8.75,-8.75,-8.75,-8.75,-8.7459,-8.7416,-8.7413,-8.7407,-8.7394,-8.7423,-8.7414,-8.7407,-8.7407,-8.7404,-8.7404,-8.7404,-8.7404,-8.7404,-8.7404,-8.7404,-8.7404,-8.7404,-8.7404,-8.7404,-8.7404,-8.7404,-8.7404,-8.7404,-8.7404,-8.7404,-8.7404,-8.7404,-8.7404,-8.7404,-8.7404,-8.7404,-8.7404,-8.7404,-8.7404,-8.7404,-8.7404,-8.7404,-8.7404,-8.7248,-8.6978,-8.5885,-8.4714,-8.3855,-9.2578,-9.2578,-9.2578,-9.1914,-9.082,-9.0781,-9.0781,-9.0781,-9.082,-9.0586,-9.039,-9.0156,-9.0,-8.9804,-8.9414,-8.9101,-8.8984,-8.8594,-8.8164,-8.8008,-8.7929,-8.7695,-8.7578,-8.75,-8.75,-8.75,-8.75,-8.75,-8.75,-8.75,-8.75,-8.75,-8.75,-8.7461,-8.7344,-8.6953,-8.6484,-8.5898,-8.5195,-8.4179,-8.3984,-8.3203,-8.2734,-8.2656,-8.25,-8.2304,-8.2304,-8.2304,-8.2304,-8.2539,-8.2812,-8.3125,-8.3515,-8.4023,-8.4765,-8.5273,-8.5781,-8.6211,-8.6875,-8.7383,-8.7461,-8.75,-8.75,-8.75,-8.75,-8.75,-8.75,-8.75,-8.75,-8.75,-8.75,-8.746,-8.7419,-8.7416,-8.7413,-8.7405,-8.7392,-8.7423,-8.7414,-8.7407,-8.7407,-8.7404,-8.7404,-8.7404,-8.7404,-8.7404,-8.7404,-8.7404,-8.7404,-8.7404,-8.7404,-8.7404,-8.7404,-8.7404,-8.7404,-8.7404,-8.7404,-8.7404,-8.7404,-8.7404,-8.7404,-8.7404,-8.7404,-8.7404,-8.7404,-8.7404,-8.7404,-8.7404,-8.7404,-8.7404,-8.7248,-8.7131,-8.6353,-8.526,-8.4401,-9.2578,-9.2578,-9.2578,-9.2539,-9.2344,-9.25,-9.2422,-9.2265,-9.2304,-9.1914,-9.1211,-9.0547,-9.0234,-9.0195,-9.0117,-9.0,-8.9922,-8.9765,-8.9375,-8.8789,-8.8672,-8.8242,-8.7851,-8.7656,-8.7656,-8.7539,-8.75,-8.75,-8.75,-8.75,-8.75,-8.75,-8.75,-8.75,-8.75,-8.7461,-8.7031,-8.6328,-8.6094,-8.5508,-8.4844,-8.4023,-8.3633,-8.3203,-8.2851,-8.2578,-8.2304,-8.2304,-8.2304,-8.2383,-8.2422,-8.2578,-8.2656,-8.3242,-8.375,-8.3945,-8.4609,-8.5312,-8.6211,-8.6992,-8.7344,-8.7461,-8.75,-8.75,-8.75,-8.75,-8.75,-8.75,-8.75,-8.75,-8.75,-8.75,-8.7461,-8.742,-8.7417,-8.7411,-8.7401,-8.7389,-8.742,-8.7407,-8.7407,-8.7404,-8.7404,-8.7404,-8.7404,-8.7404,-8.7404,-8.7404,-8.7404,-8.7404,-8.7404,-8.7404,-8.7404,-8.7404,-8.7404,-8.7404,-8.7404,-8.7404,-8.7404,-8.7404,-8.7404,-8.7404,-8.7404,-8.7404,-8.7404,-8.7404,-8.7404,-8.7404,-8.7404,-8.7404,-8.7404,-8.717,-8.651,-8.5846,-8.5065,-9.2578,-9.2578,-9.2578,-9.2578,-9.2578,-9.2578,-9.2578,-9.2578,-9.2578,-9.2422,-9.2187,-9.1797,-9.1719,-9.1601,-9.1094,-9.0859,-9.0781,-9.0117,-8.9687,-8.9609,-8.9531,-8.9023,-8.8554,-8.8242,-8.8047,-8.7617,-8.75,-8.7539,-8.75,-8.75,-8.75,-8.75,-8.75,-8.75,-8.75,-8.75,-8.7265,-8.6992,-8.6562,-8.6015,-8.5664,-8.4922,-8.4219,-8.375,-8.3359,-8.289,-8.2422,-8.2383,-8.2304,-8.2304,-8.2304,-8.2304,-8.2304,-8.2812,-8.3008,-8.3398,-8.4062,-8.4726,-8.5742,-8.6562,-8.6914,-8.7226,-8.75,-8.75,-8.75,-8.75,-8.75,-8.75,-8.75,-8.75,-8.75,-8.75,-8.7461,-8.7461,-8.7459,-8.7415,-8.7407,-8.7397,-8.7387,-8.7414,-8.7404,-8.7404,-8.7404,-8.7404,-8.7404,-8.7404,-8.7404,-8.7404,-8.7404,-8.7404,-8.7404,-8.7404,-8.7404,-8.7404,-8.7404,-8.7404,-8.7404,-8.7404,-8.7404,-8.7404,-8.7404,-8.7404,-8.7404,-8.7404,-8.7404,-8.7404,-8.7404,-8.7404,-8.7404,-8.7404,-8.7404,-8.7404,-8.7017,-8.6471,-8.5846,-9.2578,-9.2578,-9.2578,-9.2578,-9.2578,-9.2578,-9.2578,-9.2578,-9.2578,-9.2578,-9.2578,-9.2578,-9.2539,-9.2383,-9.207,-9.1758,-9.1679,-9.125,-9.0547,-9.0508,-9.0429,-8.9883,-8.9414,-8.914,-8.8945,-8.8359,-8.8008,-8.7929,-8.7969,-8.7617,-8.75,-8.75,-8.75,-8.75,-8.75,-8.75,-8.7461,-8.7265,-8.6914,-8.6719,-8.6406,-8.5859,-8.5117,-8.457,-8.3984,-8.332,-8.2851,-8.2539,-8.2304,-8.2344,-8.2304,-8.2304,-8.2304,-8.2383,-8.2578,-8.3008,-8.3594,-8.4179,-8.4922,-8.5625,-8.6094,-8.6836,-8.7265,-8.7461,-8.75,-8.75,-8.75,-8.75,-8.75,-8.75,-8.75,-8.75,-8.75,-8.7461,-8.7461,-8.7422,-8.7335,-8.7327,-8.7277,-8.7264,-8.7212,-8.7251,-8.7287,-8.7404,-8.7404,-8.7404,-8.7404,-8.7326,-8.7287,-8.7365,-8.7404,-8.7404,-8.7404,-8.7404,-8.7404,-8.7404,-8.7404,-8.7404,-8.7404,-8.7404,-8.7404,-8.7404,-8.7404,-8.7404,-8.7404,-8.7404,-8.7404,-8.7404,-8.7404,-8.7404,-8.7404,-8.7404,-8.7404,-8.7017,-8.6431,-9.2578,-9.2578,-9.2578,-9.2578,-9.2578,-9.2578,-9.2578,-9.2578,-9.2578,-9.2578,-9.2578,-9.2578,-9.2578,-9.2578,-9.2539,-9.25,-9.2461,-9.2383,-9.1914,-9.1484,-9.1328,-9.0742,-9.0312,-9.0039,-8.9765,-8.957,-8.9219,-8.875,-8.8672,-8.8086,-8.7734,-8.7578,-8.7578,-8.7539,-8.75,-8.75,-8.75,-8.7422,-8.7344,-8.7226,-8.7031,-8.664,-8.6094,-8.5508,-8.4765,-8.4062,-8.3515,-8.3008,-8.2617,-8.2461,-8.2383,-8.2344,-8.2304,-8.2304,-8.2304,-8.2539,-8.3125,-8.3476,-8.3945,-8.4609,-8.5234,-8.6094,-8.6758,-8.7187,-8.75,-8.75,-8.75,-8.75,-8.75,-8.75,-8.75,-8.75,-8.75,-8.75,-8.75,-8.7383,-8.7265,-8.7177,-8.709,-8.7001,-8.6906,-8.6861,-8.6744,-8.6861,-8.674,-8.6623,-8.6545,-8.6584,-8.6701,-8.7329,-8.7329,-8.7404,-8.7404,-8.7404,-8.7404,-8.7326,-8.7404,-8.7404,-8.7404,-8.7404,-8.7404,-8.7365,-8.7404,-8.7404,-8.7404,-8.7404,-8.7404,-8.7404,-8.7404,-8.7404,-8.7404,-8.7404,-8.7404,-8.7404,-8.6978,-9.2578,-9.2578,-9.2578,-9.2578,-9.2578,-9.2578,-9.2578,-9.2578,-9.2578,-9.2578,-9.2578,-9.2578,-9.2578,-9.2578,-9.2578,-9.2578,-9.2578,-9.2578,-9.2461,-9.2226,-9.207,-9.1601,-9.1211,-9.0898,-9.0586,-9.0156,-8.9804,-8.9609,-8.9453,-8.8789,-8.8359,-8.832,-8.7969,-8.7734,-8.7578,-8.75,-8.7539,-8.75,-8.75,-8.75,-8.75,-8.7187,-8.6758,-8.6133,-8.5703,-8.5,-8.4414,-8.3672,-8.3281,-8.3164,-8.2617,-8.2344,-8.2304,-8.2304,-8.2304,-8.2304,-8.2617,-8.2929,-8.3476,-8.3828,-8.4336,-8.5039,-8.5586,-8.6445,-8.6992,-8.7344,-8.7304,-8.7148,-8.7109,-8.7031,-8.6992,-8.7031,-8.7031,-8.7031,-8.6992,-8.6875,-8.6677,-8.6477,-8.6391,-8.6105,-8.6011,-8.6002,-8.5963,-8.5846,-8.569,-8.5612,-8.5612,-8.5729,-8.596,-8.6588,-8.6861,-8.6897,-8.6936,-8.6819,-8.7131,-8.7173,-8.7326,-8.7404,-8.717,-8.7053,-8.7092,-8.7131,-8.7326,-8.7404,-8.7404,-8.7404,-8.7404,-8.7404,-8.7404,-8.7404,-8.7404,-8.7404,-8.7404,-8.7404,-8.7365,-9.2578,-9.2578,-9.2578,-9.2578,-9.2578,-9.2578,-9.2578,-9.2578,-9.2578,-9.2578,-9.2578,-9.2578,-9.2578,-9.2578,-9.2578,-9.2578,-9.2578,-9.2578,-9.2539,-9.2539,-9.2578,-9.2265,-9.1914,-9.1758,-9.1562,-9.1054,-9.0664,-9.0508,-9.0273,-8.9726,-8.9219,-8.9179,-8.8633,-8.8281,-8.8125,-8.8047,-8.7773,-8.7617,-8.75,-8.75,-8.75,-8.75,-8.7109,-8.6758,-8.6484,-8.5898,-8.5429,-8.457,-8.4062,-8.3711,-8.2969,-8.2617,-8.2461,-8.2304,-8.2304,-8.2304,-8.2383,-8.2578,-8.2929,-8.3008,-8.3594,-8.4101,-8.4414,-8.5117,-8.582,-8.6211,-8.625,-8.625,-8.6328,-8.6367,-8.6406,-8.6445,-8.6406,-8.6406,-8.6289,-8.6172,-8.5935,-8.5659,-8.5377,-8.5012,-8.4921,-8.4951,-8.4909,-8.4792,-8.4831,-8.5026,-8.5104,-8.5143,-8.5299,-8.5608,-8.5846,-8.5882,-8.5999,-8.6077,-8.6431,-8.6627,-8.6431,-8.6272,-8.6077,-8.6077,-8.6428,-8.6783,-8.6861,-8.7134,-8.7404,-8.7404,-8.7404,-8.7404,-8.7404,-8.7404,-8.7404,-8.7404,-8.7404,-8.7404,-8.7365,-9.2578,-9.2578,-9.2578,-9.2578,-9.2578,-9.2578,-9.2578,-9.2578,-9.2578,-9.2578,-9.2578,-9.2578,-9.2578,-9.2578,-9.2578,-9.2578,-9.2578,-9.2578,-9.2578,-9.2578,-9.2578,-9.2461,-9.2461,-9.2539,-9.2226,-9.2187,-9.1914,-9.1367,-9.1133,-9.0586,-9.0117,-9.0117,-8.9844,-8.9414,-8.8906,-8.8828,-8.8594,-8.8281,-8.8086,-8.7969,-8.7578,-8.75,-8.7461,-8.7304,-8.6836,-8.6289,-8.6094,-8.5469,-8.4648,-8.4101,-8.3515,-8.3164,-8.2578,-8.2304,-8.2304,-8.2304,-8.2304,-8.2383,-8.2461,-8.2539,-8.2851,-8.3242,-8.3515,-8.3906,-8.4453,-8.5273,-8.5469,-8.5508,-8.5586,-8.5625,-8.5625,-8.5625,-8.5625,-8.5625,-8.5547,-8.5273,-8.4961,-8.4609,-8.4209,-8.3962,-8.395,-8.3939,-8.3972,-8.3855,-8.3816,-8.4245,-8.4362,-8.4284,-8.4401,-8.4558,-8.4867,-8.4948,-8.526,-8.5416,-8.5377,-8.5456,-8.5221,-8.5026,-8.4987,-8.5143,-8.5573,-8.6002,-8.6431,-8.6744,-8.7092,-8.7326,-8.7404,-8.7404,-8.7404,-8.7404,-8.7404,-8.7404,-8.7404,-8.7404,-8.7404,-9.2578,-9.2578,-9.2578,-9.2578,-9.2578,-9.2578,-9.2578,-9.2578,-9.2578,-9.2578,-9.2578,-9.2578,-9.2578,-9.2578,-9.2578,-9.2578,-9.2578,-9.2578,-9.2578,-9.2578,-9.2578,-9.2578,-9.2578,-9.2578,-9.2578,-9.2539,-9.2383,-9.2148,-9.1953,-9.1406,-9.0976,-9.0898,-9.0586,-9.0039,-8.9726,-8.9687,-8.9492,-8.9101,-8.9062,-8.8554,-8.7851,-8.7578,-8.7461,-8.7461,-8.7148,-8.707,-8.6836,-8.6328,-8.5898,-8.5508,-8.4179,-8.3242,-8.2383,-8.2344,-8.2304,-8.2304,-8.2304,-8.2304,-8.2304,-8.2304,-8.25,-8.2539,-8.2695,-8.2773,-8.3242,-8.4258,-8.4804,-8.4804,-8.4804,-8.4765,-8.4765,-8.4726,-8.4726,-8.4726,-8.4726,-8.4336,-8.3945,-8.3554,-8.3086,-8.3031,-8.3018,-8.3008,-8.3077,-8.3035,-8.2918,-8.2879,-8.284,-8.2879,-8.2996,-8.323,-8.3972,-8.4206,-8.4714,-8.4831,-8.4636,-8.4441,-8.4245,-8.4362,-8.448,-8.4597,-8.4714,-8.5182,-8.569,-8.6314,-8.6783,-8.6978,-8.717,-8.7365,-8.7404,-8.7404,-8.7404,-8.7404,-8.7404,-8.7404,-8.7404,-9.2578,-9.2578,-9.2578,-9.2578,-9.2578,-9.2578,-9.2578,-9.2578,-9.2578,-9.2578,-9.2578,-9.2578,-9.2578,-9.2578,-9.2578,-9.2578,-9.2578,-9.2578,-9.2578,-9.2578,-9.2539,-9.2578,-9.2578,-9.2461,-9.2578,-9.2578,-9.2578,-9.25,-9.2422,-9.2265,-9.1836,-9.1758,-9.125,-9.0898,-9.0703,-9.0547,-9.039,-9.0,-9.0078,-8.9492,-8.8476,-8.8281,-8.7812,-8.7695,-8.7539,-8.7539,-8.7383,-8.6953,-8.6601,-8.5859,-8.4492,-8.3672,-8.289,-8.2539,-8.2344,-8.2304,-8.2304,-8.2304,-8.2304,-8.2304,-8.2304,-8.2304,-8.2304,-8.25,-8.25,-8.3398,-8.3437,-8.3437,-8.3437,-8.3437,-8.3437,-8.3398,-8.3437,-8.3437,-8.3437,-8.3203,-8.3047,-8.2851,-8.2652,-8.261,-8.2601,-8.2591,-8.2623,-8.2618,-8.2537,-8.2567,-8.2371,-8.2332,-8.2332,-8.2293,-8.2957,-8.3426,-8.3855,-8.3816,-8.3426,-8.3347,-8.3386,-8.3582,-8.3894,-8.3894,-8.3933,-8.4441,-8.4987,-8.5534,-8.608,-8.6549,-8.6783,-8.7056,-8.7326,-8.7404,-8.7404,-8.7404,-8.7404,-8.7404,-8.7404,-9.2969,-9.2929,-9.2969,-9.2969,-9.289,-9.2812,-9.2812,-9.2773,-9.2656,-9.2578,-9.2578,-9.2578,-9.2578,-9.2578,-9.2578,-9.2578,-9.2578,-9.2578,-9.2578,-9.2344,-9.2344,-9.2031,-9.1953,-9.207,-9.1953,-9.207,-9.2187,-9.2226,-9.2226,-9.2265,-9.2422,-9.2578,-9.2461,-9.2226,-9.1679,-9.1406,-9.1211,-9.0859,-9.0664,-9.039,-8.9844,-8.9336,-8.8672,-8.8086,-8.7812,-8.7773,-8.7734,-8.7539,-8.7187,-8.625,-8.5078,-8.414,-8.3437,-8.2929,-8.2539,-8.2422,-8.2304,-8.2304,-8.2304,-8.2304,-8.2304,-8.2304,-8.2304,-8.2304,-8.2344,-8.2344,-8.2422,-8.2422,-8.2422,-8.2422,-8.2422,-8.2422,-8.2461,-8.2461,-8.2461,-8.2422,-8.2383,-8.2344,-8.2303,-8.2301,-8.2297,-8.2289,-8.2322,-8.2318,-8.231,-8.2299,-8.2293,-8.2293,-8.2293,-8.2293,-8.2606,-8.2762,-8.2957,-8.2723,-8.2489,-8.2606,-8.284,-8.2801,-8.3035,-8.3035,-8.3191,-8.3777,-8.4245,-8.4597,-8.5143,-8.5807,-8.6353,-8.6666,-8.6978,-8.7248,-8.7404,-8.7404,-8.7404,-8.7404,-8.7404,-9.4726,-9.4726,-9.4687,-9.4687,-9.457,-9.3984,-9.3672,-9.3515,-9.2929,-9.2578,-9.2734,-9.2656,-9.2578,-9.2617,-9.2578,-9.2578,-9.2578,-9.2578,-9.207,-9.164,-9.1914,-9.1328,-9.0898,-9.1094,-9.0625,-9.082,-9.1289,-9.1523,-9.1601,-9.2148,-9.2539,-9.2422,-9.2461,-9.2422,-9.2383,-9.2148,-9.1953,-9.164,-9.1679,-9.1601,-9.0898,-9.0351,-8.9844,-8.9531,-8.9531,-8.9062,-8.8711,-8.8515,-8.8008,-8.7187,-8.6172,-8.5,-8.414,-8.3476,-8.2969,-8.2539,-8.2422,-8.2304,-8.2304,-8.2304,-8.2304,-8.2304,-8.2304,-8.2304,-8.2304,-8.2304,-8.2344,-8.2344,-8.2344,-8.2344,-8.2344,-8.2344,-8.2344,-8.2344,-8.2344,-8.2344,-8.2344,-8.2304,-8.2304,-8.2303,-8.2301,-8.2296,-8.2292,-8.2326,-8.2318,-8.2308,-8.2299,-8.2296,-8.2293,-8.2293,-8.2293,-8.2293,-8.2293,-8.2293,-8.2332,-8.2371,-8.2489,-8.2371,-8.2332,-8.2567,-8.284,-8.3191,-8.3621,-8.3816,-8.4441,-8.5182,-8.5651,-8.5963,-8.6627,-8.6939,-8.7287,-8.7404,-8.7404,-8.7404,-8.7404]},{"header":{"parameterUnit":"m.s-1","parameterCategory":1,"la1":31.0,"la2":29.5877,"lo1":-88.7671,"lo2":-86.6584,"dy":0.0162,"dx":0.0185,"nx":115,"ny":88,"refTime":"2023-02-27T06:00:00:Z","depth":0,"parameterNumber":3,"parameterNumberName":"V-component_of_WINDS"},"data":[0.0,0.0,0.0,0.0,0.0,0.0,0.0,0.0,0.0,0.0,0.0,0.0,0.0,0.0,0.0,0.0,0.0,0.0,0.0,0.0,0.0,0.0,0.0,0.0,0.0,0.0,0.0,0.0,0.0,0.0,0.0,0.0,0.0,0.0,0.0,0.0,0.0,0.0,0.0,0.0,0.0,0.0,0.0,0.0,0.0,0.0,0.0,0.0,0.0,0.0,0.0,0.0,0.0,0.0,0.0,0.0,0.0,0.0,0.0,0.0,0.0,0.0,0.0,0.0,0.0,0.0,0.0,0.0,0.0,0.0,0.0,0.0,0.0,0.0,0.0,0.0,0.0,0.0,0.0,0.0,0.0,0.0,0.0,0.0,0.0,0.0,0.0,0.0,0.0,0.0,0.0,0.0,0.0,0.0,0.0,0.0,0.0,0.0,0.0,0.0,0.0,0.0,0.0,0.0,0.0,0.0,0.0,0.0,0.0,0.0,0.0,0.0,0.0,0.0,0.0,0.0,0.0,0.0,0.0,0.0,0.0,0.0,0.0,0.0,0.0,0.0,0.0,0.0,0.0,0.0,0.0,0.0,0.0,0.0,0.0,0.0,0.0,0.0,0.0,0.0,0.0,0.0,0.0,0.0,0.0,0.0,0.0,0.0,0.0,0.0,0.0,0.0,0.0,0.0,0.0,0.0,0.0,0.0,0.0,0.0,0.0,0.0,0.0,0.0,0.0,0.0,0.0,0.0,0.0,0.0,0.0,0.0,0.0,0.0,0.0,0.0,0.0,0.0,0.0,0.0,0.0,0.0,0.0,0.0,0.0,0.0,0.0,0.0,0.0,0.0,0.0,0.0,0.0,0.0,0.0,0.0,0.0,0.0,0.0,0.0,0.0,0.0,0.0,0.0,0.0,0.0,0.0,0.0,0.0,0.0,0.0,0.0,0.0,0.0,0.0,0.0,0.0,0.0,0.0,0.0,0.0,0.0,0.0,0.0,0.0,0.0,0.0,0.0,0.0,0.0,0.0,0.0,0.0,0.0,0.0,0.0,0.0,0.0,0.0,0.0,0.0,0.0,0.0,0.0,0.0,0.0,0.0,0.0,0.0,0.0,0.0,0.0,0.0,0.0,0.0,0.0,0.0,0.0,0.0,0.0,0.0,0.0,0.0,0.0,0.0,0.0,0.0,0.0,0.0,0.0,0.0,0.0,0.0,0.0,0.0,0.0,0.0,0.0,0.0,0.0,0.0,0.0,0.0,0.0,0.0,0.0,0.0,0.0,0.0,0.0,0.0,0.0,0.0,0.0,0.0,0.0,0.0,0.0,0.0,0.0,0.0,0.0,0.0,0.0,0.0,0.0,0.0,0.0,0.0,0.0,0.0,0.0,0.0,0.0,0.0,0.0,0.0,0.0,0.0,0.0,0.0,0.0,0.0,0.0,0.0,0.0,0.0,0.0,0.0,0.0,0.0,0.0,0.0,0.0,0.0,0.0,0.0,0.0,0.0,0.0,0.0,0.0,0.0,0.0,0.0,0.0,0.0,0.0,0.0,0.0,0.0,0.0,0.0,0.0,0.0,0.0,0.0,0.0,0.0,0.0,0.0,0.0,0.0,0.0,0.0,0.0,0.0,0.0,0.0,0.0,0.0,0.0,0.0,0.0,0.0,0.0,0.0,0.0,0.0,0.0,0.0,0.0,0.0,0.0,0.0,0.0,0.0,0.0,0.0,0.0,0.0,0.0,0.0,0.0,0.0,0.0,0.0,0.0,0.0,0.0,0.0,0.0,0.0,0.0,0.0,0.0,0.0,0.0,0.0,0.0,0.0,0.0,0.0,0.0,0.0,0.0,0.0,0.0,0.0,0.0,0.0,0.0,0.0,0.0,0.0,0.0,0.0,0.0,0.0,0.0,0.0,0.0,0.0,0.0,0.0,0.0,0.0,0.0,0.0,0.0,0.0,0.0,0.0,0.0,0.0,0.0,0.0,0.0,0.0,0.0,0.0,0.0,0.0,0.0,0.0,0.0,0.0,0.0,0.0,0.0,0.0,0.0,0.0,0.0,0.0,0.0,0.0,0.0,0.0,0.0,0.0,0.0,0.0,0.0,0.0,0.0,0.0,0.0,0.0,0.0,0.0,0.0,0.0,0.0,0.0,0.0,0.0,0.0,0.0,0.0,0.0,0.0,0.0,0.0,0.0,0.0,0.0,0.0,0.0,0.0,0.0,0.0,0.0,0.0,0.0,0.0,0.0,0.0,0.0,0.0,0.0,0.0,0.0,0.0,0.0,0.0,0.0,0.0,0.0,0.0,0.0,0.0,0.0,0.0,0.0,0.0,0.0,0.0,0.0,0.0,0.0,0.0,0.0,0.0,0.0,0.0,0.0,0.0,0.0,0.0,0.0,0.0,0.0,0.0,0.0,0.0,0.0,0.0,0.0,0.0,0.0,0.0,0.0,0.0,0.0,0.0,0.0,0.0,0.0,0.0,0.0,0.0,0.0,0.0,0.0,0.0,0.0,0.0,0.0,0.0,0.0,0.0,0.0,0.0,0.0,0.0,0.0,0.0,0.0,0.0,0.0,0.0,0.0,0.0,0.0,0.0,0.0,0.0,0.0,0.0,0.0,0.0,0.0,0.0,0.0,0.0,0.0,0.0,0.0,0.0,0.0,0.0,0.0,0.0,0.0,0.0,0.0,0.0,0.0,0.0,0.0,0.0,0.0,0.0,0.0,0.0,0.0,0.0,0.0,0.0,0.0,0.0,0.0,0.0,0.0,0.0,0.0,0.0,0.0,0.0,0.0,0.0,0.0,0.0,0.0,0.0,0.0,0.0,0.0,0.0,0.0,0.0,0.0,0.0,0.0,0.0,0.0,0.0,0.0,0.0,0.0,0.0,0.0,0.0,0.0,0.0,0.0,0.0,0.0,0.0,0.0,0.0,0.0,0.0,0.0,0.0,0.0,0.0,0.0,0.0,0.0,0.0,0.0,0.0,0.0,0.0,0.0,0.0,0.0,0.0,0.0,0.0,0.0,0.0,0.0,0.0,0.0,0.0,0.0,0.0,0.0,0.0,0.0,0.0,0.0,0.0,0.0,0.0,0.0,0.0,0.0,0.0,0.0,0.0,0.0,0.0,0.0,0.0,0.0,0.0,0.0,0.0,0.0,0.0,0.0,0.0,0.0,0.0,0.0,0.0,0.0,0.0,0.0,0.0,0.0,0.0,0.0,0.0,0.0,0.0,0.0,0.0,0.0,0.0,0.0,0.0,0.0,0.0,0.0,0.0,0.0,0.0,0.0,0.0,0.0,0.0,0.0,0.0,0.0,0.0,0.0,0.0,0.0,0.0,0.0,0.0,0.0,0.0,0.0,0.0,0.0,0.0,0.0,0.0,0.0,0.0,0.0,0.0,0.0,0.0,0.0,0.0,0.0,0.0,0.0,0.0,0.0,0.0,0.0,0.0,0.0,0.0,0.0,0.0,0.0,0.0,0.0,0.0,0.0,0.0,0.0,0.0,0.0,0.0,0.0,0.0,0.0,0.0,0.0,0.0,0.0,0.0,0.0,0.0,0.0,0.0,0.0,0.0,0.0,0.0,0.0,0.0,0.0,0.0,0.0,0.0,0.0,0.0,0.0,0.0,0.0,0.0,0.0,0.0,0.0,0.0,0.0,0.0,0.0,0.0,0.0,0.0,0.0,0.0,0.0,0.0,0.0,0.0,0.0,0.0,0.0,0.0,0.0,0.0,0.0,0.0,0.0,0.0,0.0,0.0,0.0,0.0,0.0,0.0,0.0,0.0,0.0,0.0,0.0,0.0,0.0,0.0,0.0,0.0,0.0,0.0,0.0,0.0,0.0,0.0,0.0,0.0,0.0,0.0,0.0,0.0,0.0,0.0,0.0,0.0,0.0,0.0,0.0,0.0,0.0,0.0,0.0,0.0,0.0,0.0,0.0,0.0,0.0,0.0,0.0,0.0,0.0,0.0,0.0,0.0,0.0,0.0,0.0,0.0,0.0,0.0,0.0,0.0,0.0,0.0,0.0,0.0,0.0,0.0,0.0,0.0,0.0,0.0,0.0,0.0,0.0,0.0,0.0,0.0,0.0,0.0,0.0,0.0,0.0,0.0,0.0,0.0,0.0,0.0,0.0,0.0,0.0,0.0,0.0,0.0,0.0,0.0,0.0,0.0,0.0,0.0,0.0,0.0,0.0,0.0,0.0,0.0,0.0,0.0,0.0,0.0,0.0,0.0,0.0,0.0,0.0,0.0,0.0,0.0,0.0,0.0,-1.1543,0.0,0.0,0.0,0.0,0.0,0.0,0.0,0.0,0.0,0.0,0.0,0.0,0.0,0.0,0.0,0.0,0.0,0.0,0.0,0.0,0.0,0.0,0.0,0.0,0.0,0.0,0.0,0.0,0.0,0.0,0.0,0.0,0.0,0.0,0.0,0.0,0.0,0.0,0.0,0.0,0.0,0.0,0.0,0.0,0.0,0.0,0.0,0.0,0.0,0.0,0.0,0.0,0.0,0.0,0.0,0.0,0.0,0.0,0.0,0.0,0.0,0.0,0.0,0.0,0.0,0.0,0.0,0.0,0.0,0.0,0.0,0.0,0.0,0.0,0.0,0.0,0.0,0.0,0.0,0.0,0.0,0.0,0.0,0.0,0.0,0.0,0.0,0.0,0.0,0.0,0.0,0.0,0.0,0.0,0.0,0.0,0.0,0.0,0.0,0.0,0.0,0.0,0.0,0.0,0.0,0.0,0.0,0.0,0.0,0.0,-1.1543,-1.1543,-1.1543,-1.1543,-1.1543,0.0,0.0,0.0,0.0,0.0,0.0,0.0,0.0,0.0,0.0,0.0,0.0,0.0,0.0,0.0,0.0,0.0,0.0,0.0,0.0,0.0,0.0,0.0,0.0,0.0,0.0,0.0,0.0,0.0,0.0,0.0,0.0,0.0,0.0,0.0,0.0,0.0,0.0,0.0,0.0,0.0,0.0,0.0,0.0,0.0,0.0,0.0,0.0,0.0,0.0,0.0,0.0,0.0,0.0,0.0,0.0,0.0,0.0,0.0,0.0,0.0,0.0,0.0,0.0,0.0,0.0,0.0,0.0,0.0,0.0,0.0,0.0,0.0,0.0,0.0,0.0,0.0,0.0,0.0,0.0,0.0,0.0,0.0,0.0,0.0,0.0,0.0,0.0,0.0,0.0,0.0,0.0,0.0,0.0,0.0,0.0,0.0,0.0,0.0,0.0,0.0,0.0,0.0,0.0,0.0,0.0,0.0,0.0,0.0,0.0,0.0,0.0,-1.1543,-1.1543,-1.1543,0.0,0.0,0.0,0.0,0.0,0.0,0.0,0.0,0.0,0.0,0.0,0.0,0.0,0.0,0.0,0.0,0.0,0.0,0.0,0.0,0.0,0.0,0.0,0.0,0.0,0.0,0.0,0.0,0.0,0.0,0.0,0.0,0.0,0.0,0.0,0.0,0.0,0.0,0.0,0.0,0.0,0.0,0.0,0.0,0.0,0.0,0.0,0.0,0.0,0.0,0.0,0.0,0.0,0.0,0.0,0.0,0.0,0.0,0.0,0.0,0.0,0.0,0.0,0.0,0.0,0.0,0.0,0.0,0.0,0.0,0.0,0.0,0.0,0.0,0.0,0.0,0.0,0.0,0.0,0.0,0.0,0.0,0.0,0.0,0.0,0.0,0.0,0.0,0.0,0.0,0.0,0.0,0.0,0.0,0.0,0.0,0.0,0.0,0.0,0.0,0.0,0.0,0.0,0.0,0.0,0.0,0.0,0.0,0.0,0.0,-1.1543,-1.1543,-1.1543,0.0,-1.1543,0.0,0.0,0.0,0.0,0.0,0.0,0.0,0.0,0.0,0.0,0.0,0.0,0.0,0.0,0.0,0.0,0.0,0.0,0.0,0.0,0.0,0.0,0.0,0.0,0.0,0.0,0.0,0.0,0.0,0.0,0.0,0.0,0.0,0.0,0.0,0.0,0.0,0.0,0.0,0.0,0.0,0.0,0.0,0.0,0.0,0.0,0.0,0.0,0.0,0.0,0.0,0.0,0.0,0.0,0.0,0.0,0.0,0.0,0.0,0.0,0.0,0.0,0.0,0.0,0.0,0.0,0.0,0.0,0.0,0.0,0.0,0.0,0.0,0.0,0.0,0.0,0.0,0.0,0.0,0.0,0.0,0.0,0.0,0.0,0.0,0.0,0.0,0.0,0.0,0.0,0.0,0.0,0.0,0.0,0.0,0.0,0.0,0.0,0.0,0.0,0.0,0.0,0.0,0.0,0.0,0.0,0.0,0.0,0.0,0.0,-1.1543,-1.1543,-1.1543,-1.1543,0.0,0.0,0.0,0.0,0.0,0.0,0.0,0.0,0.0,0.0,0.0,0.0,0.0,0.0,0.0,0.0,0.0,0.0,0.0,0.0,0.0,0.0,0.0,0.0,0.0,0.0,0.0,0.0,0.0,0.0,0.0,0.0,0.0,0.0,0.0,0.0,0.0,0.0,0.0,0.0,0.0,0.0,0.0,0.0,0.0,0.0,0.0,0.0,0.0,0.0,0.0,0.0,0.0,0.0,0.0,0.0,0.0,0.0,0.0,0.0,0.0,0.0,0.0,0.0,0.0,0.0,0.0,0.0,0.0,0.0,0.0,0.0,0.0,0.0,0.0,0.0,0.0,0.0,0.0,0.0,0.0,0.0,0.0,0.0,0.0,0.0,0.0,0.0,0.0,0.0,0.0,0.0,0.0,0.0,0.0,0.0,0.0,0.0,0.0,0.0,0.0,0.0,0.0,0.0,0.0,0.0,0.0,0.0,0.0,0.0,-1.1543,-1.1543,-1.1543,-1.1543,-1.1543,-1.1543,0.0,0.0,0.0,0.0,0.0,0.0,0.0,0.0,0.0,0.0,0.0,0.0,0.0,0.0,0.0,0.0,0.0,0.0,0.0,0.0,0.0,0.0,0.0,0.0,0.0,0.0,0.0,0.0,0.0,0.0,0.0,0.0,0.0,0.0,0.0,0.0,0.0,0.0,0.0,0.0,0.0,0.0,0.0,0.0,0.0,0.0,0.0,0.0,0.0,0.0,0.0,0.0,0.0,0.0,0.0,0.0,0.0,0.0,0.0,0.0,0.0,0.0,0.0,0.0,0.0,0.0,0.0,0.0,0.0,0.0,0.0,0.0,0.0,0.0,0.0,0.0,0.0,0.0,0.0,0.0,0.0,0.0,0.0,0.0,0.0,0.0,0.0,0.0,0.0,0.0,0.0,0.0,0.0,0.0,0.0,0.0,0.0,0.0,0.0,0.0,0.0,0.0,0.0,0.0,0.0,0.0,0.0,0.0,-1.1543,-1.1543,-1.1543,-1.1543,-1.1543,-1.1543,0.0,0.0,0.0,0.0,0.0,0.0,0.0,0.0,0.0,0.0,0.0,0.0,0.0,0.0,0.0,0.0,0.0,0.0,0.0,0.0,0.0,0.0,0.0,0.0,0.0,0.0,0.0,0.0,0.0,0.0,0.0,0.0,0.0,0.0,0.0,0.0,0.0,0.0,0.0,0.0,0.0,0.0,0.0,0.0,0.0,0.0,0.0,0.0,0.0,0.0,0.0,0.0,0.0,0.0,0.0,0.0,0.0,0.0,0.0,0.0,0.0,0.0,0.0,0.0,0.0,0.0,0.0,0.0,0.0,0.0,0.0,0.0,0.0,0.0,0.0,0.0,0.0,0.0,0.0,0.0,0.0,0.0,0.0,0.0,0.0,0.0,0.0,0.0,0.0,0.0,0.0,0.0,0.0,0.0,0.0,0.0,0.0,0.0,0.0,0.0,0.0,0.0,0.0,0.0,0.0,0.0,0.0,0.0,0.0,-1.1543,-1.1543,-1.1543,-1.1543,-1.1543,-1.1543,0.0,0.0,0.0,0.0,0.0,0.0,0.0,0.0,0.0,0.0,0.0,0.0,0.0,0.0,0.0,0.0,0.0,0.0,0.0,0.0,0.0,0.0,0.0,0.0,0.0,0.0,0.0,0.0,0.0,0.0,0.0,0.0,0.0,0.0,0.0,0.0,0.0,0.0,0.0,0.0,0.0,0.0,0.0,0.0,0.0,0.0,0.0,0.0,0.0,0.0,0.0,0.0,0.0,0.0,0.0,0.0,0.0,0.0,0.0,0.0,0.0,0.0,0.0,0.0,0.0,0.0,0.0,0.0,0.0,0.0,0.0,0.0,0.0,0.0,0.0,0.0,0.0,0.0,0.0,0.0,0.0,0.0,0.0,0.0,0.0,0.0,0.0,0.0,0.0,0.0,0.0,0.0,0.0,0.0,0.0,0.0,0.0,0.0,0.0,0.0,0.0,0.0,0.0,0.0,0.0,0.0,0.0,0.0,0.0,-1.0555,0.0,-0.9927,-1.0555,-1.056,-1.0827,0.0,0.0,0.0,0.0,0.0,0.0,0.0,0.0,0.0,0.0,0.0,0.0,0.0,0.0,0.0,0.0,0.0,0.0,0.0,0.0,0.0,0.0,0.0,0.0,0.0,0.0,0.0,0.0,0.0,0.0,0.0,0.0,0.0,0.0,0.0,0.0,0.0,0.0,0.0,0.0,0.0,0.0,0.0,0.0,0.0,0.0,0.0,0.0,0.0,0.0,0.0,0.0,0.0,0.0,0.0,0.0,0.0,0.0,0.0,0.0,0.0,0.0,0.0,0.0,0.0,0.0,0.0,0.0,0.0,0.0,0.0,0.0,0.0,0.0,0.0,0.0,0.0,0.0,0.0,0.0,0.0,0.0,0.0,0.0,0.0,0.0,0.0,0.0,0.0,0.0,0.0,0.0,0.0,0.0,0.0,0.0,0.0,0.0,0.0,0.0,0.0,0.0,0.0,0.0,0.0,0.0,0.0,0.0,-1.0377,-0.8587,-0.6799,-0.6799,-0.8498,-0.8676,-0.9571,0.0,0.0,0.0,0.0,0.0,0.0,0.0,0.0,0.0,0.0,0.0,0.0,0.0,0.0,0.0,0.0,0.0,0.0,0.0,0.0,0.0,0.0,0.0,0.0,0.0,0.0,0.0,0.0,0.0,0.0,0.0,0.0,0.0,0.0,0.0,0.0,0.0,0.0,0.0,0.0,0.0,0.0,0.0,0.0,0.0,0.0,0.0,0.0,0.0,0.0,0.0,0.0,0.0,0.0,0.0,0.0,0.0,0.0,0.0,0.0,0.0,0.0,0.0,0.0,0.0,0.0,0.0,0.0,0.0,0.0,0.0,0.0,0.0,0.0,0.0,0.0,0.0,0.0,0.0,0.0,0.0,0.0,0.0,0.0,0.0,0.0,0.0,0.0,0.0,0.0,0.0,0.0,0.0,0.0,0.0,0.0,0.0,0.0,0.0,0.0,0.0,0.0,0.0,0.0,0.0,0.0,0.0,0.0,0.0,-0.6531,-0.5996,-0.5996,-0.6621,-0.787,-0.8854,0.0,0.0,0.0,0.0,0.0,0.0,0.0,0.0,0.0,0.0,0.0,0.0,0.0,0.0,0.0,0.0,0.0,0.0,0.0,0.0,0.0,0.0,0.0,0.0,0.0,0.0,0.0,0.0,0.0,0.0,0.0,0.0,0.0,0.0,0.0,0.0,0.0,0.0,0.0,0.0,0.0,0.0,0.0,0.0,0.0,0.0,0.0,0.0,0.0,0.0,0.0,0.0,0.0,0.0,0.0,0.0,0.0,0.0,0.0,0.0,0.0,0.0,0.0,0.0,0.0,0.0,0.0,0.0,0.0,0.0,0.0,0.0,0.0,0.0,0.0,0.0,0.0,0.0,0.0,0.0,0.0,0.0,0.0,0.0,0.0,0.0,0.0,0.0,0.0,0.0,0.0,0.0,0.0,0.0,0.0,0.0,0.0,0.0,0.0,0.0,0.0,0.0,0.0,0.0,0.0,0.0,0.0,0.0,0.0,-0.3403,-0.3583,-0.3939,-0.4655,-0.6531,-0.7874,-0.8587,0.0,0.0,0.0,0.0,0.0,0.0,0.0,0.0,0.0,0.0,0.0,0.0,0.0,0.0,0.0,0.0,0.0,0.0,0.0,0.0,0.0,0.0,0.0,0.0,0.0,0.0,0.0,0.0,0.0,0.0,0.0,0.0,0.0,0.0,0.0,0.0,0.0,0.0,0.0,0.0,0.0,0.0,0.0,0.0,0.0,0.0,0.0,0.0,0.0,0.0,0.0,0.0,0.0,0.0,0.0,0.0,0.0,0.0,0.0,0.0,0.0,0.0,0.0,0.0,0.0,0.0,0.0,0.0,0.0,0.0,0.0,0.0,0.0,0.0,0.0,0.0,0.0,0.0,0.0,0.0,0.0,0.0,0.0,0.0,0.0,0.0,0.0,0.0,0.0,0.0,0.0,0.0,0.0,0.0,0.0,0.0,0.0,0.0,0.0,0.0,0.0,0.0,0.0,0.0,0.0,0.0,0.0,0.0,0.0,0.0,-0.0897,-0.2689,-0.4655,-0.6531,0.0,0.0,0.0,0.0,0.0,0.0,0.0,0.0,0.0,0.0,0.0,0.0,0.0,0.0,0.0,0.0,0.0,0.0,0.0,0.0,0.0,0.0,0.0,0.0,0.0,0.0,0.0,0.0,0.0,0.0,0.0,0.0,0.0,0.0,0.0,0.0,0.0,0.0,0.0,0.0,0.0,0.0,0.0,0.0,0.0,0.0,0.0,0.0,0.0,0.0,0.0,0.0,0.0,0.0,0.0,0.0,0.0,0.0,0.0,0.0,0.0,0.0,0.0,0.0,0.0,0.0,0.0,0.0,0.0,0.0,0.0,0.0,0.0,0.0,0.0,0.0,0.0,0.0,0.0,0.0,0.0,0.0,0.0,0.0,0.0,0.0,0.0,0.0,0.0,0.0,0.0,0.0,0.0,0.0,0.0,0.0,0.0,0.0,0.0,0.0,0.0,0.0,0.0,0.0,0.0,0.0,0.0,0.0,0.0,0.0,0.0,-0.0269,-0.0807,-0.3939,-0.5906,0.0,0.0,0.0,0.0,0.0,0.0,0.0,0.0,0.0,0.0,0.0,0.0,0.0,0.0,0.0,0.0,0.0,0.0,0.0,0.0,0.0,0.0,0.0,0.0,0.0,0.0,0.0,0.0,0.0,0.0,0.0,0.0,0.0,0.0,0.0,0.0,0.0,0.0,0.0,0.0,0.0,0.0,0.0,0.0,0.0,0.0,0.0,0.0,0.0,0.0,0.0,0.0,0.0,0.0,0.0,0.0,0.0,0.0,0.0,0.0,0.0,0.0,0.0,0.0,0.0,0.0,0.0,0.0,0.0,0.0,0.0,0.0,0.0,0.0,0.0,0.0,0.0,0.0,0.0,0.0,0.0,0.0,0.0,0.0,0.0,0.0,0.0,0.0,0.0,0.0,0.0,0.0,0.0,0.0,0.0,0.0,0.0,0.0,0.0,0.0,0.0,0.0,0.0,0.0,0.0,0.0,0.0,0.0,0.0,0.0,0.0,0.0,0.0,-0.2956,-0.4923,0.0,0.0,0.0,0.0,0.0,0.0,0.0,0.0,0.0,0.0,0.0,0.0,0.0,0.0,0.0,0.0,0.0,0.0,0.0,0.0,0.0,0.0,0.0,0.0,0.0,0.0,0.0,0.0,0.0,0.0,0.0,0.0,0.0,0.0,0.0,0.0,0.0,0.0,0.0,0.0,0.0,0.0,0.0,0.0,0.0,0.0,0.0,0.0,0.0,0.0,0.0,0.0,0.0,0.0,0.0,0.0,0.0,0.0,0.0,0.0,0.0,0.0,0.0,0.0,0.0,0.0,0.0,0.0,0.0,0.0,0.0,0.0,0.0,0.0,0.0,0.0,0.0,0.0,0.0,0.0,0.0,0.0,0.0,0.0,0.0,0.0,0.0,0.0,0.0,0.0,0.0,0.0,0.0,0.0,0.0,0.0,0.0,0.0,0.0,0.0,0.0,0.0,0.0,0.0,0.0,0.0,0.0,0.0,0.0,0.0,0.0,0.0,0.0,-0.1883,-0.3762,0.0,0.0,0.0,0.0,0.0,0.0,0.0,0.0,0.0,0.0,0.0,0.0,0.0,0.0,0.0,0.0,0.0,0.0,0.0,0.0,0.0,0.0,0.0,0.0,0.0,0.0,0.0,0.0,0.0,0.0,0.0,0.0,0.0,0.0,0.0,0.0,0.0,0.0,0.0,0.0,0.0,0.0,0.0,0.0,0.0,0.0,0.0,0.0,0.0,0.0,0.0,0.0,0.0,0.0,0.0,0.0,0.0,0.0,0.0,0.0,0.0,0.0,0.0,0.0,0.0,0.0,0.0,0.0,0.0,0.0,0.0,0.0,0.0,0.0,0.0,0.0,0.0,0.0,0.0,0.0,0.0,0.0,0.0,0.0,0.0,0.0,0.0,0.0,0.0,0.0,0.0,0.0,0.0,0.0,0.0,0.0,0.0,0.0,0.0,0.0,0.0,0.0,0.0,0.0,0.0,0.0,0.0,0.0,0.0,0.0,0.0,0.0,0.0,-0.1883,-0.3761,0.0,0.0,0.0,0.0,0.0,0.0,0.0,0.0,0.0,0.0,0.0,0.0,0.0,0.0,0.0,0.0,0.0,0.0,0.0,0.0,0.0,0.0,0.0,0.0,0.0,0.0,0.0,0.0,0.0,0.0,0.0,0.0,0.0,0.0,0.0,0.0,0.0,0.0,0.0,0.0,0.0,0.0,0.0,0.0,0.0,0.0,0.0,0.0,-1.1543,0.0,0.0,0.0,0.0,0.0,0.0,0.0,0.0,0.0,0.0,0.0,0.0,0.0,0.0,0.0,0.0,0.0,0.0,0.0,0.0,0.0,0.0,0.0,0.0,0.0,0.0,0.0,0.0,0.0,0.0,0.0,0.0,0.0,0.0,0.0,0.0,0.0,0.0,0.0,0.0,0.0,0.0,0.0,0.0,0.0,0.0,0.0,0.0,0.0,0.0,0.0,0.0,0.0,0.0,0.0,0.0,0.0,0.0,0.0,0.0,0.0,0.0,0.0,0.0,-0.0987,-0.2419,0.0,0.0,0.0,0.0,0.0,0.0,0.0,0.0,0.0,0.0,0.0,0.0,0.0,0.0,0.0,0.0,0.0,0.0,0.0,0.0,0.0,0.0,0.0,0.0,0.0,0.0,0.0,0.0,0.0,0.0,0.0,0.0,0.0,0.0,0.0,0.0,0.0,0.0,0.0,0.0,0.0,0.0,0.0,0.0,0.0,0.0,0.0,0.0,0.0,0.0,0.0,0.0,0.0,0.0,0.0,0.0,0.0,0.0,0.0,0.0,0.0,0.0,0.0,0.0,0.0,0.0,0.0,0.0,0.0,0.0,0.0,0.0,0.0,0.0,0.0,0.0,0.0,0.0,0.0,0.0,0.0,0.0,0.0,0.0,0.0,0.0,0.0,0.0,0.0,0.0,0.0,0.0,0.0,0.0,0.0,0.0,0.0,0.0,0.0,0.0,0.0,0.0,0.0,0.0,0.0,0.0,0.0,0.0,0.0,0.0,0.0,0.0,0.0,0.0,-0.0718,-0.242,0.0,0.0,0.0,0.0,0.0,0.0,0.0,0.0,0.0,0.0,0.0,0.0,0.0,0.0,0.0,0.0,0.0,0.0,0.0,0.0,0.0,0.0,0.0,0.0,0.0,0.0,0.0,0.0,0.0,0.0,0.0,0.0,0.0,0.0,0.0,0.0,0.0,0.0,-1.1099,-0.9393,0.0,0.0,0.0,0.0,0.0,0.0,0.0,0.0,-0.9838,0.0,0.0,0.0,0.0,0.0,0.0,0.0,0.0,0.0,0.0,0.0,0.0,0.0,0.0,0.0,0.0,0.0,0.0,0.0,0.0,0.0,0.0,0.0,0.0,0.0,0.0,0.0,0.0,0.0,0.0,0.0,0.0,0.0,0.0,0.0,0.0,0.0,0.0,0.0,0.0,0.0,0.0,0.0,0.0,0.0,0.0,0.0,0.0,0.0,0.0,0.0,0.0,0.0,0.0,0.0,0.0,0.0,0.0,0.0,0.0,0.0,0.0,0.0,0.0,-0.018,-0.0538,0.0,0.0,0.0,0.0,0.0,0.0,0.0,0.0,0.0,0.0,0.0,0.0,0.0,0.0,0.0,0.0,0.0,0.0,0.0,0.0,0.0,0.0,0.0,0.0,0.0,0.0,0.0,0.0,0.0,0.0,0.0,0.0,0.0,0.0,0.0,0.0,0.0,0.0,0.0,-0.7424,-0.6174,0.0,0.0,0.0,0.0,0.0,0.0,0.0,0.0,-0.9037,0.0,0.0,0.0,0.0,0.0,0.0,0.0,0.0,0.0,0.0,0.0,0.0,0.0,0.0,0.0,0.0,0.0,0.0,0.0,0.0,0.0,0.0,0.0,0.0,0.0,0.0,0.0,0.0,0.0,0.0,0.0,0.0,0.0,0.0,0.0,0.0,0.0,0.0,0.0,0.0,0.0,0.0,0.0,0.0,0.0,0.0,0.0,0.0,0.0,0.0,0.0,0.0,0.0,0.0,0.0,0.0,0.0,0.0,0.0,0.0,0.0,0.0,0.0,0.0,0.0,0.0,0.0,0.0,0.0,0.0,0.0,0.0,0.0,0.0,0.0,0.0,0.0,0.0,0.0,0.0,0.0,0.0,0.0,0.0,0.0,0.0,0.0,0.0,0.0,0.0,0.0,0.0,0.0,0.0,0.0,0.0,0.0,0.0,0.0,0.0,0.0,0.0,0.0,0.0,-0.546,-0.4118,-0.385,0.0,0.0,0.0,0.0,0.0,0.0,-0.5276,-0.599,0.0,0.0,0.0,0.0,0.0,0.0,0.0,0.0,0.0,0.0,0.0,0.0,0.0,0.0,0.0,0.0,0.0,0.0,0.0,0.0,0.0,0.0,0.0,0.0,0.0,0.0,0.0,0.0,0.0,0.0,0.0,0.0,0.0,0.0,0.0,0.0,0.0,0.0,0.0,0.0,0.0,0.0,0.0,0.0,0.0,0.0,0.0,0.0,0.0,0.0,0.0,0.0,0.0,0.0,0.0,0.0,0.0,0.0,0.0,0.0,0.0,0.0,0.0,0.0,0.0,0.0,0.0,0.0,0.0,0.0,0.0,0.0,0.0,0.0,0.0,0.0,0.0,0.0,0.0,0.0,0.0,0.0,0.0,0.0,0.0,0.0,0.0,0.0,0.0,0.0,0.0,0.0,0.0,0.0,0.0,0.0,0.0,0.0,0.0,0.0,0.0,0.0,0.0,0.0,0.0,-0.1972,-0.1613,-0.1792,0.0,0.0,0.0,0.0,-0.1613,-0.2685,0.0,0.0,0.0,0.0,0.0,0.0,0.0,0.0,0.0,0.0,0.0,0.0,0.0,0.0,0.0,0.0,0.0,0.0,0.0,0.0,0.0,0.0,0.0,0.0,0.0,0.0,0.0,0.0,0.0,0.0,0.0,0.0,0.0,0.0,0.0,0.0,0.0,0.0,0.0,0.0,0.0,0.0,0.0,0.0,0.0,0.0,0.0,0.0,0.0,0.0,0.0,0.0,0.0,0.0,0.0,0.0,0.0,0.0,0.0,0.0,0.0,0.0,0.0,0.0,0.0,0.0,0.0,0.0,0.0,0.0,0.0,0.0,0.0,0.0,0.0,0.0,0.0,0.0,0.0,0.0,0.0,0.0,0.0,0.0,0.0,0.0,0.0,0.0,0.0,0.0,0.0,0.0,0.0,0.0,0.0,0.0,0.0,0.0,0.0,0.0,0.0,0.0,0.0,0.0,0.0,0.0,0.0269,0.0359,0.0718,0.0808,0.0,0.0,0.0718,0.0987,-0.0538,0.0,0.0,0.0,0.0,0.0,0.0,0.0,0.0,0.0,0.0,0.0,0.0,0.0,0.0,0.0,0.0,0.0,0.0,0.0,0.0,0.0,0.0,0.0,0.0,0.0,0.0,0.0,0.0,0.0,0.0,0.0,0.0,0.0,0.0,0.0,0.0,0.0,0.0,0.0,0.0,0.0,0.0,0.0,0.0,0.0,0.0,0.0,0.0,0.0,0.0,0.0,0.0,0.0,0.0,0.0,0.0,0.0,0.0,0.0,0.0,0.0,0.0,0.0,0.0,0.0,0.0,0.0,0.0,0.0,0.0,0.0,0.0,0.0,0.0,0.0,0.0,0.0,0.0,0.0,0.0,0.0,0.0,0.0,0.0,0.0,0.0,0.0,0.0,0.0,0.0,0.0,0.0,0.0,0.0,0.0,0.0,0.0,0.0,0.0,0.0,0.0,0.0,0.0,0.0,0.0,0.0,0.0,0.1436,0.143,0.0,0.0,0.0,0.1767,0.1778,0.0,0.0,0.0,0.0,0.0,0.0,0.0,0.0,0.0,0.0,0.0,0.0,0.0,0.0,0.0,0.0,0.0,0.0,0.0,0.0,0.0,0.0,0.0,0.0,0.0,0.0,0.0,0.0,0.0,0.0,0.0,0.0,0.0,0.0,0.0,0.0,0.0,0.0,0.0,0.0,0.0,0.0,0.0,0.0,0.0,0.0,0.0,0.0,0.0,0.0,0.0,0.0,0.0,0.0,0.0,0.0,0.0,0.0,0.0,0.0,0.0,0.0,0.009,0.018,0.018,0.0,0.0,0.0,0.0,0.0,0.0,0.0,0.0,0.0,0.0,0.0,0.0,0.0,0.0,0.0,0.0,0.0,0.0,0.0,0.0,0.0,0.0,0.0,0.0,0.0,0.0,0.0,-0.5728,0.0,0.0,0.0,0.0,0.0,0.0,0.0,0.0,0.0,0.0,0.0,0.0,0.0,0.0,0.1345,0.2058,0.1954,0.1859,0.0,0.0,0.2268,0.2285,0.2535,0.2781,0.0,0.0,0.0,0.0,0.0,0.0,0.0,0.0,0.0,0.0,0.0,0.0,0.0,0.0,0.0,0.0,0.0,0.0,0.0,0.0,0.0,0.0,0.0,0.0,0.0,0.0,0.0,0.0,0.0,0.0,0.0,0.0,0.0,0.0,0.0,0.0,0.0,0.0,0.0,0.0,0.0,0.0,0.0,0.0,0.0,0.0,0.0,0.0,0.0,0.0,0.0,0.0,0.0,0.0,0.0,0.0,0.0,0.0,0.0,0.0,0.0184,0.0638,0.0638,0.0911,0.0,0.0,0.0,0.0,0.0,0.0,0.0,0.0,0.0,0.0,0.0,0.0,0.0,0.0,0.0,0.0,0.0,0.0,0.0,0.0,0.0,0.0,0.0,0.0,0.0,0.0,0.0,0.0,0.0,0.0,0.0,0.0,0.0,0.0,0.0,0.0,0.0,0.0,0.0,0.0,0.0,0.2058,0.2126,0.2475,0.2731,0.0,0.2787,0.2784,0.2785,0.2785,0.2773,0.2746,0.0,0.0,0.0,0.0,0.0,0.0,0.0,0.0,0.0,0.0,0.0,0.0,0.0,0.0,0.0,0.0,0.0,0.0,0.0,0.0,0.0,0.0,0.0,0.0,0.0,0.0,0.0,0.0,0.0,0.0,0.0,0.0,0.0,0.0,0.0,0.0,0.0,0.0,0.0,0.0,0.0,0.0,0.0,0.0,0.0,0.0,0.0,0.0,0.0,0.0,0.0,0.0,0.0,0.0,0.0,0.0,0.0185,0.0463,0.0463,0.0739,0.1197,0.1197,0.1286,0.0,0.0,0.0,0.0,0.0,0.0,0.0,0.0,0.0,0.0,0.0,0.0,0.0,0.0,0.0,0.0,0.0,0.0,0.0,0.0,0.0,0.0,0.0,0.0,0.0,0.0,0.0,0.0,-0.215,-0.2061,-0.1792,0.0,0.0,0.0,0.0,0.0,0.0,0.0,0.0,0.0,0.0,0.2126,0.2103,0.2436,0.0,0.0,0.2751,0.2733,0.2752,0.2739,0.2724,0.2712,0.271,0.0,0.0,0.0,0.0,0.0,0.0,0.0,0.0,0.0,0.0,0.0,0.0,0.0,0.0,0.0,0.0,0.0,0.0,0.0,0.0,0.0,0.0,0.0,0.0,0.0,0.0,0.0,0.0,0.0,0.0,0.0,0.0,0.0,0.0,0.0,0.0,0.0,0.0,0.0,0.0,0.0,0.0,0.0,0.0,0.0,0.0,0.0,0.0,0.0,0.0,0.0,0.0,0.0,0.0,0.0187,0.0467,0.0747,0.0934,0.1213,0.1675,0.1674,0.1762,0.0,0.0,0.0,0.0,0.0,0.0,0.0,0.0,0.0,0.0,0.0,0.0,0.0,0.0,0.0,0.0,0.0,0.0,0.0,0.0,0.0,0.0,0.0,0.0,0.0,0.0,0.0,0.0,0.0449,0.0539,0.0898,0.0,0.0,0.0,0.0,0.0,0.0,0.0,0.0,0.0,0.0,0.2279,0.2253,0.2493,0.2742,0.2754,0.272,0.2699,0.2721,0.2706,0.2692,0.2692,0.0,0.0,0.0,0.0,0.0,0.0,0.0,0.0,0.0,0.0,0.0,0.0,0.0,0.0,0.0,0.0,0.0,0.0,0.0,0.0,0.0,0.0,0.0,0.0,0.0,0.0,0.0,0.0,0.0,0.0,0.0,0.0,0.0,0.0,0.0,0.0,0.0,0.0,0.0,0.0,0.0,0.0,0.0,0.0,0.0,0.0,0.0,0.0,0.0,0.0,0.0,0.0,0.0,0.0,0.0,0.0476,0.0762,0.0857,0.1239,0.1706,0.2161,0.216,0.2441,0.2909,0.0,0.0,0.0,0.0,0.0,0.0,0.0,0.0,0.0,0.0,0.0,0.0,0.0,0.0,0.0,0.0,0.0,0.0,0.0,0.0,0.0,0.0,0.0,0.0,0.0,0.0,0.1347,0.1347,0.1347,0.0,0.0,0.0,0.0,0.0,0.0,0.0,0.0,0.0,0.2031,0.2451,0.2773,0.2657,0.2652,0.2728,0.2701,0.2694,0.2692,0.2694,0.2694,0.2692,0.0,0.0,0.0,0.0,0.0,0.0,0.0,0.0,0.0,0.0,0.0,0.0,0.0,0.0,0.0,0.0,0.0,0.0,0.0,0.0,0.0,0.0,0.0,0.0,0.0,0.0,0.0,0.0,0.0,0.0,0.0,0.0,0.0,0.0,0.0,0.0,0.0,0.0,0.0,0.0,0.0,0.0,0.0,0.0,0.0,0.0,0.0,0.0,0.0,0.0,0.0,0.0,0.0,0.0,0.0,0.0,0.0191,0.0477,0.0763,0.0954,0.1428,0.2277,0.2277,0.2562,0.3037,0.0,0.0,0.0,0.0,0.0,0.0,0.0,0.0,0.0,0.0,0.0,0.0,0.0,0.0,0.0,0.0,0.0,0.0,0.0,0.0,0.0,0.0,0.0,0.0,0.0,0.1436,0.0,0.0,0.0,0.0,0.0,0.0,0.0,0.0,0.0,0.0,0.2025,0.2093,0.2078,0.2517,0.2678,0.229,0.247,0.2727,0.0,0.0,0.0,0.0,0.0,0.0,0.0,0.0,0.0,0.0,0.0,0.0,0.0,0.0,0.2692,0.2692,0.2692,0.2692,0.2692,0.0,0.0,0.0,0.0,0.0,0.0,0.0,0.0,0.0,0.0,0.0,0.0,0.0,0.0,0.0191,0.0,0.0,0.0,0.0,0.0,0.0,0.0,0.0,0.0,0.0,0.0,0.0,0.0,0.0,0.0,0.0,0.0,0.0,0.0,0.0,0.0,0.0,0.0,0.0,0.0,0.0,0.0,0.0,0.0191,0.0477,0.0763,0.1144,0.1621,0.2288,0.2479,0.2766,0.3052,0.3003,0.2972,0.0,0.0,0.0,0.0,0.0,0.0,0.0,0.0,0.0,0.0,0.0,0.0,0.0,0.0,0.0,0.0,0.0,0.0,0.0,0.0,0.0,0.0,0.0,0.1707,0.0,0.0,0.0,0.0,0.0,0.0,0.0,0.0,0.0,0.2401,0.2378,0.2355,0.2339,0.2603,0.2678,0.229,0.0,0.0,0.0,0.0,0.0,0.0,0.0,0.2692,0.2692,0.2692,0.2692,0.2692,0.2692,0.2692,0.2692,0.0,0.0,0.2692,0.2692,0.2692,0.2692,0.266,0.2646,0.2684,0.2661,0.2645,0.0,0.0,0.0,0.0,0.1526,0.0,0.0,0.0,0.0763,0.0572,0.0,0.0,0.0,0.0,0.0,0.0,0.0,0.0,0.0,0.0,0.0,0.0,0.0,0.0,0.0,0.0,0.0,0.0,0.0,0.0572,0.0,0.0,0.0,0.0,0.0,0.0,0.0,0.0,0.0477,0.0763,0.0858,0.1716,0.2288,0.2288,0.2766,0.3148,0.3051,0.3024,0.2994,0.2964,0.2934,0.0,0.0,0.0,0.0,0.0,0.0,0.0,0.0,0.0,0.0,0.0,0.0,0.0,0.0,0.0,0.0,0.0,0.0,0.0,0.0,0.2245,0.0,0.0,0.0,0.0,0.0,0.0,0.0,0.0,0.0,0.2841,0.287,0.2845,0.2827,0.2826,0.0,0.0,0.0,0.0,0.2731,0.2701,0.2695,0.2697,0.2697,0.2695,0.2694,0.2694,0.0,0.0,0.2692,0.2692,0.2692,0.2692,0.2692,0.2692,0.2692,0.2692,0.2692,0.2692,0.269,0.2691,0.2692,0.269,0.2688,0.2193,0.0,0.0,0.0,0.0,0.1526,0.143,0.1335,0.1335,0.124,0.1049,0.0668,0.0,0.0,0.0,0.0,0.0,0.0,0.0191,0.0572,0.0191,0.0191,0.0572,0.0191,0.0,0.0,0.0,0.0,0.0,0.0572,0.0668,0.0572,0.0,0.0,0.0,0.0,0.0,0.0,0.0095,0.0382,0.0763,0.1049,0.1621,0.2288,0.2862,0.3148,0.3148,0.3043,0.3025,0.2995,0.2965,0.0,0.0,0.0,0.0,0.0,0.0,0.0,0.0,0.0,0.0,0.0,0.0,0.0,0.0,0.0,0.0,0.0,0.0,0.0,0.2694,0.2425,0.2335,0.0,0.0,0.0,0.0,0.0,0.0,0.0,0.0,0.0,0.2872,0.2829,0.2796,0.0,0.0,0.2804,0.2774,0.2789,0.2792,0.2762,0.2757,0.0,0.2757,0.2739,0.2725,0.2725,0.2707,0.2692,0.2692,0.2692,0.2692,0.2692,0.2692,0.2692,0.2692,0.2692,0.2692,0.2692,0.2692,0.2692,0.2692,0.2692,0.2692,0.2288,0.1526,0.2002,0.2002,0.1812,0.1812,0.1716,0.1526,0.1335,0.1144,0.0858,0.0572,0.0477,0.0477,0.0095,0.0,0.0,0.0,0.0191,0.0477,0.0095,0.0191,0.0477,0.0095,0.0,0.0,0.0,0.0,0.0,0.0286,0.0572,0.0763,0.0,0.0382,0.0477,0.0191,0.0,0.0,0.0191,0.0477,0.0763,0.114,0.1706,0.2559,0.2928,0.3017,0.3016,0.3016,0.3007,0.299,0.2971,0.2947,0.0,0.0,0.0,0.0,0.0,0.0,0.0,0.0,0.0,0.0,0.0,0.2604,0.2604,0.0,0.0,0.0,0.2604,0.2694,0.2874,0.2425,0.0,0.0,0.0,0.0,0.0,0.0,0.0,0.2823,0.2852,0.2874,0.2874,0.2842,0.2819,0.2819,0.2834,0.2836,0.2806,0.0,0.2818,0.2788,0.2784,0.2784,0.2784,0.2767,0.2757,0.2757,0.2731,0.2712,0.271,0.2702,0.2692,0.2692,0.2692,0.2692,0.2692,0.2692,0.2692,0.2692,0.2692,0.2692,0.2692,0.2692,0.2692,0.1907,0.1526,0.2576,0.2671,0.2193,0.2193,0.2002,0.1526,0.1049,0.0572,0.0095,0.0095,0.0,0.0,0.0,0.0,0.0,0.0,0.0,0.0095,0.0,0.0,0.0095,0.0,0.0,0.0,0.0,0.0,0.0,0.0095,0.0286,0.0763,0.0763,0.0572,0.0095,0.0095,0.0095,0.0,0.0572,0.0858,0.0952,0.1792,0.2533,0.3003,0.2976,0.2962,0.2962,0.2962,0.2962,0.2962,0.296,0.2945,0.2919,0.0,0.0,0.0,0.0,0.0,0.0,0.0,0.0,0.0,0.0,0.0,0.0,0.0,0.0,0.0,0.2245,0.0,0.2874,0.2515,0.0,0.0,0.0,0.2874,0.2874,0.2874,0.2874,0.2874,0.0,0.0,0.2874,0.2874,0.2874,0.2874,0.2874,0.2864,0.2837,0.2833,0.2822,0.2797,0.2792,0.2792,0.2796,0.2788,0.2777,0.2769,0.2752,0.2647,0.2644,0.271,0.2694,0.2687,0.2688,0.2686,0.2686,0.268,0.2684,0.2682,0.2688,0.2692,0.2692,0.2692,0.2692,0.143,0.1049,0.1621,0.1812,0.1716,0.1716,0.1621,0.1526,0.1335,0.124,0.1144,0.0763,0.0382,0.0,0.0,0.0,0.0,0.0,0.0191,0.0572,0.0191,0.0191,0.0572,0.0191,0.0,0.0,0.0,0.0,0.0,0.0382,0.0668,0.0763,0.0763,0.0763,0.0668,0.0572,0.0572,0.0572,0.1049,0.152,0.1886,0.252,0.2879,0.2972,0.2965,0.2962,0.2962,0.2962,0.2962,0.2961,0.2939,0.2923,0.2916,0.2896,0.0,0.0,0.0,0.0,0.0,0.0,0.0,0.0,0.0,0.2784,0.2694,0.0,0.2694,0.0,0.2694,0.2784,0.2874,0.2784,0.0,0.0,0.2874,0.2874,0.2874,0.2874,0.2874,0.2874,0.2874,0.2874,0.2874,0.2874,0.2874,0.2874,0.2874,0.2871,0.2864,0.2863,0.2861,0.2853,0.2849,0.2852,0.2845,0.2812,0.2769,0.2721,0.2709,0.2703,0.2703,0.2698,0.2686,0.2664,0.2658,0.2649,0.263,0.2623,0.2624,0.2627,0.266,0.2692,0.2692,0.2691,0.2691,0.0858,0.0477,0.0763,0.0859,0.0858,0.1049,0.1144,0.1144,0.0954,0.0859,0.0859,0.0572,0.0286,0.0,0.0,0.0,0.0,0.0,0.0191,0.0382,0.0095,0.0191,0.0382,0.0095,0.0,0.0,0.0,0.0,0.0,0.0572,0.0763,0.0763,0.1049,0.1144,0.1144,0.0858,0.0858,0.1144,0.1614,0.2073,0.252,0.2865,0.2942,0.2941,0.2928,0.2923,0.2923,0.2923,0.2928,0.2939,0.2926,0.2916,0.2916,0.2901,0.2887,0.0,0.0,0.0,0.0,0.0,0.0,0.0,0.0,0.0,0.0,0.0,0.2874,0.2874,0.2874,0.2874,0.2874,0.2874,0.2874,0.2874,0.2874,0.2874,0.2874,0.2874,0.2874,0.2874,0.2874,0.2874,0.2874,0.2874,0.2874,0.2874,0.2874,0.2874,0.2874,0.2874,0.2874,0.2874,0.2863,0.2848,0.2837,0.2806,0.2772,0.274,0.2721,0.2713,0.2712,0.2702,0.2687,0.2671,0.2668,0.2662,0.2645,0.263,0.2623,0.2624,0.2637,0.265,0.2652,0.2653,0.2653,0.0763,0.0095,0.0095,0.0095,0.0,0.0477,0.0668,0.0668,0.0191,0.0,0.0,0.0,0.0,0.0,0.0,0.0,0.0,0.0,0.0,0.0,0.0,0.0,0.0095,0.0,0.0,0.0095,0.0095,0.0095,0.0095,0.0668,0.0954,0.1049,0.143,0.1621,0.1716,0.1238,0.1236,0.171,0.207,0.2516,0.2957,0.2926,0.2911,0.2909,0.2887,0.2874,0.2874,0.2874,0.2885,0.2909,0.2911,0.2911,0.2911,0.2911,0.29,0.0,0.2874,0.0,0.0,0.0,0.0,0.0,0.0,0.0,0.0,0.2874,0.2874,0.2874,0.2874,0.2874,0.2874,0.2874,0.2874,0.2874,0.2874,0.2874,0.2874,0.2874,0.2874,0.2874,0.2874,0.2874,0.2874,0.2874,0.2874,0.2874,0.2874,0.2874,0.2874,0.287,0.2866,0.2868,0.2842,0.2814,0.2788,0.2778,0.2774,0.2767,0.2744,0.2648,0.2728,0.2709,0.2691,0.2686,0.2682,0.2682,0.2682,0.2656,0.2558,0.2554,0.262,0.2607,0.2607,0.2607,0.2601,0.2191,0.0668,0.0668,0.0382,0.0,0.0095,0.0191,0.0191,0.0,0.0,0.0,0.0,0.0,0.0,0.0,0.0,0.0,0.0,0.0,0.0,0.0,0.0286,0.0572,0.0191,0.0286,0.0668,0.0668,0.0668,0.0668,0.1621,0.2002,0.2002,0.2098,0.2384,0.2765,0.0,0.0,0.0,0.2765,0.2838,0.2924,0.2897,0.2882,0.2882,0.2876,0.0,0.2874,0.2874,0.2876,0.2882,0.2882,0.0,0.0,0.0,0.0,0.0,0.0,0.0,0.0,0.0,0.0,0.0,0.2871,0.2874,0.2874,0.2874,0.2874,0.2874,0.2874,0.2874,0.2874,0.2874,0.2874,0.2874,0.2874,0.2874,0.2874,0.2874,0.2874,0.2874,0.2874,0.2874,0.2874,0.2874,0.2874,0.2874,0.2874,0.2874,0.2874,0.2855,0.2838,0.2836,0.2815,0.2782,0.2751,0.2748,0.2744,0.2716,0.2706,0.2703,0.2706,0.2702,0.2684,0.2667,0.2656,0.265,0.2628,0.2613,0.2617,0.2612,0.2607,0.2601,0.2601,0.2601,0.2601,0.4373,0.2284,0.2284,0.1429,0.0,0.0,0.0,0.0,0.0,0.0,0.0,0.0,0.0,0.0,0.0,0.0,0.0,0.0,0.0,0.0,0.0,0.0191,0.0382,0.0095,0.0286,0.0763,0.0572,0.0668,0.1144,0.1621,0.2002,0.2288,0.2576,0.2862,0.3051,0.2739,0.2705,0.2939,0.2924,0.2909,0.2896,0.2881,0.2874,0.2874,0.2874,0.0,0.0,0.0,0.0,0.0,0.0,0.0,0.0,0.2874,0.0,0.2874,0.2874,0.2874,0.2874,0.2874,0.2874,0.2874,0.2874,0.2874,0.2874,0.2874,0.2874,0.2874,0.2874,0.2874,0.2874,0.2874,0.2874,0.2874,0.2874,0.2874,0.2874,0.2874,0.2874,0.2874,0.2874,0.2874,0.2874,0.2874,0.2874,0.2874,0.2874,0.2874,0.2874,0.2861,0.2846,0.2831,0.2818,0.2795,0.2767,0.2761,0.2757,0.274,0.2737,0.2737,0.2737,0.2737,0.2732,0.2717,0.2714,0.2707,0.2694,0.268,0.2669,0.2667,0.2657,0.2647,0.2643,0.2612,0.2575,0.6553,0.3993,0.3898,0.238,0.0,0.0,0.0,0.0,0.0,0.0,0.0,0.0,0.0,0.0,0.0,0.0,0.0,0.0,0.0,0.0,0.0,0.0095,0.0095,0.0095,0.0286,0.0763,0.0477,0.0668,0.1335,0.1621,0.1907,0.2288,0.2862,0.305,0.3043,0.302,0.2979,0.2927,0.2924,0.2913,0.289,0.289,0.2887,0.2882,0.2882,0.2879,0.2874,0.2874,0.2874,0.2874,0.2874,0.2874,0.2874,0.2874,0.2874,0.2874,0.2874,0.2874,0.2874,0.2874,0.2874,0.2874,0.2874,0.2874,0.2874,0.2874,0.2874,0.2874,0.2874,0.2874,0.2874,0.2874,0.2874,0.2874,0.2874,0.2874,0.2874,0.2874,0.2874,0.2874,0.2874,0.2874,0.2874,0.2874,0.2874,0.2874,0.2874,0.2874,0.2874,0.2867,0.2849,0.2823,0.2812,0.2808,0.2791,0.2782,0.2784,0.278,0.278,0.2784,0.2784,0.2784,0.2784,0.2777,0.2784,0.278,0.278,0.2757,0.2747,0.2746,0.2727,0.2707,0.2695,0.2643,0.2586,0.836,0.447,0.447,0.2761,0.0,0.0,0.0,0.0,0.0,0.0,0.0,0.0,0.0,0.0,0.0,0.0,0.0,0.0,0.0,0.0,0.0,0.0286,0.0668,0.0191,0.0286,0.0763,0.1144,0.1144,0.1049,0.2193,0.2671,0.2384,0.2862,0.304,0.3014,0.3009,0.299,0.2956,0.2954,0.2953,0.2949,0.2949,0.2936,0.2911,0.2911,0.2898,0.2875,0.2875,0.2874,0.2874,0.2874,0.2874,0.2874,0.2875,0.2874,0.2874,0.2874,0.2874,0.2874,0.2874,0.2874,0.2874,0.2874,0.2874,0.2874,0.2874,0.2874,0.2874,0.2874,0.2874,0.2874,0.2874,0.2874,0.2874,0.2874,0.2874,0.2874,0.2874,0.2874,0.2874,0.2874,0.2874,0.2874,0.2874,0.2874,0.2874,0.2874,0.2874,0.2871,0.2852,0.2823,0.2797,0.2789,0.2788,0.2791,0.2784,0.2789,0.2784,0.2787,0.2791,0.2791,0.2792,0.2791,0.2787,0.2791,0.2789,0.2787,0.2781,0.278,0.278,0.2773,0.2763,0.2743,0.2718,0.2683,1.0158,0.5987,0.5797,0.3521,0.0,0.0,0.0,0.0,0.0,0.0,0.0,0.0,0.0,0.0,0.0,0.0,0.0,0.0,0.0,0.0,0.0,0.0095,0.0286,0.0095,0.0286,0.0763,0.0763,0.0954,0.1621,0.2002,0.2384,0.2671,0.2957,0.3046,0.3032,0.3032,0.3024,0.301,0.2979,0.2962,0.2962,0.2962,0.2954,0.2941,0.2941,0.2935,0.2921,0.2921,0.2921,0.2921,0.2921,0.2915,0.2898,0.2897,0.289,0.2875,0.2874,0.2874,0.2874,0.2874,0.2874,0.2874,0.2874,0.2874,0.2874,0.2874,0.2874,0.2874,0.2874,0.2874,0.2874,0.2874,0.2874,0.2874,0.2874,0.2874,0.2874,0.2874,0.2874,0.2874,0.2874,0.2874,0.2874,0.2874,0.2874,0.2874,0.2874,0.2874,0.2874,0.2863,0.2848,0.2836,0.2833,0.2833,0.2831,0.2833,0.2833,0.2833,0.2833,0.2833,0.2833,0.2831,0.2831,0.2833,0.2833,0.2833,0.2831,0.2833,0.2833,0.2833,0.2833,0.2825,0.2812,0.2788,0.2731,1.1291,0.6838,0.6838,0.4185,0.0,0.0,0.0,0.0,0.0,0.0,0.0,0.0,0.0,0.0,0.0,0.0,0.0,0.0,0.0,0.0,0.0,0.0,0.0,0.0,0.0191,0.0572,0.0286,0.0763,0.1622,0.1621,0.2002,0.2862,0.3052,0.3148,0.3148,0.3148,0.3148,0.3145,0.3006,0.2981,0.2981,0.3075,0.2979,0.2972,0.2972,0.2969,0.2962,0.2962,0.2962,0.2962,0.2962,0.295,0.2928,0.2926,0.2916,0.2897,0.2894,0.2894,0.2894,0.2894,0.289,0.2885,0.2883,0.2881,0.2875,0.2874,0.2874,0.2874,0.2874,0.2874,0.2874,0.2874,0.2874,0.2874,0.2874,0.2874,0.2874,0.2874,0.2874,0.2874,0.2874,0.2874,0.2874,0.2874,0.2874,0.2874,0.2874,0.2874,0.2874,0.2874,0.2874,0.2874,0.2874,0.2871,0.2874,0.2872,0.2871,0.2874,0.2872,0.2868,0.287,0.2872,0.2874,0.287,0.2871,0.2868,0.2872,0.2872,0.287,0.2868,0.2867,0.287,0.2864,0.2827,0.2765,1.1013,0.7122,0.6743,0.4185,0.0,0.0,0.0,0.0,0.0,0.0,0.0,0.0,0.0,0.0,0.0,0.0,0.0,0.0,0.0,0.0,0.0,0.0,0.0,0.0,0.0,0.0,0.0477,0.0477,0.0477,0.1145,0.1812,0.2384,0.2862,0.3052,0.3052,0.3052,0.3148,0.3052,0.3047,0.3044,0.3139,0.3139,0.3031,0.3003,0.3002,0.299,0.2966,0.2962,0.2962,0.2962,0.2964,0.2961,0.2958,0.2957,0.2956,0.2951,0.2953,0.2953,0.2953,0.2954,0.2939,0.2916,0.2912,0.2902,0.2881,0.2875,0.2875,0.2876,0.2876,0.2874,0.2874,0.2874,0.2874,0.2874,0.2874,0.2874,0.2874,0.2874,0.2874,0.2874,0.2874,0.2874,0.2874,0.2874,0.2874,0.2874,0.2874,0.2874,0.2874,0.2874,0.2874,0.2874,0.2874,0.2874,0.2874,0.2874,0.2874,0.2874,0.2874,0.2874,0.2874,0.2874,0.2874,0.2874,0.2874,0.2874,0.2874,0.2874,0.2874,0.2874,0.2874,0.2874,0.2871,0.2848,0.2792,0.7599,0.4563,0.4563,0.2857,0.0,0.0,0.0,0.0,0.0,0.0,0.0,0.0,0.0,0.0,0.0,0.0,0.0,0.0,0.0,0.0,0.0,0.0,0.0,0.0,0.0,0.0,0.0191,0.0382,0.0572,0.1144,0.1621,0.1812,0.2098,0.2193,0.2193,0.2479,0.2576,0.2671,0.2957,0.3148,0.3148,0.3148,0.3046,0.3036,0.3033,0.3029,0.3111,0.311,0.311,0.3016,0.3016,0.3006,0.2988,0.2988,0.298,0.2964,0.2962,0.2962,0.2962,0.2962,0.2956,0.2943,0.2943,0.2938,0.2927,0.2926,0.2926,0.2921,0.2894,0.2874,0.2875,0.2875,0.2874,0.2874,0.2874,0.2875,0.2874,0.2874,0.2874,0.2874,0.2874,0.2874,0.2874,0.2874,0.2874,0.2874,0.2874,0.2874,0.2874,0.2874,0.2874,0.2874,0.2874,0.2874,0.2874,0.2874,0.2874,0.2874,0.2874,0.2874,0.2874,0.2874,0.2874,0.2874,0.2874,0.2874,0.2874,0.2874,0.2874,0.2874,0.2874,0.2874,0.2874,0.2864,0.2829,0.5228,0.3046,0.2476,0.1334,0.0,0.0,0.0,0.0,0.0,0.0,0.0,0.0,0.0,0.0,0.0,0.0,0.0,0.0,0.0,0.0,0.0,0.0,0.0,0.0,0.0,0.0,0.0,0.0191,0.0572,0.1049,0.1335,0.1335,0.143,0.1526,0.1526,0.1907,0.2098,0.2098,0.2479,0.2671,0.2671,0.2671,0.2766,0.3052,0.3148,0.3148,0.3148,0.3148,0.3148,0.3148,0.3148,0.3043,0.3021,0.302,0.3009,0.299,0.2987,0.2987,0.2986,0.308,0.2983,0.2975,0.2973,0.2971,0.2964,0.2962,0.2962,0.2957,0.2923,0.29,0.2898,0.2898,0.2898,0.2897,0.2891,0.2886,0.2886,0.2881,0.2874,0.2874,0.2874,0.2874,0.2874,0.2874,0.2874,0.2874,0.2874,0.2874,0.2874,0.2874,0.2874,0.2874,0.2874,0.2874,0.2874,0.2874,0.2874,0.2874,0.2874,0.2874,0.2874,0.2874,0.2874,0.2874,0.2874,0.2874,0.2874,0.2874,0.2874,0.2874,0.2874,0.2874,0.2874,0.2874,0.2864,0.4945,0.276,0.0953,0.0,0.0,0.0,0.0,0.0,0.0,0.0,0.0,0.0,0.0,0.0,0.0,0.0,0.0,0.0,0.0,0.0,0.0,0.0,0.0,0.0,0.0,0.0,0.0,0.0,0.0,0.0572,0.0858,0.0858,0.124,0.143,0.143,0.1526,0.1526,0.1526,0.1621,0.1621,0.1621,0.1621,0.2098,0.2957,0.3052,0.3052,0.3148,0.3148,0.3148,0.3148,0.3148,0.3051,0.3145,0.3145,0.3047,0.3141,0.3141,0.3141,0.3139,0.3138,0.3033,0.301,0.3005,0.2994,0.2973,0.2971,0.2971,0.2964,0.2964,0.2958,0.3049,0.295,0.295,0.2949,0.2928,0.2916,0.2912,0.289,0.2876,0.2874,0.2874,0.2874,0.2874,0.2874,0.2874,0.2874,0.2874,0.2874,0.2874,0.2874,0.2874,0.2874,0.2874,0.2874,0.2874,0.2874,0.2874,0.2874,0.2874,0.2874,0.2874,0.2874,0.2874,0.2874,0.2874,0.2874,0.2874,0.2874,0.2874,0.2874,0.2874,0.2874,0.2874,0.2874,0.2868,0.1811,0.1048,0.0286,0.0,0.0,0.0,0.0,0.0,0.0,0.0,0.0,0.0,0.0,0.0,0.0,0.0,0.0,0.0,0.0,0.0,0.0,0.0,0.0,0.0,0.0,0.0,0.0,0.0,0.0,0.0191,0.0286,0.0286,0.0477,0.0572,0.0572,0.0858,0.1049,0.1049,0.1335,0.1526,0.143,0.1526,0.1716,0.2098,0.2384,0.2766,0.3148,0.3148,0.3148,0.3148,0.3148,0.3148,0.3148,0.3148,0.3148,0.3148,0.3148,0.3148,0.3148,0.3148,0.3048,0.3037,0.3036,0.3032,0.3022,0.3114,0.3114,0.3018,0.3113,0.302,0.3011,0.2986,0.2962,0.296,0.2951,0.2938,0.292,0.2906,0.2894,0.2879,0.2874,0.2874,0.2878,0.2875,0.2874,0.2874,0.2875,0.2876,0.2875,0.2875,0.2875,0.2874,0.2874,0.2874,0.2874,0.2874,0.2874,0.2874,0.2874,0.2874,0.2874,0.2874,0.2874,0.2874,0.2874,0.2874,0.2874,0.2868,0.287,0.287,0.287,0.286,0.2874,0.2866,0.2868,0.0,0.0,0.0,0.0,0.0,0.0,0.0,0.0,0.0,0.0,0.0,0.0,0.0,0.0,0.0,0.0,0.0,0.0,0.0,0.0,0.0,0.0,0.0,0.0,0.0,0.0,0.0,0.0,0.0,0.0,0.0,0.0,0.0,0.0,0.0,0.0382,0.0572,0.0572,0.0858,0.1049,0.1049,0.1049,0.1144,0.1335,0.1621,0.2002,0.2576,0.2766,0.2862,0.2862,0.3052,0.3148,0.3148,0.3148,0.3148,0.3148,0.3148,0.3148,0.3148,0.3148,0.3148,0.3148,0.3148,0.3148,0.3148,0.3148,0.3148,0.3148,0.3148,0.3148,0.3141,0.311,0.3084,0.299,0.2981,0.2968,0.2949,0.2936,0.2923,0.2909,0.2906,0.2904,0.2902,0.2904,0.2904,0.2902,0.2902,0.29,0.289,0.2887,0.2883,0.2876,0.2874,0.2874,0.2875,0.2875,0.2874,0.2874,0.2874,0.2874,0.2871,0.2871,0.2871,0.2872,0.2872,0.2874,0.2871,0.2864,0.2861,0.286,0.2842,0.2826,0.284,0.2851,0.2851,0.0,0.0,0.0,0.0,0.0,0.0,0.0,0.0,0.0,0.0,0.0,0.0,0.0,0.0,0.0,0.0,0.0,0.0,0.0,0.0,0.0,0.0,0.0,0.0,0.0,0.0,0.0,0.0,0.0,0.0,0.0,0.0,0.0,0.0,0.0,0.0,0.0,0.0,0.0,0.0,0.0,0.0,0.0382,0.0763,0.0858,0.1049,0.1526,0.2002,0.2288,0.2384,0.2766,0.3052,0.3052,0.3052,0.3148,0.3148,0.3148,0.3148,0.3148,0.3148,0.3148,0.3148,0.3148,0.3148,0.3148,0.3148,0.3148,0.3148,0.3148,0.3148,0.3148,0.3142,0.3043,0.3142,0.3021,0.3006,0.2996,0.2977,0.2961,0.2956,0.2953,0.296,0.296,0.2951,0.2949,0.295,0.295,0.2942,0.2921,0.2917,0.2905,0.2889,0.2889,0.2896,0.2885,0.2875,0.2875,0.2874,0.2874,0.2872,0.2864,0.2861,0.2852,0.2852,0.2845,0.2845,0.2844,0.2837,0.283,0.2825,0.2806,0.2797,0.2808,0.2819,0.2825,0.0,0.0,0.0,0.0,0.0,0.0,0.0,0.0,0.0,0.0,0.0,0.0,0.0,0.0,0.0,0.0,0.0,0.0,0.0,0.0,0.0,0.0,0.0,0.0,0.0,0.0,0.0,0.0,0.0,0.0,0.0,0.0,0.0,0.0,0.0,0.0,0.0,0.0,0.0,0.0,0.0,0.0,0.0,0.0191,0.0286,0.0382,0.0477,0.1335,0.1716,0.1716,0.1907,0.2193,0.2479,0.2862,0.3148,0.3148,0.3148,0.3148,0.3148,0.3148,0.3148,0.3148,0.3148,0.3148,0.3148,0.3148,0.3148,0.3148,0.3148,0.3148,0.3148,0.3148,0.3148,0.3148,0.3044,0.3028,0.301,0.2983,0.2964,0.2962,0.2962,0.2962,0.2962,0.2964,0.2966,0.2966,0.2965,0.2958,0.295,0.2947,0.2946,0.2935,0.2932,0.292,0.2911,0.2902,0.29,0.2889,0.2882,0.2871,0.2861,0.2855,0.2845,0.2838,0.283,0.2826,0.2822,0.2811,0.2807,0.2799,0.2788,0.2785,0.2785,0.2789,0.2795,0.0,0.0,0.0,0.0,0.0,0.0,0.0,0.0,0.0,0.0,0.0,0.0,0.0,0.0,0.0,0.0,0.0,0.0,0.0,0.0,0.0,0.0,0.0,0.0,0.0,0.0,0.0,0.0,0.0,0.0,0.0,0.0,0.0,0.0,0.0,0.0,0.0,0.0,0.0,0.0,0.0,0.0,0.0,0.0,0.0,0.0,0.0,0.0668,0.1049,0.124,0.143,0.1716,0.2002,0.2479,0.2766,0.2862,0.2957,0.3148,0.3148,0.3148,0.3148,0.3148,0.3148,0.3148,0.3148,0.3148,0.3148,0.3148,0.3148,0.3148,0.3148,0.3148,0.3148,0.3148,0.3148,0.3043,0.3024,0.3007,0.2998,0.2999,0.2998,0.2995,0.2995,0.2995,0.2995,0.2995,0.2995,0.2987,0.2984,0.2979,0.2975,0.2968,0.2954,0.2943,0.2936,0.293,0.2926,0.2909,0.2891,0.2876,0.2861,0.286,0.2855,0.2852,0.2845,0.2849,0.2845,0.2807,0.2789,0.278,0.2772,0.2747,0.274,0.2758,0.2766,0.0,0.0,0.0,0.0,0.0,0.0,0.0,0.0,0.0,0.0,0.0,0.0,0.0,0.0,0.0,0.0,0.0,0.0,0.0,0.0,0.0,0.0,0.0,0.0,0.0,0.0,0.0,0.0,0.0,0.0,0.0,0.0,0.0,0.0,0.0,0.0,0.0,0.0,0.0,0.0,0.0,0.0,0.0,0.0,0.0,0.0,0.0,0.0,0.0286,0.0763,0.1144,0.143,0.1526,0.2002,0.2288,0.2288,0.2766,0.2862,0.2957,0.2862,0.2957,0.2957,0.2957,0.3052,0.3052,0.3148,0.3148,0.3148,0.3148,0.3148,0.3148,0.3148,0.3148,0.3148,0.3148,0.305,0.3148,0.3048,0.3136,0.3139,0.3146,0.3146,0.3043,0.3044,0.3044,0.3044,0.3043,0.3029,0.3017,0.3006,0.2995,0.2988,0.2986,0.2975,0.2969,0.2964,0.2957,0.2935,0.2915,0.2896,0.2866,0.2857,0.2844,0.2844,0.2856,0.2863,0.2849,0.2806,0.2784,0.2782,0.2755,0.271,0.2713,0.2743,0.2748,0.0,0.0,0.0,0.0,0.0,0.0,0.0,0.0,0.0,0.0,0.0,0.0,0.0,0.0,0.0,0.0,0.0,0.0,0.0,0.0,0.0,0.0,0.0,0.0,0.0,0.0,0.0,0.0,0.0,0.0,0.0,0.0,0.0,0.0,0.0,0.0,0.0,0.0,0.0,0.0,0.0,0.0,0.0,0.0,0.0,0.0,0.0,0.0,0.0,0.0191,0.0668,0.0954,0.1049,0.143,0.1716,0.1716,0.1812,0.1907,0.1907,0.2002,0.2098,0.2479,0.2576,0.2671,0.3052,0.3148,0.3148,0.3148,0.3148,0.3148,0.3148,0.3148,0.3148,0.3148,0.3148,0.3148,0.3148,0.3148,0.3148,0.3148,0.3148,0.3148,0.3148,0.3148,0.3148,0.3148,0.3146,0.305,0.3037,0.3035,0.3024,0.3127,0.3124,0.3016,0.3005,0.2998,0.2984,0.2962,0.2942,0.2924,0.2883,0.2845,0.2822,0.2801,0.2836,0.2849,0.2823,0.2788,0.2785,0.2791,0.2772,0.2744,0.2746,0.2763,0.275,0.0,0.0,0.0,0.0,0.0,0.0,0.0,0.0,0.0,0.0,0.0,0.0,0.0,0.0,0.0,0.0,0.0,0.0,0.0,0.0,0.0,0.0,0.0,0.0,0.0,0.0,0.0,0.0,0.0,0.0,0.0,0.0,0.0,0.0,0.0,0.0,0.0,0.0,0.0,0.0,0.0,0.0,0.0,0.0,0.0,0.0,0.0,0.0,0.0,0.0,0.0286,0.0477,0.0477,0.0954,0.124,0.124,0.1335,0.1526,0.1526,0.1526,0.1621,0.1907,0.2098,0.2384,0.2766,0.2957,0.3148,0.3148,0.3148,0.3148,0.3148,0.3148,0.3148,0.3148,0.3148,0.3148,0.3148,0.3148,0.3148,0.3148,0.3148,0.3148,0.3148,0.3148,0.3148,0.3148,0.3148,0.3148,0.3145,0.3148,0.3148,0.3148,0.3148,0.3037,0.3029,0.3024,0.302,0.2998,0.2979,0.296,0.2924,0.2874,0.2867,0.2855,0.2845,0.2836,0.2827,0.2815,0.2806,0.2806,0.2793,0.2785,0.278,0.2778,0.2763,0.0,0.0,0.0,0.0,0.0,0.0,0.0,0.0,0.0,0.0,0.0,0.0,0.0,0.0,0.0,0.0,0.0,0.0,0.0,0.0,0.0,0.0,0.0,0.0,0.0,0.0,0.0,0.0,0.0,0.0,0.0,0.0,0.0,0.0,0.0,0.0,0.0,0.0,0.0,0.0,0.0,0.0,0.0,0.0,0.0,0.0,0.0,0.0,0.0,0.0,0.0,0.0,0.0,0.0477,0.0668,0.0763,0.0954,0.124,0.124,0.1144,0.1335,0.143,0.1812,0.2193,0.2288,0.2576,0.2766,0.2957,0.3052,0.2957,0.3148,0.3148,0.3148,0.3148,0.3148,0.3148,0.3148,0.3148,0.3148,0.3148,0.3148,0.3148,0.3148,0.3148,0.3148,0.3148,0.3148,0.3148,0.3148,0.3148,0.3148,0.3148,0.3148,0.3148,0.3145,0.3143,0.3141,0.3131,0.3018,0.3001,0.2981,0.2951,0.2951,0.2941,0.2908,0.2891,0.2889,0.2872,0.2846,0.283,0.2825,0.281,0.2797,0.2797,0.2788,0.0,0.0,0.0,0.0,0.0,0.0,0.0,0.0,0.0,0.0,0.0,0.0,0.0,0.0,0.0,0.0,0.0,0.0,0.0,0.0,0.0,0.0,0.0,0.0,0.0,0.0,0.0,0.0,0.0,0.0,0.0,0.0,0.0,0.0,0.0,0.0,0.0,0.0,0.0,0.0,0.0,0.0,0.0,0.0,0.0,0.0,0.0,0.0,0.0,0.0,0.0,0.0,0.0,0.0,0.0,0.0,0.0,0.0,0.0,0.0,0.0477,0.0954,0.1144,0.124,0.1621,0.1812,0.2098,0.2384,0.2479,0.2671,0.2957,0.3052,0.3052,0.3052,0.3148,0.3148,0.3148,0.3148,0.3148,0.3148,0.3148,0.3148,0.3148,0.3148,0.3148,0.3148,0.3148,0.3148,0.3148,0.3148,0.3148,0.3148,0.3148,0.3148,0.3148,0.3148,0.3148,0.3148,0.3041,0.3033,0.3014,0.2999,0.2988,0.2973,0.2954,0.2945,0.2936,0.2912,0.2883,0.287,0.2856,0.2845,0.2834,0.2827,0.2819,0.0,0.0,0.0,0.0,0.0,0.0,0.0,0.0,0.0,0.0,0.0,0.0,0.0,0.0,0.0,0.0,0.0,0.0,0.0,0.0,0.0,0.0,0.0,0.0,0.0,0.0,0.0,0.0,0.0,0.0,0.0,0.0,0.0,0.0,0.0,0.0,0.0,0.0,0.0,0.0,0.0,0.0,0.0,0.0,0.0,0.0,0.0,0.0,0.0,0.0,0.0,0.0,0.0,0.0,0.0,0.0,0.0,0.0,0.0,0.0,0.0191,0.0382,0.0668,0.0858,0.1144,0.1335,0.1621,0.1812,0.2002,0.2098,0.2671,0.2671,0.2766,0.3052,0.3148,0.3148,0.3148,0.3148,0.3148,0.3148,0.3148,0.3148,0.3148,0.3148,0.3148,0.3148,0.3148,0.3148,0.3148,0.3148,0.3148,0.3148,0.3148,0.3148,0.3148,0.3148,0.3148,0.3148,0.3145,0.3141,0.3134,0.3024,0.301,0.2999,0.299,0.298,0.2969,0.2943,0.2917,0.2898,0.2885,0.2879,0.287,0.2853,0.2848,0.0,0.0,0.0,0.0,0.0,0.0,0.0,0.0,0.0,0.0,0.0,0.0,0.0,0.0,0.0,0.0,0.0,0.0,0.0,0.0,0.0,0.0,0.0,0.0,0.0,0.0,0.0,0.0,0.0,0.0,0.0,0.0,0.0,0.0,0.0,0.0,0.0,0.0,0.0,0.0,0.0,0.0,0.0,0.0,0.0,0.0,0.0,0.0,0.0,0.0,0.0,0.0,0.0,0.0,0.0,0.0,0.0,0.0,0.0,0.0,0.0,0.0,0.0382,0.0668,0.0763,0.0954,0.1144,0.143,0.1621,0.1907,0.2288,0.2576,0.2766,0.2957,0.3148,0.3148,0.3148,0.3148,0.3148,0.3148,0.3148,0.3148,0.3148,0.3148,0.3148,0.3148,0.3148,0.3148,0.3148,0.3148,0.3148,0.3148,0.3148,0.3148,0.3148,0.3148,0.3148,0.3148,0.3148,0.3148,0.3148,0.3138,0.3031,0.3035,0.3028,0.3014,0.2996,0.2972,0.2947,0.2924,0.2905,0.2891,0.2883,0.2875,0.2871,0.0,0.0,0.0,0.0,0.0,0.0,0.0,0.0,0.0,0.0,0.0,0.0,0.0,0.0,0.0,0.0,0.0,0.0,0.0,0.0,0.0,0.0,0.0,0.0,0.0,0.0,0.0,0.0,0.0,0.0,0.0,0.0,0.0,0.0,0.0,0.0,0.0,0.0,0.0,0.0,0.0,0.0,0.0,0.0,0.0,0.0,0.0,0.0,0.0,0.0,0.0,0.0,0.0,0.0,0.0,0.0,0.0,0.0,0.0,0.0,0.0,0.0,0.0,0.0,0.0,0.0,0.0572,0.0954,0.1526,0.2098,0.2288,0.2479,0.2862,0.3052,0.3052,0.3148,0.3148,0.3148,0.3148,0.3148,0.3148,0.3148,0.3148,0.3148,0.3148,0.3148,0.3148,0.3148,0.3148,0.3148,0.3148,0.3148,0.3148,0.3148,0.3148,0.3148,0.3148,0.3148,0.3148,0.3148,0.3148,0.3148,0.3146,0.3143,0.3044,0.3032,0.3014,0.2995,0.2971,0.2945,0.2923,0.2902,0.2891,0.2882,0.2875,0.0,0.0,0.0,0.0,0.0,0.0,0.0,0.0,0.0,0.0,0.0,0.0,0.0,0.0,0.0,0.0,0.0,0.0,0.0,0.0,0.0,0.0,0.0,0.0,0.0,0.0,0.0,0.0,0.0,0.0,0.0,0.0,0.0,0.0,0.0,0.0,0.0,0.0,0.0,0.0,0.0,0.0,0.0,0.0,0.0,0.0,0.0,0.0,0.0,0.0,0.0,0.0,0.0,0.0,0.0,0.0,0.0,0.0,0.0,0.0,0.0,0.0,0.0,0.0,0.0,0.0,0.0,0.0382,0.0668,0.124,0.143,0.2002,0.2384,0.2671,0.2957,0.3052,0.3148,0.3148,0.3148,0.3148,0.3148,0.3148,0.3148,0.3148,0.3148,0.3148,0.3148,0.3148,0.3148,0.3148,0.3148,0.3148,0.3148,0.3148,0.3148,0.3148,0.3148,0.3148,0.3148,0.3148,0.3148,0.3148,0.3148,0.3146,0.3142,0.3043,0.3033,0.3014,0.299,0.2965,0.2941,0.2917,0.2901,0.2889,0.2882,0.0,0.0,0.0,0.0,0.0,0.0,0.0,0.0,0.0,0.0,0.0,0.0,0.0,0.0,0.0,0.0,0.0,0.0,0.0,0.0,0.0,0.0,0.0,0.0,0.0,0.0,0.0,0.0,0.0,0.0,0.0,0.0,0.0,0.0,0.0,0.0,0.0,0.0,0.0,0.0,0.0,0.0,0.0,0.0,0.0,0.0,0.0,0.0,0.0,0.0,0.0,0.0,0.0,0.0,0.0,0.0,0.0,0.0,0.0,0.0,0.0,0.0,0.0,0.0,0.0,0.0,0.0,0.0,0.0191,0.0477,0.0954,0.1335,0.1907,0.2288,0.2766,0.3148,0.3148,0.3148,0.3148,0.3148,0.3148,0.3148,0.3148,0.3148,0.3148,0.3148,0.3148,0.3148,0.3148,0.3148,0.3148,0.3148,0.3148,0.3148,0.3148,0.3148,0.3148,0.3148,0.3148,0.3148,0.3148,0.3148,0.3148,0.3148,0.3148,0.3142,0.3041,0.3035,0.3013,0.2988,0.2957,0.2932,0.2913,0.2898,0.289,0.0,0.0,0.0,0.0,0.0,0.0,0.0,0.0,0.0,0.0,0.0,0.0,0.0,0.0,0.0,0.0,0.0,0.0,0.0,0.0,0.0,0.0,0.0,0.0,0.0,0.0,0.0,0.0,0.0,0.0,0.0,0.0,0.0,0.0,0.0,0.0,0.0,0.0,0.0,0.0,0.0,0.0,0.0,0.0,0.0,0.0,0.0,0.0,0.0,0.0,0.0,0.0,0.0,0.0,0.0,0.0,0.0,0.0,0.0,0.0,0.0,0.0,0.0,0.0,0.0,0.0,0.0,0.0,0.0382,0.0572,0.0858,0.1621,0.2098,0.2384,0.2766,0.3052,0.3148,0.3148,0.3148,0.3148,0.3148,0.3148,0.3148,0.3148,0.3148,0.3148,0.3148,0.3148,0.3148,0.3148,0.3148,0.3148,0.3148,0.3148,0.3148,0.3148,0.3148,0.3148,0.3148,0.3148,0.3148,0.3148,0.3148,0.3148,0.3148,0.3148,0.3143,0.304,0.3031,0.3013,0.2987,0.2956,0.2923,0.2911,0.29,0.0,0.0,0.0,0.0,0.0,0.0,0.0,0.0,0.0,0.0,0.0,0.0,0.0,0.0,0.0,0.0,0.0,0.0,0.0,0.0,0.0,0.0,0.0,0.0,0.0,0.0,0.0,0.0,0.0,0.0,0.0,0.0,0.0,0.0,0.0,0.0,0.0,0.0,0.0,0.0,0.0,0.0,0.0,0.0,0.0,0.0,0.0,0.0,0.0,0.0,0.0,0.0,0.0,0.0,0.0,0.0,0.0,0.0,0.0,0.0,0.0,0.0,0.0,0.0,0.0,0.0,0.0,0.0,0.0,0.0,0.0,0.124,0.1621,0.2002,0.2576,0.2957,0.3052,0.3148,0.3148,0.3148,0.3148,0.3148,0.3148,0.3148,0.3148,0.3148,0.3148,0.3148,0.3148,0.3148,0.3148,0.3148,0.3148,0.3148,0.3148,0.3148,0.3148,0.3148,0.3148,0.3148,0.3148,0.3148,0.3148,0.3148,0.3148,0.3148,0.3148,0.3143,0.3041,0.3031,0.3018,0.2984,0.2949,0.2919,0.2906,0.0,0.0,0.0,0.0,0.0,0.0,0.0,0.0,0.0,0.0,0.0,0.0,0.0,0.0,0.0,0.0,0.0,0.0,0.0,0.0,0.0,0.0,0.0,0.0,0.0,0.0,0.0,0.0,0.0,0.0,0.0,0.0,0.0,0.0,0.0,0.0,0.0,0.0,0.0,0.0,0.0,0.0,0.0,0.0,0.0,0.0,0.0,0.0,0.0,0.0,0.0,0.0,0.0,0.0,0.0,0.0,0.0,0.0,0.0,0.0,0.0,0.0,0.0,0.0,0.0,0.0,0.0,0.0,0.0,0.0,0.0,0.0,0.1335,0.1812,0.2288,0.2766,0.3052,0.3052,0.3148,0.3148,0.3148,0.3148,0.3148,0.3148,0.3148,0.3148,0.3148,0.3148,0.3148,0.3148,0.3148,0.3148,0.3148,0.3148,0.3148,0.3148,0.3148,0.3148,0.3148,0.3148,0.3148,0.3148,0.3148,0.3148,0.3148,0.3148,0.3148,0.3148,0.3146,0.3043,0.3031,0.3009,0.2979,0.2943,0.2911,0.0,0.0,0.0,0.0,0.0,0.0,0.0,0.0,0.0,0.0,0.0,0.0,0.0,0.0,0.0,0.0,0.0,0.0,0.0,0.0,0.0,0.0,0.0,0.0,0.0,0.0,0.0,0.0,0.0,0.0,0.0,0.0,0.0,0.0,0.0,0.0,0.0,0.0,0.0,0.0,0.0,0.0,0.0,0.0,0.0,0.0,0.0,0.0,0.0,0.0,0.0,0.0,0.0,0.0,0.0,0.0,0.0,0.0,0.0,0.0,0.0,0.0,0.0,0.0,0.0,0.0,0.0,0.0,0.0,0.0,0.0,0.0477,0.1049,0.143,0.2002,0.2479,0.2862,0.3052,0.3052,0.3148,0.3148,0.3148,0.3148,0.3148,0.3148,0.3148,0.3148,0.3148,0.3148,0.3148,0.3148,0.3148,0.3148,0.3148,0.3148,0.3148,0.3148,0.3148,0.3148,0.3148,0.3148,0.3148,0.3148,0.3148,0.3148,0.3148,0.3148,0.3148,0.3148,0.3148,0.3136,0.3022,0.299,0.295,0.2916,0.0,0.0,0.0,0.0,0.0,0.0,0.0,0.0,0.0,0.0,0.0,0.0,0.0,0.0,0.0,0.0,0.0,0.0,0.0,0.0,0.0,0.0,0.0,0.0,0.0,0.0,0.0,0.0,0.0,0.0,0.0,0.0,0.0,0.0,0.0,0.0,0.0,0.0,0.0,0.0,0.0,0.0,0.0,0.0,0.0,0.0,0.0,0.0,0.0,0.0,0.0,0.0,0.0,0.0,0.0,0.0,0.0,0.0,0.0,0.0,0.0,0.0,0.0,0.0,0.0,0.0,0.0,0.0,0.0,0.0,0.0,0.0477,0.0954,0.124,0.1621,0.2193,0.2576,0.2862,0.3052,0.3052,0.3148,0.3148,0.3148,0.3148,0.3148,0.3148,0.3148,0.3148,0.3148,0.3148,0.3148,0.3148,0.3148,0.3148,0.3148,0.3148,0.3148,0.3148,0.3148,0.3148,0.3148,0.3148,0.3148,0.3148,0.3148,0.3148,0.3148,0.3148,0.3148,0.3148,0.3142,0.3037,0.2999,0.2958,0.2928,0.0,0.0,0.0,0.0,0.0,0.0,0.0,0.0,0.0,0.0,0.0,0.0,0.0,0.0,0.0,0.0,0.0,0.0,0.0,0.0,0.0,0.0,0.0,0.0,0.0,0.0,0.0,0.0,0.0,0.0,0.0,0.0,0.0,0.0,0.0,0.0,0.0,0.0,0.0,0.0,0.0,0.0,0.0,0.0,0.0,0.0,0.0,0.0,0.0,0.0,0.0,0.0,0.0,0.0,0.0,0.0,0.0,0.0,0.0,0.0,0.0,0.0,0.0,0.0,0.0,0.0,0.0,0.0,0.0,0.0,0.0,0.0286,0.0668,0.0954,0.124,0.1716,0.2288,0.2576,0.2862,0.3052,0.3052,0.3148,0.3148,0.3148,0.3148,0.3148,0.3148,0.3148,0.3148,0.3148,0.3148,0.3148,0.3148,0.3148,0.3148,0.3148,0.3148,0.3148,0.3148,0.3148,0.3148,0.3148,0.3148,0.3148,0.3148,0.3148,0.3148,0.3148,0.3148,0.3148,0.3142,0.3138,0.3016,0.2977,0.2947,0.0,0.0,0.0,0.0,0.0,0.0,0.0,0.0,0.0,0.0,0.0,0.0,0.0,0.0,0.0,0.0,0.0,0.0,0.0,0.0,0.0,0.0,0.0,0.0,0.0,0.0,0.0,0.0,0.0,0.0,0.0,0.0,0.0,0.0,0.0,0.0,0.0,0.0,0.0,0.0,0.0,0.0,0.0,0.0,0.0,0.0,0.0,0.0,0.0,0.0,0.0,0.0,0.0,0.0,0.0,0.0,0.0,0.0,0.0,0.0,0.0,0.0,0.0,0.0,0.0,0.0,0.0,0.0,0.0,0.0,0.0,0.0,0.0,0.0572,0.0858,0.1335,0.1907,0.2384,0.2671,0.3052,0.3052,0.3148,0.3148,0.3148,0.3148,0.3148,0.3148,0.3148,0.3148,0.3148,0.3148,0.3148,0.3148,0.3148,0.3148,0.3148,0.3148,0.3148,0.3148,0.3148,0.3148,0.3148,0.3148,0.3148,0.3148,0.3148,0.3148,0.3148,0.3148,0.3148,0.3148,0.3139,0.3021,0.2998,0.2971,0.0,0.0,0.0,0.0,0.0,0.0,0.0,0.0,0.0,0.0,0.0,0.0,0.0,0.0,0.0,0.0,0.0,0.0,0.0,0.0,0.0,0.0,0.0,0.0,0.0,0.0,0.0,0.0,0.0,0.0,0.0,0.0,0.0,0.0,0.0,0.0,0.0,0.0,0.0,0.0,0.0,0.0,0.0,0.0,0.0,0.0,0.0,0.0,0.0,0.0,0.0,0.0,0.0,0.0,0.0,0.0,0.0,0.0,0.0,0.0,0.0,0.0,0.0,0.0,0.0,0.0,0.0,0.0,0.0,0.0,0.0,0.0,0.0,0.0,0.0572,0.1049,0.1621,0.2098,0.2479,0.2862,0.3148,0.3148,0.3148,0.3148,0.3148,0.3148,0.3148,0.3148,0.3148,0.3148,0.3148,0.3148,0.3148,0.3148,0.3148,0.3148,0.3148,0.3148,0.3148,0.3148,0.3148,0.3148,0.3148,0.3148,0.3148,0.3148,0.3148,0.3148,0.3148,0.3148,0.3148,0.3148,0.3039,0.302,0.2998,0.0,0.0,0.0,0.0,0.0,0.0,0.0,0.0,0.0,0.0,0.0,0.0,0.0,0.0,0.0,0.0,0.0,0.0,0.0,0.0,0.0,0.0,0.0,0.0,0.0,0.0,0.0,0.0,0.0,0.0,0.0,0.0,0.0,0.0,0.0,0.0,0.0,0.0,0.0,0.0,0.0,0.0,0.0,0.0,0.0,0.0,0.0,0.0,0.0,0.0,0.0,0.0,0.0,0.0,0.0,0.0,0.0,0.0,0.0,0.0,0.0,0.0,0.0,0.0,0.0,0.0,0.0,0.0,0.0,0.0,0.0,0.0,0.0,0.0,0.0,0.0,0.1239,0.1715,0.219,0.2666,0.3046,0.3047,0.3143,0.3148,0.3148,0.3148,0.3148,0.3145,0.3143,0.3146,0.3148,0.3148,0.3148,0.3148,0.3148,0.3148,0.3148,0.3148,0.3148,0.3148,0.3148,0.3148,0.3148,0.3148,0.3148,0.3148,0.3148,0.3148,0.3148,0.3148,0.3148,0.3148,0.3148,0.3039,0.3018,0.0,0.0,0.0,0.0,0.0,0.0,0.0,0.0,0.0,0.0,0.0,0.0,0.0,0.0,0.0,0.0,0.0,0.0,0.0,0.0,0.0,0.0,0.0,0.0,0.0,0.0,0.0,0.0,0.0,0.0,0.0,0.0,0.0,0.0,0.0,0.0,0.0,0.0,0.0,0.0,0.0,0.0,0.0,0.0,0.0,0.0,0.0,0.0,0.0,0.0,0.0,0.0,0.0,0.0,0.0,0.0,0.0,0.0,0.0,0.0,0.0,0.0,0.0,0.0,0.0,0.0,0.0,0.0,0.0,0.0,0.0,0.0,0.0,0.0,0.0,0.0,0.0,0.1331,0.1805,0.2278,0.2845,0.3033,0.3029,0.3033,0.3124,0.312,0.3117,0.3118,0.3122,0.305,0.305,0.3148,0.3148,0.3148,0.3148,0.3145,0.3148,0.3148,0.3148,0.3148,0.3148,0.3146,0.3148,0.3148,0.3148,0.3148,0.3148,0.3148,0.3148,0.3148,0.3148,0.3148,0.3148,0.3148,0.3037,0.0,0.0,0.0,0.0,0.0,0.0,0.0,0.0,0.0,0.0,0.0,0.0,0.0,0.0,0.0,0.0,0.0,0.0,0.0,0.0,0.0,0.0,0.0,0.0,0.0,0.0,0.0,0.0,0.0,0.0,0.0,0.0,0.0,0.0,0.0,0.0,0.0,0.0,0.0,0.0,0.0,0.0,0.0,0.0,0.0,0.0,0.0,0.0,0.0,0.0,0.0,0.0,0.0,0.0,0.0,0.0,0.0,0.0,0.0,0.0,0.0,0.0,0.0,0.0,0.0,0.0,0.0,0.0,0.0,0.0,0.0,0.0,0.0,0.0,0.0,0.0,0.0662,0.1132,0.1602,0.2161,0.2722,0.3003,0.3002,0.2998,0.2992,0.299,0.299,0.2994,0.3096,0.3024,0.3033,0.3129,0.3131,0.3127,0.3138,0.3044,0.3145,0.3148,0.3139,0.3135,0.3136,0.3138,0.3145,0.3148,0.3148,0.3148,0.3148,0.3148,0.3148,0.3148,0.3148,0.3148,0.3148,0.3148,0.3146,0.0,0.0,0.0,0.0,0.0,0.0,0.0,0.0,0.0,0.0,0.0,0.0,0.0,0.0,0.0,0.0,0.0,0.0,0.0,0.0,0.0,0.0,0.0,0.0,0.0,0.0,0.0,0.0,0.0,0.0,0.0,0.0,0.0,0.0,0.0,0.0,0.0,0.0,0.0,0.0,0.0,0.0,0.0,0.0,0.0,0.0,0.0,0.0,0.0,0.0,0.0,0.0,0.0,0.0,0.0,0.0,0.0,0.0,0.0,0.0,0.0,0.0,0.0,0.0,0.0,0.0,0.0,0.0,0.0,0.0,0.0,0.0,0.0,0.0,0.0,0.0,0.0562,0.0934,0.149,0.2133,0.2595,0.2874,0.2965,0.2961,0.2962,0.2969,0.2972,0.2973,0.2979,0.3083,0.2998,0.3093,0.3097,0.31,0.3018,0.3025,0.3018,0.3107,0.31,0.31,0.3113,0.3031,0.3033,0.3043,0.3148,0.3148,0.3148,0.3148,0.3148,0.3148,0.3148,0.3148,0.3148,0.3148,0.3146,0.0,0.0,0.0,0.0,0.0,0.0,0.0,0.0,0.0,0.0,0.0,0.0,0.0,0.0,0.0,0.0,0.0,0.0,0.0,0.0,0.0,0.0,0.0,0.0,0.0,0.0,0.0,0.0,0.0,0.0,0.0,0.0,0.0,0.0,0.0,0.0,0.0,0.0,0.0,0.0,0.0,0.0,0.0,0.0,0.0,0.0,0.0,0.0,0.0,0.0,0.0,0.0,0.0,0.0,0.0,0.0,0.0,0.0,0.0,0.0,0.0,0.0,0.0,0.0,0.0,0.0,0.0,0.0,0.0,0.0,0.0,0.0,0.0,0.0,0.0,0.0,0.0,0.0,0.1286,0.1924,0.2382,0.2748,0.2932,0.2928,0.2927,0.2942,0.2946,0.2943,0.2947,0.2953,0.3056,0.2966,0.2977,0.2983,0.2981,0.2984,0.2976,0.2969,0.2968,0.2973,0.2988,0.3003,0.3018,0.3029,0.3136,0.3145,0.3148,0.3148,0.3148,0.3148,0.3148,0.3148,0.3148,0.3148,0.3148,0.0,0.0,0.0,0.0,0.0,0.0,0.0,0.0,0.0,0.0,0.0,0.0,0.0,0.0,0.0,0.0,0.0,0.0,0.0,0.0,0.0,0.0,0.0,0.0,0.0,0.0,0.0,0.0,0.0,0.0,0.0,0.0,0.0,0.0,0.0,0.0,0.0,0.0,0.0,0.0,0.0,0.0,0.0,0.0,0.0,0.0,0.0,0.0,0.0,0.0,0.0,0.0,0.0,0.0,0.0,0.0,0.0,0.0,0.0,0.0,0.0,0.0,0.0,0.0,0.0,0.0,0.0,0.0,0.0,0.0,0.0,0.0,0.0,0.0,0.0,0.0,0.0,0.0,0.0,0.1631,0.2174,0.2536,0.281,0.29,0.2896,0.2894,0.2893,0.2894,0.2898,0.2906,0.2932,0.2941,0.2958,0.2962,0.2956,0.2949,0.2942,0.2946,0.295,0.2954,0.2958,0.2975,0.2992,0.3014,0.3031,0.3037,0.3139,0.3146,0.3148,0.3148,0.3148,0.3148,0.3148,0.3148,0.3148,0.0,0.0,0.0,0.0,0.0,0.0,0.0,0.0,0.0,0.0,0.0,0.0,0.0,0.0,0.0,0.0,0.0,0.0,0.0,0.0,0.0,0.0,0.0,0.0,0.0,0.0,0.0,0.0,0.0,0.0,0.0,0.0,0.0,0.0,0.0,0.0,0.0,0.0,0.0,0.0,0.0,0.0,0.0,0.0,0.0,0.0,0.0,0.0,0.0,0.0,0.0,0.0,0.0,0.0,0.0,0.0,0.0,0.0,0.0,0.0,0.0,0.0,0.0,0.0,0.0,0.0,0.0,0.0,0.0,0.0,0.0,0.0,0.0,0.0,0.0,0.0,0.0,0.0,0.0811,0.1081,0.1622,0.2073,0.2344,0.2524,0.2612,0.2883,0.2876,0.2875,0.2875,0.2874,0.2897,0.2913,0.2928,0.2927,0.2913,0.2911,0.2912,0.2919,0.293,0.293,0.2931,0.2949,0.2968,0.2987,0.3006,0.3022,0.3031,0.304,0.3145,0.3148,0.3148,0.3148,0.3148,0.3148,0.3148,0.0,0.0,0.0,0.0,0.0,0.0,0.0,0.0,0.0,0.0,0.0,0.0,0.0,0.0,0.0,0.0,0.0,0.0,0.0,0.0,0.0,0.0,0.0,0.0,0.0,0.0,0.0,0.0,0.0,0.0,0.0,0.0,0.0,0.0,0.0,0.0,0.0,0.0,0.0,0.0,0.0,0.0,0.0,0.0,0.0,0.0,0.0,0.0,0.0,0.0,0.0,0.0,0.0,0.0,0.0,0.0,0.0,0.0,0.0,0.0,0.0,0.0,0.0,0.0,0.0,0.0,0.0,0.0,0.0,0.0,0.0,0.0,0.0,0.0,0.0,0.0,0.0,0.0,0.0539,0.0718,0.1077,0.1616,0.1886,0.2066,0.2335,0.2694,0.2874,0.2874,0.2874,0.2874,0.2885,0.289,0.2897,0.2889,0.2881,0.2885,0.2893,0.2891,0.29,0.29,0.2905,0.2926,0.2942,0.2954,0.2973,0.2996,0.3016,0.3026,0.3037,0.3142,0.3148,0.3148,0.3148,0.3148,0.3148,0.0,0.0,0.0,0.0,0.0,0.0,0.0,0.0,0.0,0.0,0.0,0.0,0.0,0.0,0.0,0.0,0.0,0.0,0.0,0.0,0.0,0.0,0.0,0.0,0.0,0.0,0.0,0.0,0.0,0.0,0.0,0.0,0.0,0.0,0.0,0.0,0.0,0.0,0.0,0.0,0.0,0.0,0.0,0.0,0.0,0.0,0.0,0.0,0.0,0.0,0.0,0.0,0.0,0.0,0.0,0.0,0.0,0.0,0.0,0.0,0.0,0.0,0.0,0.0,0.0,0.0,0.0,0.0,0.0,0.0,0.0,0.0,0.0,0.0,0.0,0.0,0.0,0.0,0.0269,0.0449,0.0718,0.1167,0.1436,0.1707,0.2066,0.2425,0.2694,0.2784,0.2874,0.2874,0.2874,0.2874,0.2874,0.2874,0.2875,0.2876,0.2881,0.2876,0.2875,0.2883,0.2893,0.2905,0.292,0.2927,0.2949,0.2975,0.2991,0.3002,0.3025,0.3036,0.3143,0.3148,0.3148,0.3148,0.3148]}]]